<?xml version="1.0" encoding="UTF-8" standalone="no" ?>
<gpx xmlns="http://www.topografix.com/GPX/1/1" xmlns:xsi="http://www.w3.org/2001/XMLSchema-instance" xsi:schemaLocation="http://www.topografix.com/GPX/1/1 http://www.topografix.com/GPX/1/1/gpx.xsd" version="1.1" creator="VisuGPX - https://www.visugpx.com">
  <metadata>
    <name>Vélo enfants ussh 31/03/12</name>
    <desc><![CDATA[vélo enfants USSH 31/03/12]]></desc>
  </metadata>
  <trk>
    <name><![CDATA[Vélo enfants ussh 31/03/12_1]]></name>
    <trkseg>
      <trkpt lat="47.23708" lon="-1.61187">
        <ele>-69</ele>
        <time>2012-03-31T12:35:56Z</time>
      </trkpt>
      <trkpt lat="47.23699" lon="-1.61188">
        <ele>-73</ele>
        <time>2012-03-31T12:36:34Z</time>
      </trkpt>
      <trkpt lat="47.23703" lon="-1.61202">
        <ele>-88.25</ele>
        <time>2012-03-31T12:39:26Z</time>
      </trkpt>
      <trkpt lat="47.23704" lon="-1.61222">
        <ele>-79</ele>
        <time>2012-03-31T12:39:30Z</time>
      </trkpt>
      <trkpt lat="47.23703" lon="-1.61237">
        <ele>-74</ele>
        <time>2012-03-31T12:39:33Z</time>
      </trkpt>
      <trkpt lat="47.23694" lon="-1.61237">
        <ele>-68.75</ele>
        <time>2012-03-31T12:39:37Z</time>
      </trkpt>
      <trkpt lat="47.23685" lon="-1.61247">
        <ele>-66.25</ele>
        <time>2012-03-31T12:39:44Z</time>
      </trkpt>
      <trkpt lat="47.23686" lon="-1.61261">
        <ele>-66.5</ele>
        <time>2012-03-31T12:39:46Z</time>
      </trkpt>
      <trkpt lat="47.2369" lon="-1.61276">
        <ele>-66</ele>
        <time>2012-03-31T12:39:48Z</time>
      </trkpt>
      <trkpt lat="47.23695" lon="-1.61287">
        <ele>-63</ele>
        <time>2012-03-31T12:39:51Z</time>
      </trkpt>
      <trkpt lat="47.23705" lon="-1.61297">
        <ele>-55.75</ele>
        <time>2012-03-31T12:39:54Z</time>
      </trkpt>
      <trkpt lat="47.23714" lon="-1.61301">
        <ele>-53.25</ele>
        <time>2012-03-31T12:39:56Z</time>
      </trkpt>
      <trkpt lat="47.23727" lon="-1.61299">
        <ele>-51.75</ele>
        <time>2012-03-31T12:40:00Z</time>
      </trkpt>
      <trkpt lat="47.23736" lon="-1.61299">
        <ele>-50</ele>
        <time>2012-03-31T12:40:02Z</time>
      </trkpt>
      <trkpt lat="47.23745" lon="-1.61305">
        <ele>-50.25</ele>
        <time>2012-03-31T12:40:04Z</time>
      </trkpt>
      <trkpt lat="47.23752" lon="-1.61316">
        <ele>-55.5</ele>
        <time>2012-03-31T12:40:06Z</time>
      </trkpt>
      <trkpt lat="47.23759" lon="-1.61327">
        <ele>-58.5</ele>
        <time>2012-03-31T12:40:09Z</time>
      </trkpt>
      <trkpt lat="47.23766" lon="-1.61343">
        <ele>-57.25</ele>
        <time>2012-03-31T12:40:12Z</time>
      </trkpt>
      <trkpt lat="47.23773" lon="-1.6136">
        <ele>-57.75</ele>
        <time>2012-03-31T12:40:15Z</time>
      </trkpt>
      <trkpt lat="47.23777" lon="-1.61372">
        <ele>-57.75</ele>
        <time>2012-03-31T12:40:18Z</time>
      </trkpt>
      <trkpt lat="47.23778" lon="-1.61385">
        <ele>-59.25</ele>
        <time>2012-03-31T12:40:20Z</time>
      </trkpt>
      <trkpt lat="47.23778" lon="-1.61399">
        <ele>-60.25</ele>
        <time>2012-03-31T12:40:22Z</time>
      </trkpt>
      <trkpt lat="47.23773" lon="-1.61415">
        <ele>-60.5</ele>
        <time>2012-03-31T12:40:24Z</time>
      </trkpt>
      <trkpt lat="47.23768" lon="-1.61431">
        <ele>-61.75</ele>
        <time>2012-03-31T12:40:26Z</time>
      </trkpt>
      <trkpt lat="47.23767" lon="-1.61449">
        <ele>-62.5</ele>
        <time>2012-03-31T12:40:30Z</time>
      </trkpt>
      <trkpt lat="47.23764" lon="-1.61469">
        <ele>-65.75</ele>
        <time>2012-03-31T12:40:33Z</time>
      </trkpt>
      <trkpt lat="47.23759" lon="-1.61486">
        <ele>-65.75</ele>
        <time>2012-03-31T12:40:35Z</time>
      </trkpt>
      <trkpt lat="47.23756" lon="-1.61501">
        <ele>-64.25</ele>
        <time>2012-03-31T12:40:37Z</time>
      </trkpt>
      <trkpt lat="47.23756" lon="-1.61514">
        <ele>-63.25</ele>
        <time>2012-03-31T12:40:40Z</time>
      </trkpt>
      <trkpt lat="47.23753" lon="-1.61533">
        <ele>-63</ele>
        <time>2012-03-31T12:40:43Z</time>
      </trkpt>
      <trkpt lat="47.23757" lon="-1.6155">
        <ele>-62.5</ele>
        <time>2012-03-31T12:40:46Z</time>
      </trkpt>
      <trkpt lat="47.23766" lon="-1.61557">
        <ele>-61.25</ele>
        <time>2012-03-31T12:40:50Z</time>
      </trkpt>
      <trkpt lat="47.23767" lon="-1.61573">
        <ele>-63</ele>
        <time>2012-03-31T12:40:58Z</time>
      </trkpt>
      <trkpt lat="47.23765" lon="-1.61587">
        <ele>-63</ele>
        <time>2012-03-31T12:41:02Z</time>
      </trkpt>
      <trkpt lat="47.23763" lon="-1.61601">
        <ele>-63.25</ele>
        <time>2012-03-31T12:41:05Z</time>
      </trkpt>
      <trkpt lat="47.23759" lon="-1.61621">
        <ele>-64.75</ele>
        <time>2012-03-31T12:41:08Z</time>
      </trkpt>
      <trkpt lat="47.23756" lon="-1.61634">
        <ele>-66.5</ele>
        <time>2012-03-31T12:41:10Z</time>
      </trkpt>
      <trkpt lat="47.23751" lon="-1.61648">
        <ele>-70</ele>
        <time>2012-03-31T12:41:13Z</time>
      </trkpt>
      <trkpt lat="47.23746" lon="-1.6166">
        <ele>-71.75</ele>
        <time>2012-03-31T12:41:15Z</time>
      </trkpt>
      <trkpt lat="47.23742" lon="-1.61676">
        <ele>-69</ele>
        <time>2012-03-31T12:41:18Z</time>
      </trkpt>
      <trkpt lat="47.23741" lon="-1.61695">
        <ele>-65.25</ele>
        <time>2012-03-31T12:41:21Z</time>
      </trkpt>
      <trkpt lat="47.23743" lon="-1.61714">
        <ele>-62</ele>
        <time>2012-03-31T12:41:25Z</time>
      </trkpt>
      <trkpt lat="47.23745" lon="-1.61729">
        <ele>-58.75</ele>
        <time>2012-03-31T12:41:27Z</time>
      </trkpt>
      <trkpt lat="47.23748" lon="-1.61744">
        <ele>-55.5</ele>
        <time>2012-03-31T12:41:29Z</time>
      </trkpt>
      <trkpt lat="47.23753" lon="-1.61759">
        <ele>-51.5</ele>
        <time>2012-03-31T12:41:31Z</time>
      </trkpt>
      <trkpt lat="47.23759" lon="-1.61773">
        <ele>-49</ele>
        <time>2012-03-31T12:41:33Z</time>
      </trkpt>
      <trkpt lat="47.23765" lon="-1.61787">
        <ele>-47</ele>
        <time>2012-03-31T12:41:36Z</time>
      </trkpt>
      <trkpt lat="47.23771" lon="-1.61802">
        <ele>-46</ele>
        <time>2012-03-31T12:41:38Z</time>
      </trkpt>
      <trkpt lat="47.23779" lon="-1.6182">
        <ele>-47.25</ele>
        <time>2012-03-31T12:41:40Z</time>
      </trkpt>
      <trkpt lat="47.23786" lon="-1.61835">
        <ele>-47.5</ele>
        <time>2012-03-31T12:41:42Z</time>
      </trkpt>
      <trkpt lat="47.23791" lon="-1.61845">
        <ele>-46</ele>
        <time>2012-03-31T12:41:45Z</time>
      </trkpt>
      <trkpt lat="47.23797" lon="-1.61857">
        <ele>-45.25</ele>
        <time>2012-03-31T12:41:47Z</time>
      </trkpt>
      <trkpt lat="47.23805" lon="-1.61874">
        <ele>-46.25</ele>
        <time>2012-03-31T12:41:49Z</time>
      </trkpt>
      <trkpt lat="47.23814" lon="-1.61891">
        <ele>-47.25</ele>
        <time>2012-03-31T12:41:51Z</time>
      </trkpt>
      <trkpt lat="47.23822" lon="-1.61904">
        <ele>-48.75</ele>
        <time>2012-03-31T12:41:54Z</time>
      </trkpt>
      <trkpt lat="47.23832" lon="-1.61917">
        <ele>-50.25</ele>
        <time>2012-03-31T12:41:56Z</time>
      </trkpt>
      <trkpt lat="47.23841" lon="-1.61928">
        <ele>-52.5</ele>
        <time>2012-03-31T12:41:58Z</time>
      </trkpt>
      <trkpt lat="47.23849" lon="-1.6194">
        <ele>-55.25</ele>
        <time>2012-03-31T12:42:00Z</time>
      </trkpt>
      <trkpt lat="47.23859" lon="-1.61948">
        <ele>-56.25</ele>
        <time>2012-03-31T12:42:02Z</time>
      </trkpt>
      <trkpt lat="47.23869" lon="-1.61953">
        <ele>-56.5</ele>
        <time>2012-03-31T12:42:05Z</time>
      </trkpt>
      <trkpt lat="47.23878" lon="-1.61957">
        <ele>-56.25</ele>
        <time>2012-03-31T12:42:07Z</time>
      </trkpt>
      <trkpt lat="47.23887" lon="-1.61961">
        <ele>-56</ele>
        <time>2012-03-31T12:42:09Z</time>
      </trkpt>
      <trkpt lat="47.239" lon="-1.61964">
        <ele>-57.5</ele>
        <time>2012-03-31T12:42:11Z</time>
      </trkpt>
      <trkpt lat="47.23911" lon="-1.61966">
        <ele>-60.5</ele>
        <time>2012-03-31T12:42:13Z</time>
      </trkpt>
      <trkpt lat="47.23922" lon="-1.6197">
        <ele>-63.75</ele>
        <time>2012-03-31T12:42:18Z</time>
      </trkpt>
      <trkpt lat="47.23933" lon="-1.61975">
        <ele>-66</ele>
        <time>2012-03-31T12:42:22Z</time>
      </trkpt>
      <trkpt lat="47.23943" lon="-1.61982">
        <ele>-67.25</ele>
        <time>2012-03-31T12:42:25Z</time>
      </trkpt>
      <trkpt lat="47.23955" lon="-1.61992">
        <ele>-68.5</ele>
        <time>2012-03-31T12:42:29Z</time>
      </trkpt>
      <trkpt lat="47.23963" lon="-1.61999">
        <ele>-69</ele>
        <time>2012-03-31T12:42:31Z</time>
      </trkpt>
      <trkpt lat="47.23972" lon="-1.62007">
        <ele>-69</ele>
        <time>2012-03-31T12:42:33Z</time>
      </trkpt>
      <trkpt lat="47.23981" lon="-1.62016">
        <ele>-68.75</ele>
        <time>2012-03-31T12:42:35Z</time>
      </trkpt>
      <trkpt lat="47.23989" lon="-1.62024">
        <ele>-68.5</ele>
        <time>2012-03-31T12:42:37Z</time>
      </trkpt>
      <trkpt lat="47.23996" lon="-1.62036">
        <ele>-69</ele>
        <time>2012-03-31T12:42:41Z</time>
      </trkpt>
      <trkpt lat="47.24002" lon="-1.62051">
        <ele>-66.75</ele>
        <time>2012-03-31T12:42:44Z</time>
      </trkpt>
      <trkpt lat="47.24005" lon="-1.62064">
        <ele>-64.75</ele>
        <time>2012-03-31T12:42:46Z</time>
      </trkpt>
      <trkpt lat="47.24009" lon="-1.62079">
        <ele>-64</ele>
        <time>2012-03-31T12:42:51Z</time>
      </trkpt>
      <trkpt lat="47.24011" lon="-1.62098">
        <ele>-62.25</ele>
        <time>2012-03-31T12:42:55Z</time>
      </trkpt>
      <trkpt lat="47.24011" lon="-1.62112">
        <ele>-62</ele>
        <time>2012-03-31T12:42:57Z</time>
      </trkpt>
      <trkpt lat="47.24012" lon="-1.6213">
        <ele>-61.5</ele>
        <time>2012-03-31T12:43:01Z</time>
      </trkpt>
      <trkpt lat="47.24014" lon="-1.62146">
        <ele>-61</ele>
        <time>2012-03-31T12:43:04Z</time>
      </trkpt>
      <trkpt lat="47.24013" lon="-1.62164">
        <ele>-59.5</ele>
        <time>2012-03-31T12:43:07Z</time>
      </trkpt>
      <trkpt lat="47.24013" lon="-1.62178">
        <ele>-59</ele>
        <time>2012-03-31T12:43:09Z</time>
      </trkpt>
      <trkpt lat="47.24015" lon="-1.62196">
        <ele>-59</ele>
        <time>2012-03-31T12:43:12Z</time>
      </trkpt>
      <trkpt lat="47.24015" lon="-1.62213">
        <ele>-60.25</ele>
        <time>2012-03-31T12:43:16Z</time>
      </trkpt>
      <trkpt lat="47.24013" lon="-1.62232">
        <ele>-62</ele>
        <time>2012-03-31T12:43:19Z</time>
      </trkpt>
      <trkpt lat="47.24014" lon="-1.62249">
        <ele>-61</ele>
        <time>2012-03-31T12:43:21Z</time>
      </trkpt>
      <trkpt lat="47.24015" lon="-1.62266">
        <ele>-59.75</ele>
        <time>2012-03-31T12:43:23Z</time>
      </trkpt>
      <trkpt lat="47.24017" lon="-1.62284">
        <ele>-58.25</ele>
        <time>2012-03-31T12:43:27Z</time>
      </trkpt>
      <trkpt lat="47.24016" lon="-1.62306">
        <ele>-59.75</ele>
        <time>2012-03-31T12:43:30Z</time>
      </trkpt>
      <trkpt lat="47.24014" lon="-1.62322">
        <ele>-60.75</ele>
        <time>2012-03-31T12:43:32Z</time>
      </trkpt>
      <trkpt lat="47.2401" lon="-1.62337">
        <ele>-61.75</ele>
        <time>2012-03-31T12:43:34Z</time>
      </trkpt>
      <trkpt lat="47.24009" lon="-1.62356">
        <ele>-61.25</ele>
        <time>2012-03-31T12:43:37Z</time>
      </trkpt>
      <trkpt lat="47.24012" lon="-1.62374">
        <ele>-59.75</ele>
        <time>2012-03-31T12:43:39Z</time>
      </trkpt>
      <trkpt lat="47.24014" lon="-1.62391">
        <ele>-59.5</ele>
        <time>2012-03-31T12:43:41Z</time>
      </trkpt>
      <trkpt lat="47.24014" lon="-1.62407">
        <ele>-60</ele>
        <time>2012-03-31T12:43:43Z</time>
      </trkpt>
      <trkpt lat="47.24012" lon="-1.62427">
        <ele>-60.25</ele>
        <time>2012-03-31T12:43:47Z</time>
      </trkpt>
      <trkpt lat="47.24011" lon="-1.6244">
        <ele>-60.25</ele>
        <time>2012-03-31T12:43:49Z</time>
      </trkpt>
      <trkpt lat="47.24014" lon="-1.62456">
        <ele>-58.5</ele>
        <time>2012-03-31T12:43:52Z</time>
      </trkpt>
      <trkpt lat="47.24023" lon="-1.62468">
        <ele>-57</ele>
        <time>2012-03-31T12:43:55Z</time>
      </trkpt>
      <trkpt lat="47.24032" lon="-1.6248">
        <ele>-54.25</ele>
        <time>2012-03-31T12:43:59Z</time>
      </trkpt>
      <trkpt lat="47.24039" lon="-1.62489">
        <ele>-53.25</ele>
        <time>2012-03-31T12:44:01Z</time>
      </trkpt>
      <trkpt lat="47.24046" lon="-1.62499">
        <ele>-51.5</ele>
        <time>2012-03-31T12:44:03Z</time>
      </trkpt>
      <trkpt lat="47.24054" lon="-1.6251">
        <ele>-49.5</ele>
        <time>2012-03-31T12:44:05Z</time>
      </trkpt>
      <trkpt lat="47.24061" lon="-1.62518">
        <ele>-47.25</ele>
        <time>2012-03-31T12:44:07Z</time>
      </trkpt>
      <trkpt lat="47.24071" lon="-1.6253">
        <ele>-46.25</ele>
        <time>2012-03-31T12:44:11Z</time>
      </trkpt>
      <trkpt lat="47.24082" lon="-1.62537">
        <ele>-48</ele>
        <time>2012-03-31T12:44:14Z</time>
      </trkpt>
      <trkpt lat="47.24093" lon="-1.62542">
        <ele>-47.75</ele>
        <time>2012-03-31T12:44:17Z</time>
      </trkpt>
      <trkpt lat="47.24101" lon="-1.62555">
        <ele>-50.5</ele>
        <time>2012-03-31T12:44:20Z</time>
      </trkpt>
      <trkpt lat="47.24102" lon="-1.62572">
        <ele>-55</ele>
        <time>2012-03-31T12:44:24Z</time>
      </trkpt>
      <trkpt lat="47.24099" lon="-1.62587">
        <ele>-56.75</ele>
        <time>2012-03-31T12:44:26Z</time>
      </trkpt>
      <trkpt lat="47.24092" lon="-1.62605">
        <ele>-57</ele>
        <time>2012-03-31T12:44:28Z</time>
      </trkpt>
      <trkpt lat="47.24085" lon="-1.62619">
        <ele>-56</ele>
        <time>2012-03-31T12:44:30Z</time>
      </trkpt>
      <trkpt lat="47.24079" lon="-1.62635">
        <ele>-54.25</ele>
        <time>2012-03-31T12:44:34Z</time>
      </trkpt>
      <trkpt lat="47.24072" lon="-1.62647">
        <ele>-55.5</ele>
        <time>2012-03-31T12:44:37Z</time>
      </trkpt>
      <trkpt lat="47.24067" lon="-1.62658">
        <ele>-57.75</ele>
        <time>2012-03-31T12:44:41Z</time>
      </trkpt>
      <trkpt lat="47.24063" lon="-1.6267">
        <ele>-60.25</ele>
        <time>2012-03-31T12:44:57Z</time>
      </trkpt>
      <trkpt lat="47.24055" lon="-1.62657">
        <ele>-61.25</ele>
        <time>2012-03-31T12:45:06Z</time>
      </trkpt>
      <trkpt lat="47.24065" lon="-1.62668">
        <ele>-56.25</ele>
        <time>2012-03-31T12:45:09Z</time>
      </trkpt>
      <trkpt lat="47.24074" lon="-1.62686">
        <ele>-56</ele>
        <time>2012-03-31T12:45:11Z</time>
      </trkpt>
      <trkpt lat="47.24079" lon="-1.62699">
        <ele>-60.5</ele>
        <time>2012-03-31T12:45:15Z</time>
      </trkpt>
      <trkpt lat="47.24086" lon="-1.62709">
        <ele>-60</ele>
        <time>2012-03-31T12:45:24Z</time>
      </trkpt>
      <trkpt lat="47.24095" lon="-1.62717">
        <ele>-60.75</ele>
        <time>2012-03-31T12:45:31Z</time>
      </trkpt>
      <trkpt lat="47.24102" lon="-1.62729">
        <ele>-59.5</ele>
        <time>2012-03-31T12:45:36Z</time>
      </trkpt>
      <trkpt lat="47.24103" lon="-1.62743">
        <ele>-60.75</ele>
        <time>2012-03-31T12:45:41Z</time>
      </trkpt>
      <trkpt lat="47.24106" lon="-1.62755">
        <ele>-59</ele>
        <time>2012-03-31T12:45:45Z</time>
      </trkpt>
      <trkpt lat="47.24112" lon="-1.62766">
        <ele>-62</ele>
        <time>2012-03-31T12:45:58Z</time>
      </trkpt>
      <trkpt lat="47.2412" lon="-1.62778">
        <ele>-60.75</ele>
        <time>2012-03-31T12:46:01Z</time>
      </trkpt>
      <trkpt lat="47.24127" lon="-1.62792">
        <ele>-58.75</ele>
        <time>2012-03-31T12:46:05Z</time>
      </trkpt>
      <trkpt lat="47.24134" lon="-1.62807">
        <ele>-54.75</ele>
        <time>2012-03-31T12:46:08Z</time>
      </trkpt>
      <trkpt lat="47.24141" lon="-1.62821">
        <ele>-52</ele>
        <time>2012-03-31T12:46:10Z</time>
      </trkpt>
      <trkpt lat="47.24147" lon="-1.62834">
        <ele>-50.75</ele>
        <time>2012-03-31T12:46:12Z</time>
      </trkpt>
      <trkpt lat="47.24154" lon="-1.62848">
        <ele>-50.25</ele>
        <time>2012-03-31T12:46:16Z</time>
      </trkpt>
      <trkpt lat="47.2416" lon="-1.62864">
        <ele>-50.5</ele>
        <time>2012-03-31T12:46:19Z</time>
      </trkpt>
      <trkpt lat="47.24164" lon="-1.6288">
        <ele>-51.75</ele>
        <time>2012-03-31T12:46:21Z</time>
      </trkpt>
      <trkpt lat="47.24169" lon="-1.62894">
        <ele>-52.25</ele>
        <time>2012-03-31T12:46:23Z</time>
      </trkpt>
      <trkpt lat="47.24174" lon="-1.62911">
        <ele>-53.5</ele>
        <time>2012-03-31T12:46:27Z</time>
      </trkpt>
      <trkpt lat="47.2418" lon="-1.62929">
        <ele>-54</ele>
        <time>2012-03-31T12:46:30Z</time>
      </trkpt>
      <trkpt lat="47.24184" lon="-1.62944">
        <ele>-54.75</ele>
        <time>2012-03-31T12:46:32Z</time>
      </trkpt>
      <trkpt lat="47.24187" lon="-1.62962">
        <ele>-59.25</ele>
        <time>2012-03-31T12:46:36Z</time>
      </trkpt>
      <trkpt lat="47.2419" lon="-1.62977">
        <ele>-63.75</ele>
        <time>2012-03-31T12:46:39Z</time>
      </trkpt>
      <trkpt lat="47.24194" lon="-1.62992">
        <ele>-64.75</ele>
        <time>2012-03-31T12:46:42Z</time>
      </trkpt>
      <trkpt lat="47.24195" lon="-1.63006">
        <ele>-64.5</ele>
        <time>2012-03-31T12:46:44Z</time>
      </trkpt>
      <trkpt lat="47.24197" lon="-1.6302">
        <ele>-63.5</ele>
        <time>2012-03-31T12:46:46Z</time>
      </trkpt>
      <trkpt lat="47.24199" lon="-1.63038">
        <ele>-61.5</ele>
        <time>2012-03-31T12:46:50Z</time>
      </trkpt>
      <trkpt lat="47.242" lon="-1.63057">
        <ele>-59.25</ele>
        <time>2012-03-31T12:46:53Z</time>
      </trkpt>
      <trkpt lat="47.24203" lon="-1.63074">
        <ele>-57.25</ele>
        <time>2012-03-31T12:46:55Z</time>
      </trkpt>
      <trkpt lat="47.24207" lon="-1.6309">
        <ele>-55</ele>
        <time>2012-03-31T12:46:57Z</time>
      </trkpt>
      <trkpt lat="47.24211" lon="-1.63103">
        <ele>-53.75</ele>
        <time>2012-03-31T12:47:00Z</time>
      </trkpt>
      <trkpt lat="47.24215" lon="-1.63115">
        <ele>-52</ele>
        <time>2012-03-31T12:47:02Z</time>
      </trkpt>
      <trkpt lat="47.24222" lon="-1.63132">
        <ele>-50.75</ele>
        <time>2012-03-31T12:47:05Z</time>
      </trkpt>
      <trkpt lat="47.24228" lon="-1.63144">
        <ele>-51</ele>
        <time>2012-03-31T12:47:07Z</time>
      </trkpt>
      <trkpt lat="47.24236" lon="-1.63159">
        <ele>-49.75</ele>
        <time>2012-03-31T12:47:11Z</time>
      </trkpt>
      <trkpt lat="47.24246" lon="-1.63172">
        <ele>-50</ele>
        <time>2012-03-31T12:47:14Z</time>
      </trkpt>
      <trkpt lat="47.24254" lon="-1.63183">
        <ele>-51.5</ele>
        <time>2012-03-31T12:47:16Z</time>
      </trkpt>
      <trkpt lat="47.24263" lon="-1.63192">
        <ele>-53.75</ele>
        <time>2012-03-31T12:47:18Z</time>
      </trkpt>
      <trkpt lat="47.24273" lon="-1.63198">
        <ele>-54.25</ele>
        <time>2012-03-31T12:47:22Z</time>
      </trkpt>
      <trkpt lat="47.24281" lon="-1.63207">
        <ele>-53.5</ele>
        <time>2012-03-31T12:47:25Z</time>
      </trkpt>
      <trkpt lat="47.24291" lon="-1.63219">
        <ele>-52.75</ele>
        <time>2012-03-31T12:47:28Z</time>
      </trkpt>
      <trkpt lat="47.24299" lon="-1.63229">
        <ele>-50.25</ele>
        <time>2012-03-31T12:47:32Z</time>
      </trkpt>
      <trkpt lat="47.24308" lon="-1.63242">
        <ele>-52</ele>
        <time>2012-03-31T12:47:36Z</time>
      </trkpt>
      <trkpt lat="47.24316" lon="-1.63253">
        <ele>-54.5</ele>
        <time>2012-03-31T12:47:38Z</time>
      </trkpt>
      <trkpt lat="47.24324" lon="-1.63263">
        <ele>-55.25</ele>
        <time>2012-03-31T12:47:40Z</time>
      </trkpt>
      <trkpt lat="47.24333" lon="-1.63277">
        <ele>-57.5</ele>
        <time>2012-03-31T12:47:44Z</time>
      </trkpt>
      <trkpt lat="47.24342" lon="-1.63286">
        <ele>-57.25</ele>
        <time>2012-03-31T12:47:47Z</time>
      </trkpt>
      <trkpt lat="47.24351" lon="-1.63289">
        <ele>-55</ele>
        <time>2012-03-31T12:47:50Z</time>
      </trkpt>
      <trkpt lat="47.24358" lon="-1.63299">
        <ele>-52.75</ele>
        <time>2012-03-31T12:47:53Z</time>
      </trkpt>
      <trkpt lat="47.24363" lon="-1.63311">
        <ele>-51.25</ele>
        <time>2012-03-31T12:47:57Z</time>
      </trkpt>
      <trkpt lat="47.24369" lon="-1.63324">
        <ele>-50.5</ele>
        <time>2012-03-31T12:48:00Z</time>
      </trkpt>
      <trkpt lat="47.24376" lon="-1.6334">
        <ele>-49</ele>
        <time>2012-03-31T12:48:03Z</time>
      </trkpt>
      <trkpt lat="47.24378" lon="-1.63353">
        <ele>-52.25</ele>
        <time>2012-03-31T12:48:08Z</time>
      </trkpt>
      <trkpt lat="47.24379" lon="-1.63367">
        <ele>-59.75</ele>
        <time>2012-03-31T12:48:19Z</time>
      </trkpt>
      <trkpt lat="47.24371" lon="-1.63381">
        <ele>-70</ele>
        <time>2012-03-31T12:48:57Z</time>
      </trkpt>
      <trkpt lat="47.24365" lon="-1.63394">
        <ele>-67.75</ele>
        <time>2012-03-31T12:48:59Z</time>
      </trkpt>
      <trkpt lat="47.24367" lon="-1.63408">
        <ele>-64</ele>
        <time>2012-03-31T12:49:05Z</time>
      </trkpt>
      <trkpt lat="47.24376" lon="-1.63414">
        <ele>-64</ele>
        <time>2012-03-31T12:49:13Z</time>
      </trkpt>
      <trkpt lat="47.24382" lon="-1.63424">
        <ele>-68</ele>
        <time>2012-03-31T12:49:28Z</time>
      </trkpt>
      <trkpt lat="47.24384" lon="-1.63437">
        <ele>-69.5</ele>
        <time>2012-03-31T12:49:41Z</time>
      </trkpt>
      <trkpt lat="47.24388" lon="-1.6345">
        <ele>-69.75</ele>
        <time>2012-03-31T12:49:46Z</time>
      </trkpt>
      <trkpt lat="47.24392" lon="-1.63464">
        <ele>-70</ele>
        <time>2012-03-31T12:49:49Z</time>
      </trkpt>
      <trkpt lat="47.24395" lon="-1.63482">
        <ele>-69.5</ele>
        <time>2012-03-31T12:49:52Z</time>
      </trkpt>
      <trkpt lat="47.24396" lon="-1.63496">
        <ele>-69.25</ele>
        <time>2012-03-31T12:49:54Z</time>
      </trkpt>
      <trkpt lat="47.24392" lon="-1.63514">
        <ele>-68.5</ele>
        <time>2012-03-31T12:49:58Z</time>
      </trkpt>
      <trkpt lat="47.24387" lon="-1.63528">
        <ele>-68.25</ele>
        <time>2012-03-31T12:50:00Z</time>
      </trkpt>
      <trkpt lat="47.24384" lon="-1.63548">
        <ele>-67.75</ele>
        <time>2012-03-31T12:50:02Z</time>
      </trkpt>
      <trkpt lat="47.24383" lon="-1.63568">
        <ele>-66.75</ele>
        <time>2012-03-31T12:50:04Z</time>
      </trkpt>
      <trkpt lat="47.24383" lon="-1.63585">
        <ele>-64.5</ele>
        <time>2012-03-31T12:50:07Z</time>
      </trkpt>
      <trkpt lat="47.24388" lon="-1.63598">
        <ele>-61.25</ele>
        <time>2012-03-31T12:50:11Z</time>
      </trkpt>
      <trkpt lat="47.24394" lon="-1.63617">
        <ele>-62.75</ele>
        <time>2012-03-31T12:50:14Z</time>
      </trkpt>
      <trkpt lat="47.24397" lon="-1.63633">
        <ele>-64.75</ele>
        <time>2012-03-31T12:50:16Z</time>
      </trkpt>
      <trkpt lat="47.24398" lon="-1.63646">
        <ele>-66.5</ele>
        <time>2012-03-31T12:50:19Z</time>
      </trkpt>
      <trkpt lat="47.24399" lon="-1.63665">
        <ele>-69.75</ele>
        <time>2012-03-31T12:50:22Z</time>
      </trkpt>
      <trkpt lat="47.24398" lon="-1.6368">
        <ele>-70.5</ele>
        <time>2012-03-31T12:50:24Z</time>
      </trkpt>
      <trkpt lat="47.24395" lon="-1.63698">
        <ele>-70</ele>
        <time>2012-03-31T12:50:26Z</time>
      </trkpt>
      <trkpt lat="47.24393" lon="-1.63713">
        <ele>-69</ele>
        <time>2012-03-31T12:50:29Z</time>
      </trkpt>
      <trkpt lat="47.24391" lon="-1.63732">
        <ele>-68.75</ele>
        <time>2012-03-31T12:50:32Z</time>
      </trkpt>
      <trkpt lat="47.24393" lon="-1.63749">
        <ele>-70.25</ele>
        <time>2012-03-31T12:50:35Z</time>
      </trkpt>
      <trkpt lat="47.24403" lon="-1.63746">
        <ele>-74.5</ele>
        <time>2012-03-31T12:50:54Z</time>
      </trkpt>
      <trkpt lat="47.24411" lon="-1.63738">
        <ele>-72</ele>
        <time>2012-03-31T12:51:07Z</time>
      </trkpt>
      <trkpt lat="47.24423" lon="-1.63739">
        <ele>-70.5</ele>
        <time>2012-03-31T12:51:10Z</time>
      </trkpt>
      <trkpt lat="47.24432" lon="-1.63748">
        <ele>-71.25</ele>
        <time>2012-03-31T12:51:15Z</time>
      </trkpt>
      <trkpt lat="47.24435" lon="-1.63762">
        <ele>-72.5</ele>
        <time>2012-03-31T12:51:19Z</time>
      </trkpt>
      <trkpt lat="47.24439" lon="-1.63778">
        <ele>-73.75</ele>
        <time>2012-03-31T12:51:22Z</time>
      </trkpt>
      <trkpt lat="47.24441" lon="-1.63797">
        <ele>-69.75</ele>
        <time>2012-03-31T12:51:26Z</time>
      </trkpt>
      <trkpt lat="47.24443" lon="-1.63812">
        <ele>-63</ele>
        <time>2012-03-31T12:51:28Z</time>
      </trkpt>
      <trkpt lat="47.24442" lon="-1.63828">
        <ele>-58</ele>
        <time>2012-03-31T12:51:30Z</time>
      </trkpt>
      <trkpt lat="47.24443" lon="-1.63849">
        <ele>-54.5</ele>
        <time>2012-03-31T12:51:32Z</time>
      </trkpt>
      <trkpt lat="47.24443" lon="-1.6387">
        <ele>-53.75</ele>
        <time>2012-03-31T12:51:34Z</time>
      </trkpt>
      <trkpt lat="47.24442" lon="-1.63885">
        <ele>-55</ele>
        <time>2012-03-31T12:51:37Z</time>
      </trkpt>
      <trkpt lat="47.24444" lon="-1.639">
        <ele>-55.75</ele>
        <time>2012-03-31T12:51:39Z</time>
      </trkpt>
      <trkpt lat="47.24448" lon="-1.63916">
        <ele>-55.5</ele>
        <time>2012-03-31T12:51:41Z</time>
      </trkpt>
      <trkpt lat="47.24453" lon="-1.63935">
        <ele>-55.25</ele>
        <time>2012-03-31T12:51:43Z</time>
      </trkpt>
      <trkpt lat="47.24458" lon="-1.63953">
        <ele>-56.25</ele>
        <time>2012-03-31T12:51:45Z</time>
      </trkpt>
      <trkpt lat="47.24463" lon="-1.63967">
        <ele>-56</ele>
        <time>2012-03-31T12:51:48Z</time>
      </trkpt>
      <trkpt lat="47.24467" lon="-1.6398">
        <ele>-54.75</ele>
        <time>2012-03-31T12:51:50Z</time>
      </trkpt>
      <trkpt lat="47.2447" lon="-1.63995">
        <ele>-54.5</ele>
        <time>2012-03-31T12:51:52Z</time>
      </trkpt>
      <trkpt lat="47.24474" lon="-1.64012">
        <ele>-55.25</ele>
        <time>2012-03-31T12:51:54Z</time>
      </trkpt>
      <trkpt lat="47.24478" lon="-1.64027">
        <ele>-55.75</ele>
        <time>2012-03-31T12:51:56Z</time>
      </trkpt>
      <trkpt lat="47.24482" lon="-1.64039">
        <ele>-56</ele>
        <time>2012-03-31T12:51:59Z</time>
      </trkpt>
      <trkpt lat="47.24488" lon="-1.64054">
        <ele>-56.25</ele>
        <time>2012-03-31T12:52:02Z</time>
      </trkpt>
      <trkpt lat="47.24495" lon="-1.64067">
        <ele>-57.25</ele>
        <time>2012-03-31T12:52:04Z</time>
      </trkpt>
      <trkpt lat="47.24501" lon="-1.6408">
        <ele>-58.75</ele>
        <time>2012-03-31T12:52:06Z</time>
      </trkpt>
      <trkpt lat="47.24508" lon="-1.64093">
        <ele>-59.5</ele>
        <time>2012-03-31T12:52:10Z</time>
      </trkpt>
      <trkpt lat="47.24514" lon="-1.6411">
        <ele>-62</ele>
        <time>2012-03-31T12:52:13Z</time>
      </trkpt>
      <trkpt lat="47.24522" lon="-1.64126">
        <ele>-65</ele>
        <time>2012-03-31T12:52:15Z</time>
      </trkpt>
      <trkpt lat="47.24529" lon="-1.64138">
        <ele>-66.75</ele>
        <time>2012-03-31T12:52:17Z</time>
      </trkpt>
      <trkpt lat="47.24534" lon="-1.6415">
        <ele>-67.5</ele>
        <time>2012-03-31T12:52:21Z</time>
      </trkpt>
      <trkpt lat="47.24541" lon="-1.64166">
        <ele>-69.5</ele>
        <time>2012-03-31T12:52:25Z</time>
      </trkpt>
      <trkpt lat="47.24548" lon="-1.64183">
        <ele>-70.25</ele>
        <time>2012-03-31T12:52:28Z</time>
      </trkpt>
      <trkpt lat="47.24556" lon="-1.64198">
        <ele>-68.25</ele>
        <time>2012-03-31T12:52:32Z</time>
      </trkpt>
      <trkpt lat="47.24564" lon="-1.64212">
        <ele>-68.5</ele>
        <time>2012-03-31T12:52:35Z</time>
      </trkpt>
      <trkpt lat="47.2457" lon="-1.64226">
        <ele>-69.5</ele>
        <time>2012-03-31T12:52:38Z</time>
      </trkpt>
      <trkpt lat="47.24574" lon="-1.6424">
        <ele>-68.5</ele>
        <time>2012-03-31T12:52:42Z</time>
      </trkpt>
      <trkpt lat="47.24581" lon="-1.64249">
        <ele>-68.75</ele>
        <time>2012-03-31T12:52:45Z</time>
      </trkpt>
      <trkpt lat="47.2459" lon="-1.64257">
        <ele>-68.5</ele>
        <time>2012-03-31T12:52:49Z</time>
      </trkpt>
      <trkpt lat="47.24597" lon="-1.64268">
        <ele>-68.5</ele>
        <time>2012-03-31T12:52:54Z</time>
      </trkpt>
      <trkpt lat="47.24603" lon="-1.6428">
        <ele>-68.25</ele>
        <time>2012-03-31T12:52:57Z</time>
      </trkpt>
      <trkpt lat="47.24611" lon="-1.64292">
        <ele>-66.75</ele>
        <time>2012-03-31T12:53:02Z</time>
      </trkpt>
      <trkpt lat="47.24621" lon="-1.64301">
        <ele>-65.25</ele>
        <time>2012-03-31T12:53:06Z</time>
      </trkpt>
      <trkpt lat="47.24633" lon="-1.64303">
        <ele>-64.25</ele>
        <time>2012-03-31T12:53:09Z</time>
      </trkpt>
      <trkpt lat="47.24642" lon="-1.643">
        <ele>-65.25</ele>
        <time>2012-03-31T12:53:13Z</time>
      </trkpt>
      <trkpt lat="47.24652" lon="-1.64294">
        <ele>-67</ele>
        <time>2012-03-31T12:53:17Z</time>
      </trkpt>
      <trkpt lat="47.24662" lon="-1.64285">
        <ele>-69</ele>
        <time>2012-03-31T12:53:21Z</time>
      </trkpt>
      <trkpt lat="47.24669" lon="-1.64277">
        <ele>-71.5</ele>
        <time>2012-03-31T12:53:24Z</time>
      </trkpt>
      <trkpt lat="47.24677" lon="-1.64269">
        <ele>-74.5</ele>
        <time>2012-03-31T12:53:29Z</time>
      </trkpt>
      <trkpt lat="47.24686" lon="-1.64262">
        <ele>-75</ele>
        <time>2012-03-31T12:53:33Z</time>
      </trkpt>
      <trkpt lat="47.24694" lon="-1.64256">
        <ele>-75.75</ele>
        <time>2012-03-31T12:53:36Z</time>
      </trkpt>
      <trkpt lat="47.24703" lon="-1.64248">
        <ele>-77</ele>
        <time>2012-03-31T12:53:41Z</time>
      </trkpt>
      <trkpt lat="47.24712" lon="-1.6424">
        <ele>-78</ele>
        <time>2012-03-31T12:53:45Z</time>
      </trkpt>
      <trkpt lat="47.24723" lon="-1.6423">
        <ele>-77.75</ele>
        <time>2012-03-31T12:53:48Z</time>
      </trkpt>
      <trkpt lat="47.24731" lon="-1.64222">
        <ele>-77.5</ele>
        <time>2012-03-31T12:53:52Z</time>
      </trkpt>
      <trkpt lat="47.2474" lon="-1.64217">
        <ele>-76</ele>
        <time>2012-03-31T12:53:55Z</time>
      </trkpt>
      <trkpt lat="47.24749" lon="-1.64214">
        <ele>-76</ele>
        <time>2012-03-31T12:53:58Z</time>
      </trkpt>
      <trkpt lat="47.24758" lon="-1.64211">
        <ele>-76.25</ele>
        <time>2012-03-31T12:54:03Z</time>
      </trkpt>
      <trkpt lat="47.24768" lon="-1.64207">
        <ele>-77.75</ele>
        <time>2012-03-31T12:54:06Z</time>
      </trkpt>
      <trkpt lat="47.24781" lon="-1.64205">
        <ele>-78.25</ele>
        <time>2012-03-31T12:54:09Z</time>
      </trkpt>
      <trkpt lat="47.24794" lon="-1.64203">
        <ele>-79.25</ele>
        <time>2012-03-31T12:54:12Z</time>
      </trkpt>
      <trkpt lat="47.24803" lon="-1.64202">
        <ele>-80.75</ele>
        <time>2012-03-31T12:54:18Z</time>
      </trkpt>
      <trkpt lat="47.24811" lon="-1.64209">
        <ele>-87.75</ele>
        <time>2012-03-31T12:54:39Z</time>
      </trkpt>
      <trkpt lat="47.24814" lon="-1.64222">
        <ele>-91.75</ele>
        <time>2012-03-31T12:55:02Z</time>
      </trkpt>
      <trkpt lat="47.24815" lon="-1.64237">
        <ele>-87.5</ele>
        <time>2012-03-31T12:55:16Z</time>
      </trkpt>
      <trkpt lat="47.24808" lon="-1.64246">
        <ele>-87.5</ele>
        <time>2012-03-31T12:55:23Z</time>
      </trkpt>
      <trkpt lat="47.248" lon="-1.64234">
        <ele>-89.75</ele>
        <time>2012-03-31T12:55:27Z</time>
      </trkpt>
      <trkpt lat="47.24796" lon="-1.64218">
        <ele>-91</ele>
        <time>2012-03-31T12:55:32Z</time>
      </trkpt>
      <trkpt lat="47.24802" lon="-1.64207">
        <ele>-82.25</ele>
        <time>2012-03-31T13:00:05Z</time>
      </trkpt>
      <trkpt lat="47.24812" lon="-1.64215">
        <ele>-83</ele>
        <time>2012-03-31T13:00:10Z</time>
      </trkpt>
      <trkpt lat="47.24822" lon="-1.64218">
        <ele>-83</ele>
        <time>2012-03-31T13:00:16Z</time>
      </trkpt>
      <trkpt lat="47.24833" lon="-1.64225">
        <ele>-84</ele>
        <time>2012-03-31T13:00:21Z</time>
      </trkpt>
      <trkpt lat="47.24842" lon="-1.64227">
        <ele>-84.5</ele>
        <time>2012-03-31T13:00:23Z</time>
      </trkpt>
      <trkpt lat="47.24852" lon="-1.64229">
        <ele>-85</ele>
        <time>2012-03-31T13:00:25Z</time>
      </trkpt>
      <trkpt lat="47.24863" lon="-1.6423">
        <ele>-85</ele>
        <time>2012-03-31T13:00:29Z</time>
      </trkpt>
      <trkpt lat="47.24874" lon="-1.6423">
        <ele>-85.75</ele>
        <time>2012-03-31T13:00:32Z</time>
      </trkpt>
      <trkpt lat="47.24887" lon="-1.64229">
        <ele>-85.25</ele>
        <time>2012-03-31T13:00:35Z</time>
      </trkpt>
      <trkpt lat="47.24896" lon="-1.64233">
        <ele>-85</ele>
        <time>2012-03-31T13:00:39Z</time>
      </trkpt>
      <trkpt lat="47.24906" lon="-1.64236">
        <ele>-85</ele>
        <time>2012-03-31T13:00:43Z</time>
      </trkpt>
      <trkpt lat="47.24916" lon="-1.64237">
        <ele>-85.25</ele>
        <time>2012-03-31T13:00:46Z</time>
      </trkpt>
      <trkpt lat="47.24926" lon="-1.64243">
        <ele>-86</ele>
        <time>2012-03-31T13:00:51Z</time>
      </trkpt>
      <trkpt lat="47.24932" lon="-1.6423">
        <ele>-89</ele>
        <time>2012-03-31T13:00:57Z</time>
      </trkpt>
      <trkpt lat="47.24928" lon="-1.64215">
        <ele>-91</ele>
        <time>2012-03-31T13:01:01Z</time>
      </trkpt>
      <trkpt lat="47.24923" lon="-1.64196">
        <ele>-92</ele>
        <time>2012-03-31T13:01:04Z</time>
      </trkpt>
      <trkpt lat="47.2492" lon="-1.64177">
        <ele>-92</ele>
        <time>2012-03-31T13:01:07Z</time>
      </trkpt>
      <trkpt lat="47.24916" lon="-1.64165">
        <ele>-91.5</ele>
        <time>2012-03-31T13:01:10Z</time>
      </trkpt>
      <trkpt lat="47.24911" lon="-1.64151">
        <ele>-92.25</ele>
        <time>2012-03-31T13:01:12Z</time>
      </trkpt>
      <trkpt lat="47.24906" lon="-1.64135">
        <ele>-93.5</ele>
        <time>2012-03-31T13:01:14Z</time>
      </trkpt>
      <trkpt lat="47.249" lon="-1.64119">
        <ele>-93.5</ele>
        <time>2012-03-31T13:01:16Z</time>
      </trkpt>
      <trkpt lat="47.24897" lon="-1.64106">
        <ele>-93.25</ele>
        <time>2012-03-31T13:01:19Z</time>
      </trkpt>
      <trkpt lat="47.24892" lon="-1.6409">
        <ele>-92.5</ele>
        <time>2012-03-31T13:01:22Z</time>
      </trkpt>
      <trkpt lat="47.24891" lon="-1.64075">
        <ele>-91.5</ele>
        <time>2012-03-31T13:01:24Z</time>
      </trkpt>
      <trkpt lat="47.24895" lon="-1.64058">
        <ele>-90.5</ele>
        <time>2012-03-31T13:01:27Z</time>
      </trkpt>
      <trkpt lat="47.24905" lon="-1.64056">
        <ele>-91</ele>
        <time>2012-03-31T13:01:32Z</time>
      </trkpt>
      <trkpt lat="47.24914" lon="-1.64062">
        <ele>-91.5</ele>
        <time>2012-03-31T13:01:35Z</time>
      </trkpt>
      <trkpt lat="47.24926" lon="-1.64067">
        <ele>-90.75</ele>
        <time>2012-03-31T13:01:38Z</time>
      </trkpt>
      <trkpt lat="47.24936" lon="-1.6407">
        <ele>-88.5</ele>
        <time>2012-03-31T13:01:40Z</time>
      </trkpt>
      <trkpt lat="47.24946" lon="-1.64069">
        <ele>-86.25</ele>
        <time>2012-03-31T13:01:44Z</time>
      </trkpt>
      <trkpt lat="47.24959" lon="-1.64067">
        <ele>-85</ele>
        <time>2012-03-31T13:01:48Z</time>
      </trkpt>
      <trkpt lat="47.2497" lon="-1.64064">
        <ele>-87.5</ele>
        <time>2012-03-31T13:01:52Z</time>
      </trkpt>
      <trkpt lat="47.24979" lon="-1.64059">
        <ele>-89.25</ele>
        <time>2012-03-31T13:01:55Z</time>
      </trkpt>
      <trkpt lat="47.24988" lon="-1.64053">
        <ele>-90.25</ele>
        <time>2012-03-31T13:01:59Z</time>
      </trkpt>
      <trkpt lat="47.24994" lon="-1.64042">
        <ele>-92.25</ele>
        <time>2012-03-31T13:02:05Z</time>
      </trkpt>
      <trkpt lat="47.2499" lon="-1.64028">
        <ele>-99</ele>
        <time>2012-03-31T13:02:09Z</time>
      </trkpt>
      <trkpt lat="47.24987" lon="-1.64015">
        <ele>-106.25</ele>
        <time>2012-03-31T13:02:14Z</time>
      </trkpt>
      <trkpt lat="47.24984" lon="-1.63999">
        <ele>-111</ele>
        <time>2012-03-31T13:02:19Z</time>
      </trkpt>
      <trkpt lat="47.24983" lon="-1.63983">
        <ele>-112.25</ele>
        <time>2012-03-31T13:02:24Z</time>
      </trkpt>
      <trkpt lat="47.24988" lon="-1.63971">
        <ele>-111.5</ele>
        <time>2012-03-31T13:02:28Z</time>
      </trkpt>
      <trkpt lat="47.24998" lon="-1.63961">
        <ele>-106.5</ele>
        <time>2012-03-31T13:02:31Z</time>
      </trkpt>
      <trkpt lat="47.25007" lon="-1.63956">
        <ele>-104.25</ele>
        <time>2012-03-31T13:02:35Z</time>
      </trkpt>
      <trkpt lat="47.25017" lon="-1.63952">
        <ele>-101.75</ele>
        <time>2012-03-31T13:02:38Z</time>
      </trkpt>
      <trkpt lat="47.25025" lon="-1.63945">
        <ele>-98.5</ele>
        <time>2012-03-31T13:02:40Z</time>
      </trkpt>
      <trkpt lat="47.25034" lon="-1.63935">
        <ele>-94.75</ele>
        <time>2012-03-31T13:02:43Z</time>
      </trkpt>
      <trkpt lat="47.25043" lon="-1.63928">
        <ele>-94.5</ele>
        <time>2012-03-31T13:02:47Z</time>
      </trkpt>
      <trkpt lat="47.25052" lon="-1.63921">
        <ele>-91.5</ele>
        <time>2012-03-31T13:02:51Z</time>
      </trkpt>
      <trkpt lat="47.25061" lon="-1.63915">
        <ele>-90.25</ele>
        <time>2012-03-31T13:02:54Z</time>
      </trkpt>
      <trkpt lat="47.25071" lon="-1.63907">
        <ele>-91.25</ele>
        <time>2012-03-31T13:02:59Z</time>
      </trkpt>
      <trkpt lat="47.25083" lon="-1.63895">
        <ele>-91</ele>
        <time>2012-03-31T13:03:02Z</time>
      </trkpt>
      <trkpt lat="47.25091" lon="-1.63885">
        <ele>-91.5</ele>
        <time>2012-03-31T13:03:04Z</time>
      </trkpt>
      <trkpt lat="47.25097" lon="-1.63875">
        <ele>-92</ele>
        <time>2012-03-31T13:03:07Z</time>
      </trkpt>
      <trkpt lat="47.25104" lon="-1.63864">
        <ele>-92.5</ele>
        <time>2012-03-31T13:03:09Z</time>
      </trkpt>
      <trkpt lat="47.25112" lon="-1.63849">
        <ele>-93.5</ele>
        <time>2012-03-31T13:03:11Z</time>
      </trkpt>
      <trkpt lat="47.2512" lon="-1.63836">
        <ele>-94.75</ele>
        <time>2012-03-31T13:03:13Z</time>
      </trkpt>
      <trkpt lat="47.25129" lon="-1.63824">
        <ele>-98.25</ele>
        <time>2012-03-31T13:03:17Z</time>
      </trkpt>
      <trkpt lat="47.2514" lon="-1.63813">
        <ele>-99</ele>
        <time>2012-03-31T13:03:20Z</time>
      </trkpt>
      <trkpt lat="47.25153" lon="-1.63804">
        <ele>-100</ele>
        <time>2012-03-31T13:03:22Z</time>
      </trkpt>
      <trkpt lat="47.25167" lon="-1.63798">
        <ele>-101.75</ele>
        <time>2012-03-31T13:03:24Z</time>
      </trkpt>
      <trkpt lat="47.25179" lon="-1.63798">
        <ele>-101.75</ele>
        <time>2012-03-31T13:03:26Z</time>
      </trkpt>
      <trkpt lat="47.25189" lon="-1.63802">
        <ele>-101.5</ele>
        <time>2012-03-31T13:03:29Z</time>
      </trkpt>
      <trkpt lat="47.252" lon="-1.63809">
        <ele>-100.5</ele>
        <time>2012-03-31T13:03:31Z</time>
      </trkpt>
      <trkpt lat="47.25214" lon="-1.63817">
        <ele>-97.5</ele>
        <time>2012-03-31T13:03:33Z</time>
      </trkpt>
      <trkpt lat="47.25228" lon="-1.63823">
        <ele>-95.5</ele>
        <time>2012-03-31T13:03:35Z</time>
      </trkpt>
      <trkpt lat="47.2524" lon="-1.63825">
        <ele>-95.5</ele>
        <time>2012-03-31T13:03:37Z</time>
      </trkpt>
      <trkpt lat="47.25251" lon="-1.63824">
        <ele>-96.5</ele>
        <time>2012-03-31T13:03:40Z</time>
      </trkpt>
      <trkpt lat="47.25264" lon="-1.6382">
        <ele>-97.75</ele>
        <time>2012-03-31T13:03:42Z</time>
      </trkpt>
      <trkpt lat="47.25275" lon="-1.63814">
        <ele>-100.25</ele>
        <time>2012-03-31T13:03:44Z</time>
      </trkpt>
      <trkpt lat="47.25285" lon="-1.63806">
        <ele>-103.75</ele>
        <time>2012-03-31T13:03:46Z</time>
      </trkpt>
      <trkpt lat="47.25293" lon="-1.63796">
        <ele>-105</ele>
        <time>2012-03-31T13:03:48Z</time>
      </trkpt>
      <trkpt lat="47.25296" lon="-1.6378">
        <ele>-103.75</ele>
        <time>2012-03-31T13:03:52Z</time>
      </trkpt>
      <trkpt lat="47.25297" lon="-1.63762">
        <ele>-102.5</ele>
        <time>2012-03-31T13:03:55Z</time>
      </trkpt>
      <trkpt lat="47.25299" lon="-1.63748">
        <ele>-101.75</ele>
        <time>2012-03-31T13:03:57Z</time>
      </trkpt>
      <trkpt lat="47.25302" lon="-1.63732">
        <ele>-102.25</ele>
        <time>2012-03-31T13:04:00Z</time>
      </trkpt>
      <trkpt lat="47.25303" lon="-1.63718">
        <ele>-103.5</ele>
        <time>2012-03-31T13:04:04Z</time>
      </trkpt>
      <trkpt lat="47.25304" lon="-1.63702">
        <ele>-104.25</ele>
        <time>2012-03-31T13:04:07Z</time>
      </trkpt>
      <trkpt lat="47.25305" lon="-1.63686">
        <ele>-104.25</ele>
        <time>2012-03-31T13:04:09Z</time>
      </trkpt>
      <trkpt lat="47.25305" lon="-1.63668">
        <ele>-104.75</ele>
        <time>2012-03-31T13:04:11Z</time>
      </trkpt>
      <trkpt lat="47.25305" lon="-1.63651">
        <ele>-108.25</ele>
        <time>2012-03-31T13:04:15Z</time>
      </trkpt>
      <trkpt lat="47.25306" lon="-1.63637">
        <ele>-112.75</ele>
        <time>2012-03-31T13:04:19Z</time>
      </trkpt>
      <trkpt lat="47.25302" lon="-1.63625">
        <ele>-114</ele>
        <time>2012-03-31T13:04:32Z</time>
      </trkpt>
      <trkpt lat="47.25294" lon="-1.63613">
        <ele>-112.25</ele>
        <time>2012-03-31T13:04:41Z</time>
      </trkpt>
      <trkpt lat="47.25284" lon="-1.63603">
        <ele>-111.75</ele>
        <time>2012-03-31T13:04:44Z</time>
      </trkpt>
      <trkpt lat="47.25274" lon="-1.63592">
        <ele>-111.25</ele>
        <time>2012-03-31T13:04:48Z</time>
      </trkpt>
      <trkpt lat="47.25265" lon="-1.63581">
        <ele>-109.75</ele>
        <time>2012-03-31T13:04:50Z</time>
      </trkpt>
      <trkpt lat="47.25256" lon="-1.63568">
        <ele>-107.75</ele>
        <time>2012-03-31T13:04:52Z</time>
      </trkpt>
      <trkpt lat="47.25247" lon="-1.63558">
        <ele>-105.75</ele>
        <time>2012-03-31T13:04:54Z</time>
      </trkpt>
      <trkpt lat="47.2524" lon="-1.6355">
        <ele>-104</ele>
        <time>2012-03-31T13:04:57Z</time>
      </trkpt>
      <trkpt lat="47.25232" lon="-1.63541">
        <ele>-103</ele>
        <time>2012-03-31T13:04:59Z</time>
      </trkpt>
      <trkpt lat="47.25221" lon="-1.6353">
        <ele>-103.25</ele>
        <time>2012-03-31T13:05:01Z</time>
      </trkpt>
      <trkpt lat="47.2521" lon="-1.6352">
        <ele>-103</ele>
        <time>2012-03-31T13:05:03Z</time>
      </trkpt>
      <trkpt lat="47.25199" lon="-1.63513">
        <ele>-102.75</ele>
        <time>2012-03-31T13:05:07Z</time>
      </trkpt>
      <trkpt lat="47.25186" lon="-1.63516">
        <ele>-103.25</ele>
        <time>2012-03-31T13:05:10Z</time>
      </trkpt>
      <trkpt lat="47.25174" lon="-1.63523">
        <ele>-103.75</ele>
        <time>2012-03-31T13:05:12Z</time>
      </trkpt>
      <trkpt lat="47.25162" lon="-1.63528">
        <ele>-104</ele>
        <time>2012-03-31T13:05:14Z</time>
      </trkpt>
      <trkpt lat="47.25151" lon="-1.63519">
        <ele>-102.75</ele>
        <time>2012-03-31T13:05:18Z</time>
      </trkpt>
      <trkpt lat="47.25145" lon="-1.63508">
        <ele>-102.5</ele>
        <time>2012-03-31T13:05:20Z</time>
      </trkpt>
      <trkpt lat="47.25139" lon="-1.63494">
        <ele>-103.5</ele>
        <time>2012-03-31T13:05:22Z</time>
      </trkpt>
      <trkpt lat="47.25132" lon="-1.63478">
        <ele>-104.25</ele>
        <time>2012-03-31T13:05:24Z</time>
      </trkpt>
      <trkpt lat="47.25126" lon="-1.63465">
        <ele>-103.25</ele>
        <time>2012-03-31T13:05:26Z</time>
      </trkpt>
      <trkpt lat="47.25115" lon="-1.63458">
        <ele>-102.25</ele>
        <time>2012-03-31T13:05:30Z</time>
      </trkpt>
      <trkpt lat="47.25105" lon="-1.63459">
        <ele>-103</ele>
        <time>2012-03-31T13:05:32Z</time>
      </trkpt>
      <trkpt lat="47.25094" lon="-1.63461">
        <ele>-103.75</ele>
        <time>2012-03-31T13:05:34Z</time>
      </trkpt>
      <trkpt lat="47.25082" lon="-1.63463">
        <ele>-103.5</ele>
        <time>2012-03-31T13:05:36Z</time>
      </trkpt>
      <trkpt lat="47.2507" lon="-1.63465">
        <ele>-102.5</ele>
        <time>2012-03-31T13:05:38Z</time>
      </trkpt>
      <trkpt lat="47.2506" lon="-1.63465">
        <ele>-101.25</ele>
        <time>2012-03-31T13:05:41Z</time>
      </trkpt>
      <trkpt lat="47.25049" lon="-1.63463">
        <ele>-100.25</ele>
        <time>2012-03-31T13:05:43Z</time>
      </trkpt>
      <trkpt lat="47.25039" lon="-1.63459">
        <ele>-100.5</ele>
        <time>2012-03-31T13:05:45Z</time>
      </trkpt>
      <trkpt lat="47.25027" lon="-1.63454">
        <ele>-100.75</ele>
        <time>2012-03-31T13:05:47Z</time>
      </trkpt>
      <trkpt lat="47.25013" lon="-1.6345">
        <ele>-100.25</ele>
        <time>2012-03-31T13:05:49Z</time>
      </trkpt>
      <trkpt lat="47.25002" lon="-1.63449">
        <ele>-100.25</ele>
        <time>2012-03-31T13:05:52Z</time>
      </trkpt>
      <trkpt lat="47.24991" lon="-1.63449">
        <ele>-101.75</ele>
        <time>2012-03-31T13:05:56Z</time>
      </trkpt>
      <trkpt lat="47.24984" lon="-1.6344">
        <ele>-102.25</ele>
        <time>2012-03-31T13:06:03Z</time>
      </trkpt>
      <trkpt lat="47.24981" lon="-1.63426">
        <ele>-107.75</ele>
        <time>2012-03-31T13:06:09Z</time>
      </trkpt>
      <trkpt lat="47.24982" lon="-1.63411">
        <ele>-111</ele>
        <time>2012-03-31T13:06:16Z</time>
      </trkpt>
      <trkpt lat="47.24981" lon="-1.63397">
        <ele>-112.25</ele>
        <time>2012-03-31T13:06:20Z</time>
      </trkpt>
      <trkpt lat="47.2499" lon="-1.63387">
        <ele>-109.75</ele>
        <time>2012-03-31T13:06:27Z</time>
      </trkpt>
      <trkpt lat="47.24999" lon="-1.63378">
        <ele>-107.5</ele>
        <time>2012-03-31T13:06:31Z</time>
      </trkpt>
      <trkpt lat="47.25006" lon="-1.63367">
        <ele>-107</ele>
        <time>2012-03-31T13:06:37Z</time>
      </trkpt>
      <trkpt lat="47.2501" lon="-1.63352">
        <ele>-108.5</ele>
        <time>2012-03-31T13:06:41Z</time>
      </trkpt>
      <trkpt lat="47.25019" lon="-1.63343">
        <ele>-107.5</ele>
        <time>2012-03-31T13:06:45Z</time>
      </trkpt>
      <trkpt lat="47.2503" lon="-1.63335">
        <ele>-106</ele>
        <time>2012-03-31T13:06:48Z</time>
      </trkpt>
      <trkpt lat="47.25038" lon="-1.63328">
        <ele>-105.25</ele>
        <time>2012-03-31T13:06:50Z</time>
      </trkpt>
      <trkpt lat="47.25049" lon="-1.6332">
        <ele>-104.25</ele>
        <time>2012-03-31T13:06:54Z</time>
      </trkpt>
      <trkpt lat="47.25062" lon="-1.63311">
        <ele>-103.25</ele>
        <time>2012-03-31T13:06:57Z</time>
      </trkpt>
      <trkpt lat="47.2507" lon="-1.63305">
        <ele>-103</ele>
        <time>2012-03-31T13:06:59Z</time>
      </trkpt>
      <trkpt lat="47.25081" lon="-1.63298">
        <ele>-103</ele>
        <time>2012-03-31T13:07:03Z</time>
      </trkpt>
      <trkpt lat="47.2509" lon="-1.63291">
        <ele>-103</ele>
        <time>2012-03-31T13:07:05Z</time>
      </trkpt>
      <trkpt lat="47.251" lon="-1.63281">
        <ele>-103</ele>
        <time>2012-03-31T13:07:07Z</time>
      </trkpt>
      <trkpt lat="47.25109" lon="-1.63273">
        <ele>-103</ele>
        <time>2012-03-31T13:07:09Z</time>
      </trkpt>
      <trkpt lat="47.25118" lon="-1.63265">
        <ele>-103.25</ele>
        <time>2012-03-31T13:07:12Z</time>
      </trkpt>
      <trkpt lat="47.25127" lon="-1.63258">
        <ele>-103.25</ele>
        <time>2012-03-31T13:07:14Z</time>
      </trkpt>
      <trkpt lat="47.25139" lon="-1.63247">
        <ele>-103.5</ele>
        <time>2012-03-31T13:07:16Z</time>
      </trkpt>
      <trkpt lat="47.25151" lon="-1.63237">
        <ele>-104</ele>
        <time>2012-03-31T13:07:18Z</time>
      </trkpt>
      <trkpt lat="47.2516" lon="-1.63228">
        <ele>-103.75</ele>
        <time>2012-03-31T13:07:21Z</time>
      </trkpt>
      <trkpt lat="47.2517" lon="-1.6322">
        <ele>-103.25</ele>
        <time>2012-03-31T13:07:23Z</time>
      </trkpt>
      <trkpt lat="47.2518" lon="-1.63211">
        <ele>-103</ele>
        <time>2012-03-31T13:07:25Z</time>
      </trkpt>
      <trkpt lat="47.25192" lon="-1.63201">
        <ele>-103</ele>
        <time>2012-03-31T13:07:27Z</time>
      </trkpt>
      <trkpt lat="47.25203" lon="-1.63192">
        <ele>-103</ele>
        <time>2012-03-31T13:07:29Z</time>
      </trkpt>
      <trkpt lat="47.25211" lon="-1.63185">
        <ele>-102.75</ele>
        <time>2012-03-31T13:07:31Z</time>
      </trkpt>
      <trkpt lat="47.25219" lon="-1.63178">
        <ele>-102.5</ele>
        <time>2012-03-31T13:07:33Z</time>
      </trkpt>
      <trkpt lat="47.25231" lon="-1.63169">
        <ele>-102.25</ele>
        <time>2012-03-31T13:07:37Z</time>
      </trkpt>
      <trkpt lat="47.25242" lon="-1.63158">
        <ele>-102.25</ele>
        <time>2012-03-31T13:07:40Z</time>
      </trkpt>
      <trkpt lat="47.25253" lon="-1.6315">
        <ele>-102.75</ele>
        <time>2012-03-31T13:07:42Z</time>
      </trkpt>
      <trkpt lat="47.25265" lon="-1.63141">
        <ele>-103</ele>
        <time>2012-03-31T13:07:44Z</time>
      </trkpt>
      <trkpt lat="47.25277" lon="-1.63132">
        <ele>-103.5</ele>
        <time>2012-03-31T13:07:47Z</time>
      </trkpt>
      <trkpt lat="47.25288" lon="-1.63124">
        <ele>-104.5</ele>
        <time>2012-03-31T13:07:49Z</time>
      </trkpt>
      <trkpt lat="47.25299" lon="-1.63115">
        <ele>-105.25</ele>
        <time>2012-03-31T13:07:51Z</time>
      </trkpt>
      <trkpt lat="47.2531" lon="-1.63105">
        <ele>-105.5</ele>
        <time>2012-03-31T13:07:53Z</time>
      </trkpt>
      <trkpt lat="47.25323" lon="-1.63094">
        <ele>-105.25</ele>
        <time>2012-03-31T13:07:55Z</time>
      </trkpt>
      <trkpt lat="47.25335" lon="-1.63084">
        <ele>-105.25</ele>
        <time>2012-03-31T13:07:57Z</time>
      </trkpt>
      <trkpt lat="47.25345" lon="-1.63075">
        <ele>-105.75</ele>
        <time>2012-03-31T13:08:00Z</time>
      </trkpt>
      <trkpt lat="47.25353" lon="-1.63067">
        <ele>-106.5</ele>
        <time>2012-03-31T13:08:02Z</time>
      </trkpt>
      <trkpt lat="47.25362" lon="-1.63057">
        <ele>-107.25</ele>
        <time>2012-03-31T13:08:04Z</time>
      </trkpt>
      <trkpt lat="47.25373" lon="-1.63047">
        <ele>-107.25</ele>
        <time>2012-03-31T13:08:06Z</time>
      </trkpt>
      <trkpt lat="47.25383" lon="-1.63038">
        <ele>-107</ele>
        <time>2012-03-31T13:08:08Z</time>
      </trkpt>
      <trkpt lat="47.25392" lon="-1.63029">
        <ele>-107.5</ele>
        <time>2012-03-31T13:08:11Z</time>
      </trkpt>
      <trkpt lat="47.25399" lon="-1.63021">
        <ele>-108</ele>
        <time>2012-03-31T13:08:13Z</time>
      </trkpt>
      <trkpt lat="47.25409" lon="-1.63013">
        <ele>-108</ele>
        <time>2012-03-31T13:08:15Z</time>
      </trkpt>
      <trkpt lat="47.25419" lon="-1.63003">
        <ele>-107.75</ele>
        <time>2012-03-31T13:08:17Z</time>
      </trkpt>
      <trkpt lat="47.2543" lon="-1.62993">
        <ele>-107.25</ele>
        <time>2012-03-31T13:08:19Z</time>
      </trkpt>
      <trkpt lat="47.25438" lon="-1.62986">
        <ele>-107.5</ele>
        <time>2012-03-31T13:08:22Z</time>
      </trkpt>
      <trkpt lat="47.25449" lon="-1.62978">
        <ele>-107.75</ele>
        <time>2012-03-31T13:08:25Z</time>
      </trkpt>
      <trkpt lat="47.25446" lon="-1.62964">
        <ele>-107.25</ele>
        <time>2012-03-31T13:09:42Z</time>
      </trkpt>
      <trkpt lat="47.25439" lon="-1.62954">
        <ele>-107.5</ele>
        <time>2012-03-31T13:09:44Z</time>
      </trkpt>
      <trkpt lat="47.25432" lon="-1.62941">
        <ele>-106.75</ele>
        <time>2012-03-31T13:09:46Z</time>
      </trkpt>
      <trkpt lat="47.25431" lon="-1.62926">
        <ele>-105.5</ele>
        <time>2012-03-31T13:09:49Z</time>
      </trkpt>
      <trkpt lat="47.25433" lon="-1.62912">
        <ele>-105</ele>
        <time>2012-03-31T13:09:51Z</time>
      </trkpt>
      <trkpt lat="47.2544" lon="-1.62897">
        <ele>-104.25</ele>
        <time>2012-03-31T13:09:54Z</time>
      </trkpt>
      <trkpt lat="47.25449" lon="-1.62892">
        <ele>-104</ele>
        <time>2012-03-31T13:09:56Z</time>
      </trkpt>
      <trkpt lat="47.25459" lon="-1.62891">
        <ele>-104</ele>
        <time>2012-03-31T13:09:58Z</time>
      </trkpt>
      <trkpt lat="47.25471" lon="-1.62892">
        <ele>-103.25</ele>
        <time>2012-03-31T13:10:02Z</time>
      </trkpt>
      <trkpt lat="47.25482" lon="-1.62889">
        <ele>-103.75</ele>
        <time>2012-03-31T13:10:05Z</time>
      </trkpt>
      <trkpt lat="47.25491" lon="-1.62883">
        <ele>-103.75</ele>
        <time>2012-03-31T13:10:07Z</time>
      </trkpt>
      <trkpt lat="47.255" lon="-1.62878">
        <ele>-103.75</ele>
        <time>2012-03-31T13:10:09Z</time>
      </trkpt>
      <trkpt lat="47.2551" lon="-1.62873">
        <ele>-103.75</ele>
        <time>2012-03-31T13:10:13Z</time>
      </trkpt>
      <trkpt lat="47.25523" lon="-1.62866">
        <ele>-103</ele>
        <time>2012-03-31T13:10:16Z</time>
      </trkpt>
      <trkpt lat="47.25533" lon="-1.6286">
        <ele>-103.75</ele>
        <time>2012-03-31T13:10:18Z</time>
      </trkpt>
      <trkpt lat="47.25542" lon="-1.62854">
        <ele>-105</ele>
        <time>2012-03-31T13:10:20Z</time>
      </trkpt>
      <trkpt lat="47.25553" lon="-1.62846">
        <ele>-105.75</ele>
        <time>2012-03-31T13:10:24Z</time>
      </trkpt>
      <trkpt lat="47.25563" lon="-1.62838">
        <ele>-105.75</ele>
        <time>2012-03-31T13:10:27Z</time>
      </trkpt>
      <trkpt lat="47.25571" lon="-1.62831">
        <ele>-107.75</ele>
        <time>2012-03-31T13:10:29Z</time>
      </trkpt>
      <trkpt lat="47.25579" lon="-1.62823">
        <ele>-109</ele>
        <time>2012-03-31T13:10:31Z</time>
      </trkpt>
      <trkpt lat="47.25589" lon="-1.62814">
        <ele>-108.5</ele>
        <time>2012-03-31T13:10:35Z</time>
      </trkpt>
      <trkpt lat="47.25598" lon="-1.62806">
        <ele>-108</ele>
        <time>2012-03-31T13:10:38Z</time>
      </trkpt>
      <trkpt lat="47.25607" lon="-1.62798">
        <ele>-108.25</ele>
        <time>2012-03-31T13:10:41Z</time>
      </trkpt>
      <trkpt lat="47.25617" lon="-1.62787">
        <ele>-109.75</ele>
        <time>2012-03-31T13:10:44Z</time>
      </trkpt>
      <trkpt lat="47.25629" lon="-1.62778">
        <ele>-108.75</ele>
        <time>2012-03-31T13:10:48Z</time>
      </trkpt>
      <trkpt lat="47.25638" lon="-1.62772">
        <ele>-107.75</ele>
        <time>2012-03-31T13:10:50Z</time>
      </trkpt>
      <trkpt lat="47.25645" lon="-1.62765">
        <ele>-106.5</ele>
        <time>2012-03-31T13:10:52Z</time>
      </trkpt>
      <trkpt lat="47.25653" lon="-1.62756">
        <ele>-105.5</ele>
        <time>2012-03-31T13:10:54Z</time>
      </trkpt>
      <trkpt lat="47.25659" lon="-1.62745">
        <ele>-105.25</ele>
        <time>2012-03-31T13:10:58Z</time>
      </trkpt>
      <trkpt lat="47.25668" lon="-1.62738">
        <ele>-107</ele>
        <time>2012-03-31T13:11:02Z</time>
      </trkpt>
      <trkpt lat="47.25678" lon="-1.62737">
        <ele>-107.25</ele>
        <time>2012-03-31T13:11:05Z</time>
      </trkpt>
      <trkpt lat="47.25685" lon="-1.62726">
        <ele>-108.75</ele>
        <time>2012-03-31T13:11:09Z</time>
      </trkpt>
      <trkpt lat="47.25689" lon="-1.62709">
        <ele>-108.75</ele>
        <time>2012-03-31T13:11:12Z</time>
      </trkpt>
      <trkpt lat="47.25694" lon="-1.62695">
        <ele>-108.25</ele>
        <time>2012-03-31T13:11:14Z</time>
      </trkpt>
      <trkpt lat="47.257" lon="-1.62683">
        <ele>-107.5</ele>
        <time>2012-03-31T13:11:16Z</time>
      </trkpt>
      <trkpt lat="47.25707" lon="-1.62671">
        <ele>-107</ele>
        <time>2012-03-31T13:11:19Z</time>
      </trkpt>
      <trkpt lat="47.25715" lon="-1.62656">
        <ele>-106.5</ele>
        <time>2012-03-31T13:11:21Z</time>
      </trkpt>
      <trkpt lat="47.25725" lon="-1.6264">
        <ele>-104.75</ele>
        <time>2012-03-31T13:11:23Z</time>
      </trkpt>
      <trkpt lat="47.25733" lon="-1.62626">
        <ele>-102.75</ele>
        <time>2012-03-31T13:11:26Z</time>
      </trkpt>
      <trkpt lat="47.25741" lon="-1.62612">
        <ele>-102</ele>
        <time>2012-03-31T13:11:28Z</time>
      </trkpt>
      <trkpt lat="47.2575" lon="-1.62593">
        <ele>-101.75</ele>
        <time>2012-03-31T13:11:30Z</time>
      </trkpt>
      <trkpt lat="47.2576" lon="-1.62574">
        <ele>-101.5</ele>
        <time>2012-03-31T13:11:32Z</time>
      </trkpt>
      <trkpt lat="47.25767" lon="-1.62559">
        <ele>-101.5</ele>
        <time>2012-03-31T13:11:34Z</time>
      </trkpt>
      <trkpt lat="47.25774" lon="-1.62546">
        <ele>-101.75</ele>
        <time>2012-03-31T13:11:37Z</time>
      </trkpt>
      <trkpt lat="47.25781" lon="-1.62535">
        <ele>-102</ele>
        <time>2012-03-31T13:11:39Z</time>
      </trkpt>
      <trkpt lat="47.25788" lon="-1.62522">
        <ele>-102.5</ele>
        <time>2012-03-31T13:11:41Z</time>
      </trkpt>
      <trkpt lat="47.25796" lon="-1.62508">
        <ele>-103</ele>
        <time>2012-03-31T13:11:43Z</time>
      </trkpt>
      <trkpt lat="47.25802" lon="-1.62497">
        <ele>-103.5</ele>
        <time>2012-03-31T13:11:45Z</time>
      </trkpt>
      <trkpt lat="47.2581" lon="-1.62485">
        <ele>-104</ele>
        <time>2012-03-31T13:11:49Z</time>
      </trkpt>
      <trkpt lat="47.2582" lon="-1.62481">
        <ele>-104</ele>
        <time>2012-03-31T13:11:52Z</time>
      </trkpt>
      <trkpt lat="47.25828" lon="-1.62492">
        <ele>-103.25</ele>
        <time>2012-03-31T13:11:55Z</time>
      </trkpt>
      <trkpt lat="47.25833" lon="-1.62508">
        <ele>-103</ele>
        <time>2012-03-31T13:11:59Z</time>
      </trkpt>
      <trkpt lat="47.25838" lon="-1.6252">
        <ele>-103.5</ele>
        <time>2012-03-31T13:12:01Z</time>
      </trkpt>
      <trkpt lat="47.25843" lon="-1.62534">
        <ele>-104</ele>
        <time>2012-03-31T13:12:03Z</time>
      </trkpt>
      <trkpt lat="47.25848" lon="-1.6255">
        <ele>-104.5</ele>
        <time>2012-03-31T13:12:05Z</time>
      </trkpt>
      <trkpt lat="47.25853" lon="-1.62565">
        <ele>-105.5</ele>
        <time>2012-03-31T13:12:07Z</time>
      </trkpt>
      <trkpt lat="47.25862" lon="-1.62573">
        <ele>-106</ele>
        <time>2012-03-31T13:12:10Z</time>
      </trkpt>
      <trkpt lat="47.25873" lon="-1.62576">
        <ele>-105.5</ele>
        <time>2012-03-31T13:12:15Z</time>
      </trkpt>
      <trkpt lat="47.25883" lon="-1.62581">
        <ele>-105.25</ele>
        <time>2012-03-31T13:12:18Z</time>
      </trkpt>
      <trkpt lat="47.25894" lon="-1.62586">
        <ele>-106.5</ele>
        <time>2012-03-31T13:12:21Z</time>
      </trkpt>
      <trkpt lat="47.25906" lon="-1.62591">
        <ele>-107</ele>
        <time>2012-03-31T13:12:26Z</time>
      </trkpt>
      <trkpt lat="47.25916" lon="-1.62588">
        <ele>-106.5</ele>
        <time>2012-03-31T13:12:28Z</time>
      </trkpt>
      <trkpt lat="47.25927" lon="-1.62581">
        <ele>-106.25</ele>
        <time>2012-03-31T13:12:30Z</time>
      </trkpt>
      <trkpt lat="47.25936" lon="-1.62573">
        <ele>-107</ele>
        <time>2012-03-31T13:12:33Z</time>
      </trkpt>
      <trkpt lat="47.25945" lon="-1.62565">
        <ele>-107.75</ele>
        <time>2012-03-31T13:12:35Z</time>
      </trkpt>
      <trkpt lat="47.25954" lon="-1.62556">
        <ele>-108.75</ele>
        <time>2012-03-31T13:12:37Z</time>
      </trkpt>
      <trkpt lat="47.25966" lon="-1.62546">
        <ele>-109.25</ele>
        <time>2012-03-31T13:12:39Z</time>
      </trkpt>
      <trkpt lat="47.25977" lon="-1.62537">
        <ele>-109.5</ele>
        <time>2012-03-31T13:12:41Z</time>
      </trkpt>
      <trkpt lat="47.25986" lon="-1.62529">
        <ele>-109.75</ele>
        <time>2012-03-31T13:12:44Z</time>
      </trkpt>
      <trkpt lat="47.25995" lon="-1.62521">
        <ele>-109.75</ele>
        <time>2012-03-31T13:12:46Z</time>
      </trkpt>
      <trkpt lat="47.26004" lon="-1.62514">
        <ele>-110.5</ele>
        <time>2012-03-31T13:12:48Z</time>
      </trkpt>
      <trkpt lat="47.26014" lon="-1.62506">
        <ele>-110.75</ele>
        <time>2012-03-31T13:12:50Z</time>
      </trkpt>
      <trkpt lat="47.26025" lon="-1.62496">
        <ele>-109</ele>
        <time>2012-03-31T13:12:52Z</time>
      </trkpt>
      <trkpt lat="47.26036" lon="-1.62487">
        <ele>-107.25</ele>
        <time>2012-03-31T13:12:55Z</time>
      </trkpt>
      <trkpt lat="47.26044" lon="-1.6248">
        <ele>-107.25</ele>
        <time>2012-03-31T13:12:57Z</time>
      </trkpt>
      <trkpt lat="47.26052" lon="-1.62472">
        <ele>-107.25</ele>
        <time>2012-03-31T13:12:59Z</time>
      </trkpt>
      <trkpt lat="47.26061" lon="-1.62463">
        <ele>-105.75</ele>
        <time>2012-03-31T13:13:02Z</time>
      </trkpt>
      <trkpt lat="47.26068" lon="-1.62454">
        <ele>-104.25</ele>
        <time>2012-03-31T13:13:04Z</time>
      </trkpt>
      <trkpt lat="47.26077" lon="-1.62444">
        <ele>-104.25</ele>
        <time>2012-03-31T13:13:07Z</time>
      </trkpt>
      <trkpt lat="47.26085" lon="-1.62436">
        <ele>-104.75</ele>
        <time>2012-03-31T13:13:09Z</time>
      </trkpt>
      <trkpt lat="47.26093" lon="-1.62428">
        <ele>-105.75</ele>
        <time>2012-03-31T13:13:13Z</time>
      </trkpt>
      <trkpt lat="47.261" lon="-1.62418">
        <ele>-107.75</ele>
        <time>2012-03-31T13:13:31Z</time>
      </trkpt>
      <trkpt lat="47.2611" lon="-1.62417">
        <ele>-108</ele>
        <time>2012-03-31T13:13:37Z</time>
      </trkpt>
      <trkpt lat="47.26114" lon="-1.62432">
        <ele>-108.5</ele>
        <time>2012-03-31T13:13:40Z</time>
      </trkpt>
      <trkpt lat="47.26119" lon="-1.62449">
        <ele>-109.25</ele>
        <time>2012-03-31T13:13:43Z</time>
      </trkpt>
      <trkpt lat="47.26127" lon="-1.62457">
        <ele>-108.5</ele>
        <time>2012-03-31T13:13:47Z</time>
      </trkpt>
      <trkpt lat="47.26134" lon="-1.62465">
        <ele>-106.75</ele>
        <time>2012-03-31T13:13:50Z</time>
      </trkpt>
      <trkpt lat="47.26144" lon="-1.62473">
        <ele>-106</ele>
        <time>2012-03-31T13:13:53Z</time>
      </trkpt>
      <trkpt lat="47.26153" lon="-1.6248">
        <ele>-109</ele>
        <time>2012-03-31T13:14:04Z</time>
      </trkpt>
      <trkpt lat="47.26164" lon="-1.62485">
        <ele>-107.25</ele>
        <time>2012-03-31T13:14:09Z</time>
      </trkpt>
      <trkpt lat="47.26176" lon="-1.62489">
        <ele>-106.25</ele>
        <time>2012-03-31T13:14:12Z</time>
      </trkpt>
      <trkpt lat="47.26186" lon="-1.62494">
        <ele>-106.25</ele>
        <time>2012-03-31T13:14:15Z</time>
      </trkpt>
      <trkpt lat="47.26196" lon="-1.62501">
        <ele>-107</ele>
        <time>2012-03-31T13:14:19Z</time>
      </trkpt>
      <trkpt lat="47.26209" lon="-1.62507">
        <ele>-107.75</ele>
        <time>2012-03-31T13:14:22Z</time>
      </trkpt>
      <trkpt lat="47.26221" lon="-1.62512">
        <ele>-107.75</ele>
        <time>2012-03-31T13:14:25Z</time>
      </trkpt>
      <trkpt lat="47.26232" lon="-1.62513">
        <ele>-108.25</ele>
        <time>2012-03-31T13:14:29Z</time>
      </trkpt>
      <trkpt lat="47.26243" lon="-1.62515">
        <ele>-107.25</ele>
        <time>2012-03-31T13:14:32Z</time>
      </trkpt>
      <trkpt lat="47.26255" lon="-1.62519">
        <ele>-105.5</ele>
        <time>2012-03-31T13:14:35Z</time>
      </trkpt>
      <trkpt lat="47.26266" lon="-1.62524">
        <ele>-105</ele>
        <time>2012-03-31T13:14:38Z</time>
      </trkpt>
      <trkpt lat="47.26277" lon="-1.62526">
        <ele>-105.5</ele>
        <time>2012-03-31T13:14:42Z</time>
      </trkpt>
      <trkpt lat="47.26289" lon="-1.6253">
        <ele>-104</ele>
        <time>2012-03-31T13:14:45Z</time>
      </trkpt>
      <trkpt lat="47.263" lon="-1.62533">
        <ele>-104</ele>
        <time>2012-03-31T13:14:47Z</time>
      </trkpt>
      <trkpt lat="47.26311" lon="-1.62535">
        <ele>-103.5</ele>
        <time>2012-03-31T13:14:49Z</time>
      </trkpt>
      <trkpt lat="47.26322" lon="-1.62538">
        <ele>-101</ele>
        <time>2012-03-31T13:14:53Z</time>
      </trkpt>
      <trkpt lat="47.26335" lon="-1.62543">
        <ele>-100</ele>
        <time>2012-03-31T13:14:56Z</time>
      </trkpt>
      <trkpt lat="47.26344" lon="-1.62548">
        <ele>-99.5</ele>
        <time>2012-03-31T13:14:58Z</time>
      </trkpt>
      <trkpt lat="47.26355" lon="-1.62553">
        <ele>-99.5</ele>
        <time>2012-03-31T13:15:00Z</time>
      </trkpt>
      <trkpt lat="47.26367" lon="-1.62557">
        <ele>-99.5</ele>
        <time>2012-03-31T13:15:03Z</time>
      </trkpt>
      <trkpt lat="47.26377" lon="-1.6256">
        <ele>-100.5</ele>
        <time>2012-03-31T13:15:05Z</time>
      </trkpt>
      <trkpt lat="47.26387" lon="-1.6256">
        <ele>-103</ele>
        <time>2012-03-31T13:15:07Z</time>
      </trkpt>
      <trkpt lat="47.26397" lon="-1.62557">
        <ele>-105.25</ele>
        <time>2012-03-31T13:15:09Z</time>
      </trkpt>
      <trkpt lat="47.26407" lon="-1.62552">
        <ele>-106.5</ele>
        <time>2012-03-31T13:15:11Z</time>
      </trkpt>
      <trkpt lat="47.26417" lon="-1.6254">
        <ele>-108.25</ele>
        <time>2012-03-31T13:15:15Z</time>
      </trkpt>
      <trkpt lat="47.26426" lon="-1.62532">
        <ele>-109.25</ele>
        <time>2012-03-31T13:15:17Z</time>
      </trkpt>
      <trkpt lat="47.26436" lon="-1.62524">
        <ele>-108.75</ele>
        <time>2012-03-31T13:15:19Z</time>
      </trkpt>
      <trkpt lat="47.26444" lon="-1.62518">
        <ele>-108.25</ele>
        <time>2012-03-31T13:15:21Z</time>
      </trkpt>
      <trkpt lat="47.26453" lon="-1.62509">
        <ele>-106.75</ele>
        <time>2012-03-31T13:15:27Z</time>
      </trkpt>
      <trkpt lat="47.26462" lon="-1.62498">
        <ele>-101</ele>
        <time>2012-03-31T13:15:30Z</time>
      </trkpt>
      <trkpt lat="47.26473" lon="-1.62492">
        <ele>-97.75</ele>
        <time>2012-03-31T13:15:34Z</time>
      </trkpt>
      <trkpt lat="47.26483" lon="-1.62487">
        <ele>-104</ele>
        <time>2012-03-31T13:15:45Z</time>
      </trkpt>
      <trkpt lat="47.26484" lon="-1.62473">
        <ele>-99</ele>
        <time>2012-03-31T13:16:12Z</time>
      </trkpt>
      <trkpt lat="47.2648" lon="-1.62459">
        <ele>-99.75</ele>
        <time>2012-03-31T13:16:16Z</time>
      </trkpt>
      <trkpt lat="47.26478" lon="-1.62445">
        <ele>-104</ele>
        <time>2012-03-31T13:16:19Z</time>
      </trkpt>
      <trkpt lat="47.26473" lon="-1.62425">
        <ele>-108.5</ele>
        <time>2012-03-31T13:16:22Z</time>
      </trkpt>
      <trkpt lat="47.26468" lon="-1.62409">
        <ele>-109.25</ele>
        <time>2012-03-31T13:16:24Z</time>
      </trkpt>
      <trkpt lat="47.26465" lon="-1.62396">
        <ele>-109.25</ele>
        <time>2012-03-31T13:16:27Z</time>
      </trkpt>
      <trkpt lat="47.26461" lon="-1.6238">
        <ele>-109.25</ele>
        <time>2012-03-31T13:16:30Z</time>
      </trkpt>
      <trkpt lat="47.26461" lon="-1.62364">
        <ele>-107.5</ele>
        <time>2012-03-31T13:16:33Z</time>
      </trkpt>
      <trkpt lat="47.26464" lon="-1.62351">
        <ele>-107.25</ele>
        <time>2012-03-31T13:16:36Z</time>
      </trkpt>
      <trkpt lat="47.26466" lon="-1.62337">
        <ele>-109.5</ele>
        <time>2012-03-31T13:16:38Z</time>
      </trkpt>
      <trkpt lat="47.26467" lon="-1.62321">
        <ele>-114.25</ele>
        <time>2012-03-31T13:16:40Z</time>
      </trkpt>
      <trkpt lat="47.26467" lon="-1.62301">
        <ele>-121.5</ele>
        <time>2012-03-31T13:16:42Z</time>
      </trkpt>
      <trkpt lat="47.26464" lon="-1.6228">
        <ele>-129.25</ele>
        <time>2012-03-31T13:16:44Z</time>
      </trkpt>
      <trkpt lat="47.26461" lon="-1.62262">
        <ele>-135</ele>
        <time>2012-03-31T13:16:46Z</time>
      </trkpt>
      <trkpt lat="47.26458" lon="-1.62246">
        <ele>-139.75</ele>
        <time>2012-03-31T13:16:49Z</time>
      </trkpt>
      <trkpt lat="47.26455" lon="-1.6223">
        <ele>-144.25</ele>
        <time>2012-03-31T13:16:51Z</time>
      </trkpt>
      <trkpt lat="47.26453" lon="-1.62215">
        <ele>-148.25</ele>
        <time>2012-03-31T13:16:53Z</time>
      </trkpt>
      <trkpt lat="47.26452" lon="-1.62201">
        <ele>-150.75</ele>
        <time>2012-03-31T13:16:56Z</time>
      </trkpt>
      <trkpt lat="47.26449" lon="-1.62188">
        <ele>-133.25</ele>
        <time>2012-03-31T13:17:07Z</time>
      </trkpt>
      <trkpt lat="47.26459" lon="-1.62181">
        <ele>-123</ele>
        <time>2012-03-31T13:17:14Z</time>
      </trkpt>
      <trkpt lat="47.26468" lon="-1.62177">
        <ele>-118.5</ele>
        <time>2012-03-31T13:17:16Z</time>
      </trkpt>
      <trkpt lat="47.26479" lon="-1.62173">
        <ele>-114.5</ele>
        <time>2012-03-31T13:17:18Z</time>
      </trkpt>
      <trkpt lat="47.26489" lon="-1.6217">
        <ele>-112.25</ele>
        <time>2012-03-31T13:17:21Z</time>
      </trkpt>
      <trkpt lat="47.26501" lon="-1.62166">
        <ele>-110.25</ele>
        <time>2012-03-31T13:17:23Z</time>
      </trkpt>
      <trkpt lat="47.26514" lon="-1.62164">
        <ele>-104.5</ele>
        <time>2012-03-31T13:17:25Z</time>
      </trkpt>
      <trkpt lat="47.26525" lon="-1.62164">
        <ele>-98.5</ele>
        <time>2012-03-31T13:17:27Z</time>
      </trkpt>
      <trkpt lat="47.26535" lon="-1.62163">
        <ele>-94.75</ele>
        <time>2012-03-31T13:17:30Z</time>
      </trkpt>
      <trkpt lat="47.26546" lon="-1.62165">
        <ele>-90.25</ele>
        <time>2012-03-31T13:17:32Z</time>
      </trkpt>
      <trkpt lat="47.26557" lon="-1.62165">
        <ele>-84.75</ele>
        <time>2012-03-31T13:17:34Z</time>
      </trkpt>
      <trkpt lat="47.26569" lon="-1.62164">
        <ele>-81.25</ele>
        <time>2012-03-31T13:17:36Z</time>
      </trkpt>
      <trkpt lat="47.2658" lon="-1.62163">
        <ele>-79.75</ele>
        <time>2012-03-31T13:17:38Z</time>
      </trkpt>
      <trkpt lat="47.2659" lon="-1.62163">
        <ele>-78.75</ele>
        <time>2012-03-31T13:17:41Z</time>
      </trkpt>
      <trkpt lat="47.266" lon="-1.62161">
        <ele>-78.75</ele>
        <time>2012-03-31T13:17:43Z</time>
      </trkpt>
      <trkpt lat="47.26611" lon="-1.6216">
        <ele>-78</ele>
        <time>2012-03-31T13:17:45Z</time>
      </trkpt>
      <trkpt lat="47.26622" lon="-1.62164">
        <ele>-76.25</ele>
        <time>2012-03-31T13:17:47Z</time>
      </trkpt>
      <trkpt lat="47.26634" lon="-1.62171">
        <ele>-74.25</ele>
        <time>2012-03-31T13:17:51Z</time>
      </trkpt>
      <trkpt lat="47.26642" lon="-1.62176">
        <ele>-70.25</ele>
        <time>2012-03-31T13:17:54Z</time>
      </trkpt>
      <trkpt lat="47.26654" lon="-1.62181">
        <ele>-68.25</ele>
        <time>2012-03-31T13:17:57Z</time>
      </trkpt>
      <trkpt lat="47.26665" lon="-1.62188">
        <ele>-68.25</ele>
        <time>2012-03-31T13:18:01Z</time>
      </trkpt>
      <trkpt lat="47.26672" lon="-1.62199">
        <ele>-67.25</ele>
        <time>2012-03-31T13:18:05Z</time>
      </trkpt>
      <trkpt lat="47.26678" lon="-1.62215">
        <ele>-66.5</ele>
        <time>2012-03-31T13:18:08Z</time>
      </trkpt>
      <trkpt lat="47.26684" lon="-1.62228">
        <ele>-64.75</ele>
        <time>2012-03-31T13:18:12Z</time>
      </trkpt>
      <trkpt lat="47.26688" lon="-1.62242">
        <ele>-62</ele>
        <time>2012-03-31T13:18:16Z</time>
      </trkpt>
      <trkpt lat="47.26692" lon="-1.62254">
        <ele>-59.75</ele>
        <time>2012-03-31T13:18:18Z</time>
      </trkpt>
      <trkpt lat="47.26697" lon="-1.62266">
        <ele>-58.75</ele>
        <time>2012-03-31T13:18:20Z</time>
      </trkpt>
      <trkpt lat="47.26705" lon="-1.62278">
        <ele>-56.75</ele>
        <time>2012-03-31T13:18:24Z</time>
      </trkpt>
      <trkpt lat="47.26712" lon="-1.62289">
        <ele>-55.25</ele>
        <time>2012-03-31T13:18:27Z</time>
      </trkpt>
      <trkpt lat="47.26716" lon="-1.62302">
        <ele>-55.5</ele>
        <time>2012-03-31T13:18:31Z</time>
      </trkpt>
      <trkpt lat="47.2672" lon="-1.62314">
        <ele>-54.75</ele>
        <time>2012-03-31T13:18:36Z</time>
      </trkpt>
      <trkpt lat="47.26726" lon="-1.62326">
        <ele>-50</ele>
        <time>2012-03-31T13:18:40Z</time>
      </trkpt>
      <trkpt lat="47.26731" lon="-1.62338">
        <ele>-44.75</ele>
        <time>2012-03-31T13:18:47Z</time>
      </trkpt>
      <trkpt lat="47.26741" lon="-1.62336">
        <ele>-56.75</ele>
        <time>2012-03-31T13:18:55Z</time>
      </trkpt>
      <trkpt lat="47.2675" lon="-1.62339">
        <ele>-61.75</ele>
        <time>2012-03-31T13:19:16Z</time>
      </trkpt>
      <trkpt lat="47.26748" lon="-1.62352">
        <ele>-64.75</ele>
        <time>2012-03-31T13:19:36Z</time>
      </trkpt>
      <trkpt lat="47.26749" lon="-1.62366">
        <ele>-61</ele>
        <time>2012-03-31T13:19:50Z</time>
      </trkpt>
      <trkpt lat="47.26751" lon="-1.62381">
        <ele>-53.5</ele>
        <time>2012-03-31T13:19:58Z</time>
      </trkpt>
      <trkpt lat="47.2675" lon="-1.62395">
        <ele>-50</ele>
        <time>2012-03-31T13:20:03Z</time>
      </trkpt>
      <trkpt lat="47.26748" lon="-1.62409">
        <ele>-48.75</ele>
        <time>2012-03-31T13:20:07Z</time>
      </trkpt>
      <trkpt lat="47.26743" lon="-1.62424">
        <ele>-49.5</ele>
        <time>2012-03-31T13:20:11Z</time>
      </trkpt>
      <trkpt lat="47.26741" lon="-1.62438">
        <ele>-53.75</ele>
        <time>2012-03-31T13:20:18Z</time>
      </trkpt>
      <trkpt lat="47.26743" lon="-1.62454">
        <ele>-56</ele>
        <time>2012-03-31T13:20:24Z</time>
      </trkpt>
      <trkpt lat="47.26743" lon="-1.62469">
        <ele>-55.75</ele>
        <time>2012-03-31T13:20:27Z</time>
      </trkpt>
      <trkpt lat="47.2674" lon="-1.62485">
        <ele>-57.5</ele>
        <time>2012-03-31T13:20:30Z</time>
      </trkpt>
      <trkpt lat="47.26737" lon="-1.62498">
        <ele>-56.75</ele>
        <time>2012-03-31T13:20:34Z</time>
      </trkpt>
      <trkpt lat="47.26733" lon="-1.62511">
        <ele>-56.75</ele>
        <time>2012-03-31T13:20:38Z</time>
      </trkpt>
      <trkpt lat="47.26734" lon="-1.62528">
        <ele>-53.5</ele>
        <time>2012-03-31T13:20:41Z</time>
      </trkpt>
      <trkpt lat="47.26734" lon="-1.62544">
        <ele>-51.25</ele>
        <time>2012-03-31T13:20:45Z</time>
      </trkpt>
      <trkpt lat="47.26735" lon="-1.62559">
        <ele>-48.25</ele>
        <time>2012-03-31T13:20:48Z</time>
      </trkpt>
      <trkpt lat="47.26734" lon="-1.62573">
        <ele>-42.75</ele>
        <time>2012-03-31T13:20:51Z</time>
      </trkpt>
      <trkpt lat="47.26731" lon="-1.6259">
        <ele>-38.75</ele>
        <time>2012-03-31T13:20:54Z</time>
      </trkpt>
      <trkpt lat="47.26727" lon="-1.62603">
        <ele>-36</ele>
        <time>2012-03-31T13:20:58Z</time>
      </trkpt>
      <trkpt lat="47.26725" lon="-1.62619">
        <ele>-34.5</ele>
        <time>2012-03-31T13:21:02Z</time>
      </trkpt>
      <trkpt lat="47.26722" lon="-1.62633">
        <ele>-33.75</ele>
        <time>2012-03-31T13:21:05Z</time>
      </trkpt>
      <trkpt lat="47.26723" lon="-1.62651">
        <ele>-32</ele>
        <time>2012-03-31T13:21:10Z</time>
      </trkpt>
      <trkpt lat="47.26724" lon="-1.62667">
        <ele>-25.75</ele>
        <time>2012-03-31T13:21:13Z</time>
      </trkpt>
      <trkpt lat="47.2672" lon="-1.62679">
        <ele>-27.5</ele>
        <time>2012-03-31T13:21:22Z</time>
      </trkpt>
      <trkpt lat="47.26726" lon="-1.6269">
        <ele>-36</ele>
        <time>2012-03-31T13:21:33Z</time>
      </trkpt>
      <trkpt lat="47.26729" lon="-1.62703">
        <ele>-40.25</ele>
        <time>2012-03-31T13:21:42Z</time>
      </trkpt>
      <trkpt lat="47.26728" lon="-1.62721">
        <ele>-36</ele>
        <time>2012-03-31T13:21:46Z</time>
      </trkpt>
      <trkpt lat="47.26727" lon="-1.62736">
        <ele>-31</ele>
        <time>2012-03-31T13:21:49Z</time>
      </trkpt>
      <trkpt lat="47.26725" lon="-1.62751">
        <ele>-28.75</ele>
        <time>2012-03-31T13:21:54Z</time>
      </trkpt>
      <trkpt lat="47.26725" lon="-1.62766">
        <ele>-25.25</ele>
        <time>2012-03-31T13:21:57Z</time>
      </trkpt>
      <trkpt lat="47.26725" lon="-1.62782">
        <ele>-20</ele>
        <time>2012-03-31T13:22:01Z</time>
      </trkpt>
      <trkpt lat="47.26723" lon="-1.62796">
        <ele>-17.25</ele>
        <time>2012-03-31T13:22:04Z</time>
      </trkpt>
      <trkpt lat="47.26721" lon="-1.62811">
        <ele>-15.75</ele>
        <time>2012-03-31T13:22:07Z</time>
      </trkpt>
      <trkpt lat="47.26722" lon="-1.62827">
        <ele>-14</ele>
        <time>2012-03-31T13:22:12Z</time>
      </trkpt>
      <trkpt lat="47.26723" lon="-1.62844">
        <ele>-11.5</ele>
        <time>2012-03-31T13:22:15Z</time>
      </trkpt>
      <trkpt lat="47.26724" lon="-1.62857">
        <ele>-14</ele>
        <time>2012-03-31T13:22:17Z</time>
      </trkpt>
      <trkpt lat="47.26725" lon="-1.62871">
        <ele>-18.25</ele>
        <time>2012-03-31T13:22:21Z</time>
      </trkpt>
      <trkpt lat="47.26726" lon="-1.62885">
        <ele>-24.5</ele>
        <time>2012-03-31T13:22:25Z</time>
      </trkpt>
      <trkpt lat="47.26725" lon="-1.62902">
        <ele>-32.25</ele>
        <time>2012-03-31T13:22:29Z</time>
      </trkpt>
      <trkpt lat="47.26724" lon="-1.62915">
        <ele>-36.25</ele>
        <time>2012-03-31T13:22:33Z</time>
      </trkpt>
      <trkpt lat="47.26725" lon="-1.6293">
        <ele>-41.25</ele>
        <time>2012-03-31T13:22:36Z</time>
      </trkpt>
      <trkpt lat="47.26724" lon="-1.62946">
        <ele>-44.5</ele>
        <time>2012-03-31T13:22:39Z</time>
      </trkpt>
      <trkpt lat="47.26724" lon="-1.62962">
        <ele>-42.75</ele>
        <time>2012-03-31T13:22:43Z</time>
      </trkpt>
      <trkpt lat="47.26725" lon="-1.62977">
        <ele>-42.25</ele>
        <time>2012-03-31T13:22:46Z</time>
      </trkpt>
      <trkpt lat="47.26728" lon="-1.62994">
        <ele>-46.75</ele>
        <time>2012-03-31T13:22:49Z</time>
      </trkpt>
      <trkpt lat="47.26731" lon="-1.63007">
        <ele>-52.25</ele>
        <time>2012-03-31T13:22:54Z</time>
      </trkpt>
      <trkpt lat="47.2673" lon="-1.63021">
        <ele>-66.25</ele>
        <time>2012-03-31T13:23:01Z</time>
      </trkpt>
      <trkpt lat="47.26728" lon="-1.63035">
        <ele>-62</ele>
        <time>2012-03-31T13:23:06Z</time>
      </trkpt>
      <trkpt lat="47.26735" lon="-1.63049">
        <ele>-56.75</ele>
        <time>2012-03-31T13:23:11Z</time>
      </trkpt>
      <trkpt lat="47.26743" lon="-1.6306">
        <ele>-54.25</ele>
        <time>2012-03-31T13:23:15Z</time>
      </trkpt>
      <trkpt lat="47.26752" lon="-1.63066">
        <ele>-54</ele>
        <time>2012-03-31T13:23:17Z</time>
      </trkpt>
      <trkpt lat="47.26763" lon="-1.63071">
        <ele>-55.25</ele>
        <time>2012-03-31T13:23:19Z</time>
      </trkpt>
      <trkpt lat="47.26774" lon="-1.63074">
        <ele>-55.5</ele>
        <time>2012-03-31T13:23:21Z</time>
      </trkpt>
      <trkpt lat="47.26783" lon="-1.63073">
        <ele>-55.5</ele>
        <time>2012-03-31T13:23:23Z</time>
      </trkpt>
      <trkpt lat="47.26793" lon="-1.6307">
        <ele>-55.25</ele>
        <time>2012-03-31T13:23:26Z</time>
      </trkpt>
      <trkpt lat="47.26805" lon="-1.6307">
        <ele>-56</ele>
        <time>2012-03-31T13:23:31Z</time>
      </trkpt>
      <trkpt lat="47.26814" lon="-1.63067">
        <ele>-57.25</ele>
        <time>2012-03-31T13:23:35Z</time>
      </trkpt>
      <trkpt lat="47.26824" lon="-1.6307">
        <ele>-58.25</ele>
        <time>2012-03-31T13:23:43Z</time>
      </trkpt>
      <trkpt lat="47.26827" lon="-1.63057">
        <ele>-66</ele>
        <time>2012-03-31T13:23:49Z</time>
      </trkpt>
      <trkpt lat="47.26822" lon="-1.63044">
        <ele>-73.25</ele>
        <time>2012-03-31T13:23:59Z</time>
      </trkpt>
      <trkpt lat="47.26822" lon="-1.6303">
        <ele>-73.5</ele>
        <time>2012-03-31T13:24:15Z</time>
      </trkpt>
      <trkpt lat="47.26812" lon="-1.63022">
        <ele>-69</ele>
        <time>2012-03-31T13:24:20Z</time>
      </trkpt>
      <trkpt lat="47.26807" lon="-1.63011">
        <ele>-66.5</ele>
        <time>2012-03-31T13:24:24Z</time>
      </trkpt>
      <trkpt lat="47.26803" lon="-1.62999">
        <ele>-65.5</ele>
        <time>2012-03-31T13:24:27Z</time>
      </trkpt>
      <trkpt lat="47.26796" lon="-1.62984">
        <ele>-66.25</ele>
        <time>2012-03-31T13:24:30Z</time>
      </trkpt>
      <trkpt lat="47.26792" lon="-1.6297">
        <ele>-66</ele>
        <time>2012-03-31T13:24:32Z</time>
      </trkpt>
      <trkpt lat="47.26791" lon="-1.62955">
        <ele>-66</ele>
        <time>2012-03-31T13:24:35Z</time>
      </trkpt>
      <trkpt lat="47.26789" lon="-1.62941">
        <ele>-66.5</ele>
        <time>2012-03-31T13:24:37Z</time>
      </trkpt>
      <trkpt lat="47.26788" lon="-1.62926">
        <ele>-65.5</ele>
        <time>2012-03-31T13:24:39Z</time>
      </trkpt>
      <trkpt lat="47.26788" lon="-1.62908">
        <ele>-63.25</ele>
        <time>2012-03-31T13:24:41Z</time>
      </trkpt>
      <trkpt lat="47.26789" lon="-1.6289">
        <ele>-62</ele>
        <time>2012-03-31T13:24:43Z</time>
      </trkpt>
      <trkpt lat="47.26787" lon="-1.62875">
        <ele>-63.75</ele>
        <time>2012-03-31T13:24:46Z</time>
      </trkpt>
      <trkpt lat="47.26782" lon="-1.62861">
        <ele>-67.25</ele>
        <time>2012-03-31T13:24:48Z</time>
      </trkpt>
      <trkpt lat="47.2678" lon="-1.62847">
        <ele>-70</ele>
        <time>2012-03-31T13:24:50Z</time>
      </trkpt>
      <trkpt lat="47.26778" lon="-1.62828">
        <ele>-70.25</ele>
        <time>2012-03-31T13:24:52Z</time>
      </trkpt>
      <trkpt lat="47.26777" lon="-1.62809">
        <ele>-69</ele>
        <time>2012-03-31T13:24:54Z</time>
      </trkpt>
      <trkpt lat="47.26779" lon="-1.62794">
        <ele>-67.75</ele>
        <time>2012-03-31T13:24:57Z</time>
      </trkpt>
      <trkpt lat="47.26779" lon="-1.62779">
        <ele>-67</ele>
        <time>2012-03-31T13:24:59Z</time>
      </trkpt>
      <trkpt lat="47.26775" lon="-1.62761">
        <ele>-67</ele>
        <time>2012-03-31T13:25:01Z</time>
      </trkpt>
      <trkpt lat="47.26772" lon="-1.62742">
        <ele>-67.5</ele>
        <time>2012-03-31T13:25:03Z</time>
      </trkpt>
      <trkpt lat="47.26769" lon="-1.62725">
        <ele>-68.5</ele>
        <time>2012-03-31T13:25:05Z</time>
      </trkpt>
      <trkpt lat="47.26768" lon="-1.6271">
        <ele>-66.75</ele>
        <time>2012-03-31T13:25:07Z</time>
      </trkpt>
      <trkpt lat="47.26768" lon="-1.62696">
        <ele>-63.5</ele>
        <time>2012-03-31T13:25:10Z</time>
      </trkpt>
      <trkpt lat="47.26767" lon="-1.62682">
        <ele>-63</ele>
        <time>2012-03-31T13:25:12Z</time>
      </trkpt>
      <trkpt lat="47.26766" lon="-1.62667">
        <ele>-62.75</ele>
        <time>2012-03-31T13:25:14Z</time>
      </trkpt>
      <trkpt lat="47.26767" lon="-1.62649">
        <ele>-61.5</ele>
        <time>2012-03-31T13:25:16Z</time>
      </trkpt>
      <trkpt lat="47.26769" lon="-1.62635">
        <ele>-60.5</ele>
        <time>2012-03-31T13:25:18Z</time>
      </trkpt>
      <trkpt lat="47.26771" lon="-1.62616">
        <ele>-57.5</ele>
        <time>2012-03-31T13:25:22Z</time>
      </trkpt>
      <trkpt lat="47.26773" lon="-1.62598">
        <ele>-52.25</ele>
        <time>2012-03-31T13:25:25Z</time>
      </trkpt>
      <trkpt lat="47.26775" lon="-1.62579">
        <ele>-47</ele>
        <time>2012-03-31T13:25:28Z</time>
      </trkpt>
      <trkpt lat="47.26775" lon="-1.62561">
        <ele>-42</ele>
        <time>2012-03-31T13:25:32Z</time>
      </trkpt>
      <trkpt lat="47.26776" lon="-1.6254">
        <ele>-38.5</ele>
        <time>2012-03-31T13:25:35Z</time>
      </trkpt>
      <trkpt lat="47.26777" lon="-1.62522">
        <ele>-39.25</ele>
        <time>2012-03-31T13:25:37Z</time>
      </trkpt>
      <trkpt lat="47.26778" lon="-1.62508">
        <ele>-40.75</ele>
        <time>2012-03-31T13:25:39Z</time>
      </trkpt>
      <trkpt lat="47.26781" lon="-1.62494">
        <ele>-41</ele>
        <time>2012-03-31T13:25:42Z</time>
      </trkpt>
      <trkpt lat="47.26783" lon="-1.62476">
        <ele>-43.5</ele>
        <time>2012-03-31T13:25:44Z</time>
      </trkpt>
      <trkpt lat="47.26784" lon="-1.62455">
        <ele>-49.25</ele>
        <time>2012-03-31T13:25:46Z</time>
      </trkpt>
      <trkpt lat="47.26785" lon="-1.62432">
        <ele>-55.75</ele>
        <time>2012-03-31T13:25:48Z</time>
      </trkpt>
      <trkpt lat="47.26787" lon="-1.62413">
        <ele>-61</ele>
        <time>2012-03-31T13:25:50Z</time>
      </trkpt>
      <trkpt lat="47.26788" lon="-1.62395">
        <ele>-64.5</ele>
        <time>2012-03-31T13:25:54Z</time>
      </trkpt>
      <trkpt lat="47.26792" lon="-1.62381">
        <ele>-66.5</ele>
        <time>2012-03-31T13:25:58Z</time>
      </trkpt>
      <trkpt lat="47.26798" lon="-1.6237">
        <ele>-67</ele>
        <time>2012-03-31T13:26:27Z</time>
      </trkpt>
      <trkpt lat="47.26807" lon="-1.6237">
        <ele>-61.25</ele>
        <time>2012-03-31T13:26:40Z</time>
      </trkpt>
      <trkpt lat="47.26815" lon="-1.62378">
        <ele>-65.75</ele>
        <time>2012-03-31T13:26:54Z</time>
      </trkpt>
      <trkpt lat="47.26823" lon="-1.62384">
        <ele>-67.5</ele>
        <time>2012-03-31T13:27:04Z</time>
      </trkpt>
      <trkpt lat="47.26831" lon="-1.62391">
        <ele>-67</ele>
        <time>2012-03-31T13:27:11Z</time>
      </trkpt>
      <trkpt lat="47.2684" lon="-1.62399">
        <ele>-67.5</ele>
        <time>2012-03-31T13:27:15Z</time>
      </trkpt>
      <trkpt lat="47.26848" lon="-1.62408">
        <ele>-66</ele>
        <time>2012-03-31T13:27:21Z</time>
      </trkpt>
      <trkpt lat="47.26857" lon="-1.62416">
        <ele>-66</ele>
        <time>2012-03-31T13:27:27Z</time>
      </trkpt>
      <trkpt lat="47.26866" lon="-1.62423">
        <ele>-66.75</ele>
        <time>2012-03-31T13:27:32Z</time>
      </trkpt>
      <trkpt lat="47.26875" lon="-1.62426">
        <ele>-69.25</ele>
        <time>2012-03-31T13:27:40Z</time>
      </trkpt>
      <trkpt lat="47.26884" lon="-1.6243">
        <ele>-78.75</ele>
        <time>2012-03-31T13:28:23Z</time>
      </trkpt>
      <trkpt lat="47.26893" lon="-1.62429">
        <ele>-80.25</ele>
        <time>2012-03-31T13:28:33Z</time>
      </trkpt>
      <trkpt lat="47.269" lon="-1.62419">
        <ele>-89</ele>
        <time>2012-03-31T13:29:11Z</time>
      </trkpt>
      <trkpt lat="47.26907" lon="-1.62409">
        <ele>-90.5</ele>
        <time>2012-03-31T13:29:16Z</time>
      </trkpt>
      <trkpt lat="47.26917" lon="-1.62405">
        <ele>-91.75</ele>
        <time>2012-03-31T13:29:20Z</time>
      </trkpt>
      <trkpt lat="47.26928" lon="-1.62405">
        <ele>-89.5</ele>
        <time>2012-03-31T13:29:23Z</time>
      </trkpt>
      <trkpt lat="47.26938" lon="-1.62402">
        <ele>-88.75</ele>
        <time>2012-03-31T13:29:28Z</time>
      </trkpt>
      <trkpt lat="47.26947" lon="-1.62397">
        <ele>-91.75</ele>
        <time>2012-03-31T13:29:32Z</time>
      </trkpt>
      <trkpt lat="47.26956" lon="-1.6239">
        <ele>-94</ele>
        <time>2012-03-31T13:29:37Z</time>
      </trkpt>
      <trkpt lat="47.26966" lon="-1.62384">
        <ele>-96.5</ele>
        <time>2012-03-31T13:29:41Z</time>
      </trkpt>
      <trkpt lat="47.26974" lon="-1.62378">
        <ele>-96</ele>
        <time>2012-03-31T13:29:43Z</time>
      </trkpt>
      <trkpt lat="47.26985" lon="-1.62371">
        <ele>-94.75</ele>
        <time>2012-03-31T13:29:47Z</time>
      </trkpt>
      <trkpt lat="47.26995" lon="-1.62365">
        <ele>-93.25</ele>
        <time>2012-03-31T13:29:50Z</time>
      </trkpt>
      <trkpt lat="47.27006" lon="-1.62359">
        <ele>-91</ele>
        <time>2012-03-31T13:29:53Z</time>
      </trkpt>
      <trkpt lat="47.27016" lon="-1.62354">
        <ele>-87.5</ele>
        <time>2012-03-31T13:29:58Z</time>
      </trkpt>
      <trkpt lat="47.27026" lon="-1.62347">
        <ele>-84.75</ele>
        <time>2012-03-31T13:30:03Z</time>
      </trkpt>
      <trkpt lat="47.27036" lon="-1.62341">
        <ele>-84.25</ele>
        <time>2012-03-31T13:30:08Z</time>
      </trkpt>
      <trkpt lat="47.27044" lon="-1.62334">
        <ele>-86.25</ele>
        <time>2012-03-31T13:30:12Z</time>
      </trkpt>
      <trkpt lat="47.27054" lon="-1.62328">
        <ele>-87.25</ele>
        <time>2012-03-31T13:30:17Z</time>
      </trkpt>
      <trkpt lat="47.27063" lon="-1.62319">
        <ele>-85.25</ele>
        <time>2012-03-31T13:30:20Z</time>
      </trkpt>
      <trkpt lat="47.27071" lon="-1.62311">
        <ele>-84.5</ele>
        <time>2012-03-31T13:30:25Z</time>
      </trkpt>
      <trkpt lat="47.27076" lon="-1.62299">
        <ele>-90.75</ele>
        <time>2012-03-31T13:31:23Z</time>
      </trkpt>
      <trkpt lat="47.27087" lon="-1.62303">
        <ele>-90</ele>
        <time>2012-03-31T13:31:30Z</time>
      </trkpt>
      <trkpt lat="47.27096" lon="-1.62306">
        <ele>-89.75</ele>
        <time>2012-03-31T13:31:35Z</time>
      </trkpt>
      <trkpt lat="47.27106" lon="-1.62306">
        <ele>-91.5</ele>
        <time>2012-03-31T13:31:39Z</time>
      </trkpt>
      <trkpt lat="47.27117" lon="-1.62305">
        <ele>-92</ele>
        <time>2012-03-31T13:31:42Z</time>
      </trkpt>
      <trkpt lat="47.27127" lon="-1.62304">
        <ele>-91.25</ele>
        <time>2012-03-31T13:31:46Z</time>
      </trkpt>
      <trkpt lat="47.27138" lon="-1.62305">
        <ele>-89.75</ele>
        <time>2012-03-31T13:31:49Z</time>
      </trkpt>
      <trkpt lat="47.27147" lon="-1.62312">
        <ele>-89</ele>
        <time>2012-03-31T13:31:52Z</time>
      </trkpt>
      <trkpt lat="47.27158" lon="-1.62319">
        <ele>-88.5</ele>
        <time>2012-03-31T13:31:55Z</time>
      </trkpt>
      <trkpt lat="47.27167" lon="-1.62325">
        <ele>-88</ele>
        <time>2012-03-31T13:31:59Z</time>
      </trkpt>
      <trkpt lat="47.27177" lon="-1.6233">
        <ele>-89.75</ele>
        <time>2012-03-31T13:32:02Z</time>
      </trkpt>
      <trkpt lat="47.2719" lon="-1.62332">
        <ele>-89.25</ele>
        <time>2012-03-31T13:32:05Z</time>
      </trkpt>
      <trkpt lat="47.27201" lon="-1.62333">
        <ele>-87</ele>
        <time>2012-03-31T13:32:07Z</time>
      </trkpt>
      <trkpt lat="47.27211" lon="-1.62336">
        <ele>-84.5</ele>
        <time>2012-03-31T13:32:10Z</time>
      </trkpt>
      <trkpt lat="47.27221" lon="-1.6234">
        <ele>-82.5</ele>
        <time>2012-03-31T13:32:12Z</time>
      </trkpt>
      <trkpt lat="47.27232" lon="-1.62344">
        <ele>-81.25</ele>
        <time>2012-03-31T13:32:14Z</time>
      </trkpt>
      <trkpt lat="47.27245" lon="-1.62347">
        <ele>-81</ele>
        <time>2012-03-31T13:32:16Z</time>
      </trkpt>
      <trkpt lat="47.27257" lon="-1.62351">
        <ele>-81</ele>
        <time>2012-03-31T13:32:18Z</time>
      </trkpt>
      <trkpt lat="47.27268" lon="-1.62356">
        <ele>-80.75</ele>
        <time>2012-03-31T13:32:21Z</time>
      </trkpt>
      <trkpt lat="47.27279" lon="-1.62362">
        <ele>-80.25</ele>
        <time>2012-03-31T13:32:23Z</time>
      </trkpt>
      <trkpt lat="47.27292" lon="-1.6237">
        <ele>-78.75</ele>
        <time>2012-03-31T13:32:25Z</time>
      </trkpt>
      <trkpt lat="47.27304" lon="-1.62378">
        <ele>-77</ele>
        <time>2012-03-31T13:32:27Z</time>
      </trkpt>
      <trkpt lat="47.27313" lon="-1.62385">
        <ele>-76.25</ele>
        <time>2012-03-31T13:32:30Z</time>
      </trkpt>
      <trkpt lat="47.27322" lon="-1.62392">
        <ele>-75.5</ele>
        <time>2012-03-31T13:32:32Z</time>
      </trkpt>
      <trkpt lat="47.27331" lon="-1.62399">
        <ele>-75</ele>
        <time>2012-03-31T13:32:34Z</time>
      </trkpt>
      <trkpt lat="47.27341" lon="-1.62409">
        <ele>-75</ele>
        <time>2012-03-31T13:32:36Z</time>
      </trkpt>
      <trkpt lat="47.27353" lon="-1.62418">
        <ele>-75.5</ele>
        <time>2012-03-31T13:32:38Z</time>
      </trkpt>
      <trkpt lat="47.27361" lon="-1.62423">
        <ele>-76</ele>
        <time>2012-03-31T13:32:41Z</time>
      </trkpt>
      <trkpt lat="47.27375" lon="-1.62429">
        <ele>-75.75</ele>
        <time>2012-03-31T13:32:44Z</time>
      </trkpt>
      <trkpt lat="47.27386" lon="-1.62435">
        <ele>-75.25</ele>
        <time>2012-03-31T13:32:46Z</time>
      </trkpt>
      <trkpt lat="47.27396" lon="-1.6244">
        <ele>-74.5</ele>
        <time>2012-03-31T13:32:48Z</time>
      </trkpt>
      <trkpt lat="47.27404" lon="-1.62444">
        <ele>-74</ele>
        <time>2012-03-31T13:32:51Z</time>
      </trkpt>
      <trkpt lat="47.27414" lon="-1.62448">
        <ele>-73.75</ele>
        <time>2012-03-31T13:32:53Z</time>
      </trkpt>
      <trkpt lat="47.27424" lon="-1.62454">
        <ele>-73.25</ele>
        <time>2012-03-31T13:32:55Z</time>
      </trkpt>
      <trkpt lat="47.27433" lon="-1.6246">
        <ele>-73.25</ele>
        <time>2012-03-31T13:32:57Z</time>
      </trkpt>
      <trkpt lat="47.27442" lon="-1.62465">
        <ele>-73.75</ele>
        <time>2012-03-31T13:32:59Z</time>
      </trkpt>
      <trkpt lat="47.27451" lon="-1.6247">
        <ele>-74.5</ele>
        <time>2012-03-31T13:33:02Z</time>
      </trkpt>
      <trkpt lat="47.27462" lon="-1.62476">
        <ele>-75.75</ele>
        <time>2012-03-31T13:33:05Z</time>
      </trkpt>
      <trkpt lat="47.2747" lon="-1.62481">
        <ele>-77</ele>
        <time>2012-03-31T13:33:07Z</time>
      </trkpt>
      <trkpt lat="47.27479" lon="-1.62486">
        <ele>-78.25</ele>
        <time>2012-03-31T13:33:09Z</time>
      </trkpt>
      <trkpt lat="47.27488" lon="-1.6249">
        <ele>-78.5</ele>
        <time>2012-03-31T13:33:11Z</time>
      </trkpt>
      <trkpt lat="47.27498" lon="-1.62495">
        <ele>-78.25</ele>
        <time>2012-03-31T13:33:14Z</time>
      </trkpt>
      <trkpt lat="47.2751" lon="-1.625">
        <ele>-77.25</ele>
        <time>2012-03-31T13:33:17Z</time>
      </trkpt>
      <trkpt lat="47.27521" lon="-1.62504">
        <ele>-77.25</ele>
        <time>2012-03-31T13:33:19Z</time>
      </trkpt>
      <trkpt lat="47.27532" lon="-1.62508">
        <ele>-77.25</ele>
        <time>2012-03-31T13:33:21Z</time>
      </trkpt>
      <trkpt lat="47.27544" lon="-1.62511">
        <ele>-75</ele>
        <time>2012-03-31T13:33:25Z</time>
      </trkpt>
      <trkpt lat="47.27555" lon="-1.6251">
        <ele>-74.25</ele>
        <time>2012-03-31T13:33:28Z</time>
      </trkpt>
      <trkpt lat="47.27567" lon="-1.62506">
        <ele>-75.5</ele>
        <time>2012-03-31T13:33:31Z</time>
      </trkpt>
      <trkpt lat="47.27578" lon="-1.62499">
        <ele>-78.75</ele>
        <time>2012-03-31T13:33:36Z</time>
      </trkpt>
      <trkpt lat="47.27588" lon="-1.62493">
        <ele>-82.5</ele>
        <time>2012-03-31T13:33:39Z</time>
      </trkpt>
      <trkpt lat="47.27596" lon="-1.62485">
        <ele>-89</ele>
        <time>2012-03-31T13:33:42Z</time>
      </trkpt>
      <trkpt lat="47.27605" lon="-1.62481">
        <ele>-90.75</ele>
        <time>2012-03-31T13:33:46Z</time>
      </trkpt>
      <trkpt lat="47.27616" lon="-1.62477">
        <ele>-91</ele>
        <time>2012-03-31T13:33:49Z</time>
      </trkpt>
      <trkpt lat="47.27625" lon="-1.62474">
        <ele>-96.25</ele>
        <time>2012-03-31T13:33:55Z</time>
      </trkpt>
      <trkpt lat="47.27633" lon="-1.62468">
        <ele>-100.5</ele>
        <time>2012-03-31T13:34:00Z</time>
      </trkpt>
      <trkpt lat="47.27644" lon="-1.62463">
        <ele>-104.5</ele>
        <time>2012-03-31T13:34:07Z</time>
      </trkpt>
      <trkpt lat="47.27652" lon="-1.62459">
        <ele>-105.75</ele>
        <time>2012-03-31T13:34:11Z</time>
      </trkpt>
      <trkpt lat="47.27662" lon="-1.62453">
        <ele>-105.5</ele>
        <time>2012-03-31T13:34:16Z</time>
      </trkpt>
      <trkpt lat="47.27672" lon="-1.62447">
        <ele>-105.5</ele>
        <time>2012-03-31T13:34:20Z</time>
      </trkpt>
      <trkpt lat="47.27682" lon="-1.62442">
        <ele>-104</ele>
        <time>2012-03-31T13:34:25Z</time>
      </trkpt>
      <trkpt lat="47.27694" lon="-1.62438">
        <ele>-103.5</ele>
        <time>2012-03-31T13:34:29Z</time>
      </trkpt>
      <trkpt lat="47.27703" lon="-1.62433">
        <ele>-100</ele>
        <time>2012-03-31T13:34:31Z</time>
      </trkpt>
      <trkpt lat="47.27713" lon="-1.62426">
        <ele>-96.5</ele>
        <time>2012-03-31T13:34:33Z</time>
      </trkpt>
      <trkpt lat="47.27723" lon="-1.62419">
        <ele>-93.25</ele>
        <time>2012-03-31T13:34:36Z</time>
      </trkpt>
      <trkpt lat="47.27732" lon="-1.62413">
        <ele>-91.75</ele>
        <time>2012-03-31T13:34:38Z</time>
      </trkpt>
      <trkpt lat="47.27745" lon="-1.62406">
        <ele>-90.5</ele>
        <time>2012-03-31T13:34:40Z</time>
      </trkpt>
      <trkpt lat="47.2776" lon="-1.62398">
        <ele>-87</ele>
        <time>2012-03-31T13:34:42Z</time>
      </trkpt>
      <trkpt lat="47.27771" lon="-1.62396">
        <ele>-83</ele>
        <time>2012-03-31T13:34:45Z</time>
      </trkpt>
      <trkpt lat="47.27784" lon="-1.62397">
        <ele>-79.5</ele>
        <time>2012-03-31T13:34:47Z</time>
      </trkpt>
      <trkpt lat="47.27799" lon="-1.62399">
        <ele>-76.25</ele>
        <time>2012-03-31T13:34:49Z</time>
      </trkpt>
      <trkpt lat="47.27812" lon="-1.62402">
        <ele>-74</ele>
        <time>2012-03-31T13:34:51Z</time>
      </trkpt>
      <trkpt lat="47.27822" lon="-1.62404">
        <ele>-74.5</ele>
        <time>2012-03-31T13:34:53Z</time>
      </trkpt>
      <trkpt lat="47.27831" lon="-1.62405">
        <ele>-75.25</ele>
        <time>2012-03-31T13:34:56Z</time>
      </trkpt>
      <trkpt lat="47.2784" lon="-1.62406">
        <ele>-74.75</ele>
        <time>2012-03-31T13:34:58Z</time>
      </trkpt>
      <trkpt lat="47.2785" lon="-1.62406">
        <ele>-75.25</ele>
        <time>2012-03-31T13:35:00Z</time>
      </trkpt>
      <trkpt lat="47.27865" lon="-1.62408">
        <ele>-75.5</ele>
        <time>2012-03-31T13:35:02Z</time>
      </trkpt>
      <trkpt lat="47.27875" lon="-1.62409">
        <ele>-75.25</ele>
        <time>2012-03-31T13:35:03Z</time>
      </trkpt>
      <trkpt lat="47.27885" lon="-1.6241">
        <ele>-75</ele>
        <time>2012-03-31T13:35:04Z</time>
      </trkpt>
      <trkpt lat="47.27901" lon="-1.6241">
        <ele>-75.25</ele>
        <time>2012-03-31T13:35:06Z</time>
      </trkpt>
      <trkpt lat="47.27915" lon="-1.62407">
        <ele>-76</ele>
        <time>2012-03-31T13:35:09Z</time>
      </trkpt>
      <trkpt lat="47.27928" lon="-1.62403">
        <ele>-76.25</ele>
        <time>2012-03-31T13:35:11Z</time>
      </trkpt>
      <trkpt lat="47.27942" lon="-1.62395">
        <ele>-75.5</ele>
        <time>2012-03-31T13:35:13Z</time>
      </trkpt>
      <trkpt lat="47.27955" lon="-1.62383">
        <ele>-74.25</ele>
        <time>2012-03-31T13:35:15Z</time>
      </trkpt>
      <trkpt lat="47.27964" lon="-1.62369">
        <ele>-73.75</ele>
        <time>2012-03-31T13:35:17Z</time>
      </trkpt>
      <trkpt lat="47.27967" lon="-1.62354">
        <ele>-73.75</ele>
        <time>2012-03-31T13:35:19Z</time>
      </trkpt>
      <trkpt lat="47.27965" lon="-1.62341">
        <ele>-74.75</ele>
        <time>2012-03-31T13:35:22Z</time>
      </trkpt>
      <trkpt lat="47.2796" lon="-1.62328">
        <ele>-77.25</ele>
        <time>2012-03-31T13:35:24Z</time>
      </trkpt>
      <trkpt lat="47.27955" lon="-1.62315">
        <ele>-79</ele>
        <time>2012-03-31T13:35:26Z</time>
      </trkpt>
      <trkpt lat="47.27949" lon="-1.62297">
        <ele>-79.25</ele>
        <time>2012-03-31T13:35:28Z</time>
      </trkpt>
      <trkpt lat="47.27945" lon="-1.62277">
        <ele>-80</ele>
        <time>2012-03-31T13:35:30Z</time>
      </trkpt>
      <trkpt lat="47.27942" lon="-1.62259">
        <ele>-82.25</ele>
        <time>2012-03-31T13:35:33Z</time>
      </trkpt>
      <trkpt lat="47.27941" lon="-1.62246">
        <ele>-84</ele>
        <time>2012-03-31T13:35:35Z</time>
      </trkpt>
      <trkpt lat="47.2794" lon="-1.6223">
        <ele>-84.75</ele>
        <time>2012-03-31T13:35:38Z</time>
      </trkpt>
      <trkpt lat="47.27941" lon="-1.62215">
        <ele>-82.5</ele>
        <time>2012-03-31T13:35:40Z</time>
      </trkpt>
      <trkpt lat="47.27943" lon="-1.62201">
        <ele>-81.5</ele>
        <time>2012-03-31T13:35:42Z</time>
      </trkpt>
      <trkpt lat="47.27946" lon="-1.62184">
        <ele>-80</ele>
        <time>2012-03-31T13:35:46Z</time>
      </trkpt>
      <trkpt lat="47.27951" lon="-1.62167">
        <ele>-77</ele>
        <time>2012-03-31T13:35:49Z</time>
      </trkpt>
      <trkpt lat="47.27954" lon="-1.62151">
        <ele>-76.25</ele>
        <time>2012-03-31T13:35:52Z</time>
      </trkpt>
      <trkpt lat="47.27958" lon="-1.62139">
        <ele>-75.75</ele>
        <time>2012-03-31T13:35:56Z</time>
      </trkpt>
      <trkpt lat="47.27964" lon="-1.62123">
        <ele>-77.5</ele>
        <time>2012-03-31T13:36:00Z</time>
      </trkpt>
      <trkpt lat="47.27971" lon="-1.62111">
        <ele>-77.5</ele>
        <time>2012-03-31T13:36:03Z</time>
      </trkpt>
      <trkpt lat="47.27981" lon="-1.62103">
        <ele>-75.75</ele>
        <time>2012-03-31T13:36:08Z</time>
      </trkpt>
      <trkpt lat="47.27992" lon="-1.62097">
        <ele>-75</ele>
        <time>2012-03-31T13:36:11Z</time>
      </trkpt>
      <trkpt lat="47.28003" lon="-1.62092">
        <ele>-76</ele>
        <time>2012-03-31T13:36:14Z</time>
      </trkpt>
      <trkpt lat="47.28012" lon="-1.62086">
        <ele>-76.75</ele>
        <time>2012-03-31T13:36:18Z</time>
      </trkpt>
      <trkpt lat="47.28022" lon="-1.62076">
        <ele>-79.5</ele>
        <time>2012-03-31T13:36:22Z</time>
      </trkpt>
      <trkpt lat="47.2803" lon="-1.62067">
        <ele>-82.75</ele>
        <time>2012-03-31T13:36:25Z</time>
      </trkpt>
      <trkpt lat="47.28037" lon="-1.62056">
        <ele>-86.25</ele>
        <time>2012-03-31T13:36:31Z</time>
      </trkpt>
      <trkpt lat="47.28044" lon="-1.62044">
        <ele>-85.75</ele>
        <time>2012-03-31T13:36:34Z</time>
      </trkpt>
      <trkpt lat="47.28049" lon="-1.62032">
        <ele>-86.25</ele>
        <time>2012-03-31T13:36:37Z</time>
      </trkpt>
      <trkpt lat="47.28055" lon="-1.62021">
        <ele>-84.75</ele>
        <time>2012-03-31T13:36:42Z</time>
      </trkpt>
      <trkpt lat="47.28062" lon="-1.62005">
        <ele>-84</ele>
        <time>2012-03-31T13:36:46Z</time>
      </trkpt>
      <trkpt lat="47.2807" lon="-1.61991">
        <ele>-83</ele>
        <time>2012-03-31T13:36:50Z</time>
      </trkpt>
      <trkpt lat="47.28078" lon="-1.61978">
        <ele>-81</ele>
        <time>2012-03-31T13:36:53Z</time>
      </trkpt>
      <trkpt lat="47.28084" lon="-1.61967">
        <ele>-81</ele>
        <time>2012-03-31T13:36:56Z</time>
      </trkpt>
      <trkpt lat="47.28092" lon="-1.61953">
        <ele>-83.25</ele>
        <time>2012-03-31T13:36:59Z</time>
      </trkpt>
      <trkpt lat="47.281" lon="-1.61938">
        <ele>-85.25</ele>
        <time>2012-03-31T13:37:03Z</time>
      </trkpt>
      <trkpt lat="47.28109" lon="-1.61924">
        <ele>-87.5</ele>
        <time>2012-03-31T13:37:06Z</time>
      </trkpt>
      <trkpt lat="47.28119" lon="-1.61911">
        <ele>-90.5</ele>
        <time>2012-03-31T13:37:09Z</time>
      </trkpt>
      <trkpt lat="47.28128" lon="-1.619">
        <ele>-90</ele>
        <time>2012-03-31T13:37:13Z</time>
      </trkpt>
      <trkpt lat="47.28138" lon="-1.61892">
        <ele>-93</ele>
        <time>2012-03-31T13:37:17Z</time>
      </trkpt>
      <trkpt lat="47.28147" lon="-1.61882">
        <ele>-99</ele>
        <time>2012-03-31T13:37:21Z</time>
      </trkpt>
      <trkpt lat="47.28155" lon="-1.61874">
        <ele>-103.25</ele>
        <time>2012-03-31T13:37:27Z</time>
      </trkpt>
      <trkpt lat="47.28165" lon="-1.61866">
        <ele>-101.75</ele>
        <time>2012-03-31T13:37:31Z</time>
      </trkpt>
      <trkpt lat="47.28175" lon="-1.61859">
        <ele>-97.75</ele>
        <time>2012-03-31T13:37:35Z</time>
      </trkpt>
      <trkpt lat="47.28184" lon="-1.61852">
        <ele>-95</ele>
        <time>2012-03-31T13:37:38Z</time>
      </trkpt>
      <trkpt lat="47.28195" lon="-1.61844">
        <ele>-92</ele>
        <time>2012-03-31T13:37:41Z</time>
      </trkpt>
      <trkpt lat="47.28205" lon="-1.61836">
        <ele>-90.75</ele>
        <time>2012-03-31T13:37:45Z</time>
      </trkpt>
      <trkpt lat="47.28216" lon="-1.61828">
        <ele>-93</ele>
        <time>2012-03-31T13:37:49Z</time>
      </trkpt>
      <trkpt lat="47.28226" lon="-1.61819">
        <ele>-93.75</ele>
        <time>2012-03-31T13:37:52Z</time>
      </trkpt>
      <trkpt lat="47.28235" lon="-1.6181">
        <ele>-94</ele>
        <time>2012-03-31T13:37:56Z</time>
      </trkpt>
      <trkpt lat="47.28244" lon="-1.61801">
        <ele>-95.25</ele>
        <time>2012-03-31T13:37:59Z</time>
      </trkpt>
      <trkpt lat="47.28254" lon="-1.61791">
        <ele>-96</ele>
        <time>2012-03-31T13:38:02Z</time>
      </trkpt>
      <trkpt lat="47.28262" lon="-1.61783">
        <ele>-96</ele>
        <time>2012-03-31T13:38:04Z</time>
      </trkpt>
      <trkpt lat="47.28271" lon="-1.61775">
        <ele>-96</ele>
        <time>2012-03-31T13:38:06Z</time>
      </trkpt>
      <trkpt lat="47.2828" lon="-1.61767">
        <ele>-96.75</ele>
        <time>2012-03-31T13:38:10Z</time>
      </trkpt>
      <trkpt lat="47.28289" lon="-1.61759">
        <ele>-97.5</ele>
        <time>2012-03-31T13:38:13Z</time>
      </trkpt>
      <trkpt lat="47.28298" lon="-1.6175">
        <ele>-98.75</ele>
        <time>2012-03-31T13:38:16Z</time>
      </trkpt>
      <trkpt lat="47.2831" lon="-1.61741">
        <ele>-99.25</ele>
        <time>2012-03-31T13:38:20Z</time>
      </trkpt>
      <trkpt lat="47.2832" lon="-1.61731">
        <ele>-100</ele>
        <time>2012-03-31T13:38:23Z</time>
      </trkpt>
      <trkpt lat="47.28331" lon="-1.61721">
        <ele>-100</ele>
        <time>2012-03-31T13:38:26Z</time>
      </trkpt>
      <trkpt lat="47.2834" lon="-1.61712">
        <ele>-99.5</ele>
        <time>2012-03-31T13:38:31Z</time>
      </trkpt>
      <trkpt lat="47.28349" lon="-1.61704">
        <ele>-106</ele>
        <time>2012-03-31T13:40:49Z</time>
      </trkpt>
      <trkpt lat="47.2836" lon="-1.61695">
        <ele>-106.25</ele>
        <time>2012-03-31T13:40:53Z</time>
      </trkpt>
      <trkpt lat="47.28369" lon="-1.61687">
        <ele>-105.25</ele>
        <time>2012-03-31T13:40:55Z</time>
      </trkpt>
      <trkpt lat="47.28377" lon="-1.6168">
        <ele>-104.25</ele>
        <time>2012-03-31T13:40:58Z</time>
      </trkpt>
      <trkpt lat="47.28388" lon="-1.61671">
        <ele>-102.25</ele>
        <time>2012-03-31T13:41:01Z</time>
      </trkpt>
      <trkpt lat="47.28398" lon="-1.61663">
        <ele>-102</ele>
        <time>2012-03-31T13:41:04Z</time>
      </trkpt>
      <trkpt lat="47.28406" lon="-1.61655">
        <ele>-101.25</ele>
        <time>2012-03-31T13:41:08Z</time>
      </trkpt>
      <trkpt lat="47.28414" lon="-1.61647">
        <ele>-100.25</ele>
        <time>2012-03-31T13:41:12Z</time>
      </trkpt>
      <trkpt lat="47.28423" lon="-1.61638">
        <ele>-100</ele>
        <time>2012-03-31T13:41:17Z</time>
      </trkpt>
      <trkpt lat="47.28436" lon="-1.61628">
        <ele>-99.5</ele>
        <time>2012-03-31T13:41:21Z</time>
      </trkpt>
      <trkpt lat="47.28448" lon="-1.61622">
        <ele>-99.25</ele>
        <time>2012-03-31T13:41:23Z</time>
      </trkpt>
      <trkpt lat="47.28461" lon="-1.61619">
        <ele>-100.25</ele>
        <time>2012-03-31T13:41:25Z</time>
      </trkpt>
      <trkpt lat="47.28473" lon="-1.61617">
        <ele>-101.75</ele>
        <time>2012-03-31T13:41:28Z</time>
      </trkpt>
      <trkpt lat="47.28485" lon="-1.61615">
        <ele>-103.5</ele>
        <time>2012-03-31T13:41:30Z</time>
      </trkpt>
      <trkpt lat="47.28498" lon="-1.61609">
        <ele>-105</ele>
        <time>2012-03-31T13:41:32Z</time>
      </trkpt>
      <trkpt lat="47.28511" lon="-1.61599">
        <ele>-106</ele>
        <time>2012-03-31T13:41:34Z</time>
      </trkpt>
      <trkpt lat="47.28521" lon="-1.61589">
        <ele>-106.75</ele>
        <time>2012-03-31T13:41:37Z</time>
      </trkpt>
      <trkpt lat="47.28528" lon="-1.61578">
        <ele>-107</ele>
        <time>2012-03-31T13:41:39Z</time>
      </trkpt>
      <trkpt lat="47.28535" lon="-1.61566">
        <ele>-107.25</ele>
        <time>2012-03-31T13:41:41Z</time>
      </trkpt>
      <trkpt lat="47.28545" lon="-1.61551">
        <ele>-108.5</ele>
        <time>2012-03-31T13:41:43Z</time>
      </trkpt>
      <trkpt lat="47.28557" lon="-1.61534">
        <ele>-108</ele>
        <time>2012-03-31T13:41:45Z</time>
      </trkpt>
      <trkpt lat="47.28569" lon="-1.61519">
        <ele>-105.25</ele>
        <time>2012-03-31T13:41:47Z</time>
      </trkpt>
      <trkpt lat="47.28578" lon="-1.61507">
        <ele>-104.75</ele>
        <time>2012-03-31T13:41:50Z</time>
      </trkpt>
      <trkpt lat="47.28586" lon="-1.61496">
        <ele>-104.75</ele>
        <time>2012-03-31T13:41:52Z</time>
      </trkpt>
      <trkpt lat="47.28595" lon="-1.61485">
        <ele>-103</ele>
        <time>2012-03-31T13:41:54Z</time>
      </trkpt>
      <trkpt lat="47.28605" lon="-1.61475">
        <ele>-102</ele>
        <time>2012-03-31T13:41:57Z</time>
      </trkpt>
      <trkpt lat="47.28613" lon="-1.61468">
        <ele>-101.5</ele>
        <time>2012-03-31T13:41:59Z</time>
      </trkpt>
      <trkpt lat="47.28622" lon="-1.6146">
        <ele>-100.75</ele>
        <time>2012-03-31T13:42:02Z</time>
      </trkpt>
      <trkpt lat="47.28635" lon="-1.61452">
        <ele>-102</ele>
        <time>2012-03-31T13:42:05Z</time>
      </trkpt>
      <trkpt lat="47.28645" lon="-1.61445">
        <ele>-102.75</ele>
        <time>2012-03-31T13:42:09Z</time>
      </trkpt>
      <trkpt lat="47.28655" lon="-1.61438">
        <ele>-103</ele>
        <time>2012-03-31T13:42:12Z</time>
      </trkpt>
      <trkpt lat="47.28664" lon="-1.61432">
        <ele>-103.25</ele>
        <time>2012-03-31T13:42:14Z</time>
      </trkpt>
      <trkpt lat="47.28672" lon="-1.61426">
        <ele>-103.5</ele>
        <time>2012-03-31T13:42:16Z</time>
      </trkpt>
      <trkpt lat="47.28682" lon="-1.61419">
        <ele>-103</ele>
        <time>2012-03-31T13:42:20Z</time>
      </trkpt>
      <trkpt lat="47.28691" lon="-1.61412">
        <ele>-103.25</ele>
        <time>2012-03-31T13:42:23Z</time>
      </trkpt>
      <trkpt lat="47.28701" lon="-1.61402">
        <ele>-103</ele>
        <time>2012-03-31T13:42:26Z</time>
      </trkpt>
      <trkpt lat="47.2871" lon="-1.61392">
        <ele>-103</ele>
        <time>2012-03-31T13:42:30Z</time>
      </trkpt>
      <trkpt lat="47.28717" lon="-1.61383">
        <ele>-102.75</ele>
        <time>2012-03-31T13:42:33Z</time>
      </trkpt>
      <trkpt lat="47.28726" lon="-1.6137">
        <ele>-101.75</ele>
        <time>2012-03-31T13:42:36Z</time>
      </trkpt>
      <trkpt lat="47.28733" lon="-1.61361">
        <ele>-102</ele>
        <time>2012-03-31T13:42:38Z</time>
      </trkpt>
      <trkpt lat="47.28741" lon="-1.61347">
        <ele>-103.25</ele>
        <time>2012-03-31T13:42:42Z</time>
      </trkpt>
      <trkpt lat="47.28748" lon="-1.61337">
        <ele>-104.5</ele>
        <time>2012-03-31T13:42:44Z</time>
      </trkpt>
      <trkpt lat="47.28755" lon="-1.61326">
        <ele>-105.5</ele>
        <time>2012-03-31T13:42:46Z</time>
      </trkpt>
      <trkpt lat="47.28762" lon="-1.61313">
        <ele>-105.75</ele>
        <time>2012-03-31T13:42:48Z</time>
      </trkpt>
      <trkpt lat="47.28769" lon="-1.61301">
        <ele>-106.5</ele>
        <time>2012-03-31T13:42:51Z</time>
      </trkpt>
      <trkpt lat="47.28777" lon="-1.61287">
        <ele>-108</ele>
        <time>2012-03-31T13:42:54Z</time>
      </trkpt>
      <trkpt lat="47.28786" lon="-1.61272">
        <ele>-109</ele>
        <time>2012-03-31T13:42:57Z</time>
      </trkpt>
      <trkpt lat="47.28792" lon="-1.61261">
        <ele>-109</ele>
        <time>2012-03-31T13:42:59Z</time>
      </trkpt>
      <trkpt lat="47.288" lon="-1.61249">
        <ele>-109.5</ele>
        <time>2012-03-31T13:43:03Z</time>
      </trkpt>
      <trkpt lat="47.28807" lon="-1.61236">
        <ele>-109.75</ele>
        <time>2012-03-31T13:43:06Z</time>
      </trkpt>
      <trkpt lat="47.28815" lon="-1.61222">
        <ele>-110.25</ele>
        <time>2012-03-31T13:43:09Z</time>
      </trkpt>
      <trkpt lat="47.28824" lon="-1.61208">
        <ele>-110.75</ele>
        <time>2012-03-31T13:43:12Z</time>
      </trkpt>
      <trkpt lat="47.28831" lon="-1.61196">
        <ele>-110.25</ele>
        <time>2012-03-31T13:43:16Z</time>
      </trkpt>
      <trkpt lat="47.28838" lon="-1.61183">
        <ele>-111</ele>
        <time>2012-03-31T13:43:19Z</time>
      </trkpt>
      <trkpt lat="47.28847" lon="-1.61168">
        <ele>-111</ele>
        <time>2012-03-31T13:43:22Z</time>
      </trkpt>
      <trkpt lat="47.28854" lon="-1.61155">
        <ele>-111.25</ele>
        <time>2012-03-31T13:43:26Z</time>
      </trkpt>
      <trkpt lat="47.28862" lon="-1.61142">
        <ele>-112.25</ele>
        <time>2012-03-31T13:43:29Z</time>
      </trkpt>
      <trkpt lat="47.28871" lon="-1.61127">
        <ele>-113</ele>
        <time>2012-03-31T13:43:32Z</time>
      </trkpt>
      <trkpt lat="47.28877" lon="-1.61117">
        <ele>-113</ele>
        <time>2012-03-31T13:43:34Z</time>
      </trkpt>
      <trkpt lat="47.28883" lon="-1.61105">
        <ele>-113</ele>
        <time>2012-03-31T13:43:38Z</time>
      </trkpt>
      <trkpt lat="47.28892" lon="-1.61092">
        <ele>-112.5</ele>
        <time>2012-03-31T13:43:41Z</time>
      </trkpt>
      <trkpt lat="47.28898" lon="-1.61081">
        <ele>-111.75</ele>
        <time>2012-03-31T13:43:43Z</time>
      </trkpt>
      <trkpt lat="47.28906" lon="-1.61067">
        <ele>-111</ele>
        <time>2012-03-31T13:43:45Z</time>
      </trkpt>
      <trkpt lat="47.28914" lon="-1.61054">
        <ele>-110.25</ele>
        <time>2012-03-31T13:43:47Z</time>
      </trkpt>
      <trkpt lat="47.2892" lon="-1.61044">
        <ele>-110</ele>
        <time>2012-03-31T13:43:50Z</time>
      </trkpt>
      <trkpt lat="47.28929" lon="-1.6103">
        <ele>-110</ele>
        <time>2012-03-31T13:43:53Z</time>
      </trkpt>
      <trkpt lat="47.28935" lon="-1.61019">
        <ele>-110.5</ele>
        <time>2012-03-31T13:43:55Z</time>
      </trkpt>
      <trkpt lat="47.28943" lon="-1.61006">
        <ele>-111.25</ele>
        <time>2012-03-31T13:43:59Z</time>
      </trkpt>
      <trkpt lat="47.28949" lon="-1.60994">
        <ele>-111.75</ele>
        <time>2012-03-31T13:44:02Z</time>
      </trkpt>
      <trkpt lat="47.28957" lon="-1.60981">
        <ele>-112.25</ele>
        <time>2012-03-31T13:44:05Z</time>
      </trkpt>
      <trkpt lat="47.28964" lon="-1.60968">
        <ele>-113.5</ele>
        <time>2012-03-31T13:44:10Z</time>
      </trkpt>
      <trkpt lat="47.28971" lon="-1.60956">
        <ele>-114</ele>
        <time>2012-03-31T13:44:13Z</time>
      </trkpt>
      <trkpt lat="47.28979" lon="-1.60942">
        <ele>-113.5</ele>
        <time>2012-03-31T13:44:16Z</time>
      </trkpt>
      <trkpt lat="47.28985" lon="-1.60932">
        <ele>-113</ele>
        <time>2012-03-31T13:44:18Z</time>
      </trkpt>
      <trkpt lat="47.28991" lon="-1.60921">
        <ele>-113</ele>
        <time>2012-03-31T13:44:21Z</time>
      </trkpt>
      <trkpt lat="47.28997" lon="-1.60911">
        <ele>-112.75</ele>
        <time>2012-03-31T13:44:23Z</time>
      </trkpt>
      <trkpt lat="47.29003" lon="-1.609">
        <ele>-113</ele>
        <time>2012-03-31T13:44:25Z</time>
      </trkpt>
      <trkpt lat="47.29012" lon="-1.60885">
        <ele>-114.25</ele>
        <time>2012-03-31T13:44:28Z</time>
      </trkpt>
      <trkpt lat="47.2902" lon="-1.60871">
        <ele>-115</ele>
        <time>2012-03-31T13:44:32Z</time>
      </trkpt>
      <trkpt lat="47.29027" lon="-1.60859">
        <ele>-115</ele>
        <time>2012-03-31T13:44:35Z</time>
      </trkpt>
      <trkpt lat="47.29035" lon="-1.60847">
        <ele>-115</ele>
        <time>2012-03-31T13:44:38Z</time>
      </trkpt>
      <trkpt lat="47.29041" lon="-1.60836">
        <ele>-114.25</ele>
        <time>2012-03-31T13:44:41Z</time>
      </trkpt>
      <trkpt lat="47.29047" lon="-1.60826">
        <ele>-112</ele>
        <time>2012-03-31T13:44:55Z</time>
      </trkpt>
      <trkpt lat="47.29044" lon="-1.60842">
        <ele>-112.75</ele>
        <time>2012-03-31T13:46:18Z</time>
      </trkpt>
      <trkpt lat="47.29038" lon="-1.60852">
        <ele>-113.25</ele>
        <time>2012-03-31T13:46:20Z</time>
      </trkpt>
      <trkpt lat="47.29031" lon="-1.60863">
        <ele>-114.25</ele>
        <time>2012-03-31T13:46:22Z</time>
      </trkpt>
      <trkpt lat="47.29023" lon="-1.60876">
        <ele>-115.75</ele>
        <time>2012-03-31T13:46:25Z</time>
      </trkpt>
      <trkpt lat="47.29016" lon="-1.6089">
        <ele>-116.75</ele>
        <time>2012-03-31T13:46:27Z</time>
      </trkpt>
      <trkpt lat="47.29009" lon="-1.60902">
        <ele>-117.25</ele>
        <time>2012-03-31T13:46:29Z</time>
      </trkpt>
      <trkpt lat="47.29002" lon="-1.60913">
        <ele>-117.75</ele>
        <time>2012-03-31T13:46:31Z</time>
      </trkpt>
      <trkpt lat="47.28995" lon="-1.60927">
        <ele>-118</ele>
        <time>2012-03-31T13:46:33Z</time>
      </trkpt>
      <trkpt lat="47.28987" lon="-1.6094">
        <ele>-118</ele>
        <time>2012-03-31T13:46:35Z</time>
      </trkpt>
      <trkpt lat="47.28981" lon="-1.6095">
        <ele>-117.5</ele>
        <time>2012-03-31T13:46:38Z</time>
      </trkpt>
      <trkpt lat="47.28974" lon="-1.60961">
        <ele>-116.75</ele>
        <time>2012-03-31T13:46:40Z</time>
      </trkpt>
      <trkpt lat="47.28967" lon="-1.60973">
        <ele>-116</ele>
        <time>2012-03-31T13:46:42Z</time>
      </trkpt>
      <trkpt lat="47.2896" lon="-1.60985">
        <ele>-115</ele>
        <time>2012-03-31T13:46:44Z</time>
      </trkpt>
      <trkpt lat="47.28954" lon="-1.60997">
        <ele>-114.25</ele>
        <time>2012-03-31T13:46:47Z</time>
      </trkpt>
      <trkpt lat="47.28945" lon="-1.61011">
        <ele>-113.25</ele>
        <time>2012-03-31T13:46:50Z</time>
      </trkpt>
      <trkpt lat="47.28939" lon="-1.61022">
        <ele>-113.25</ele>
        <time>2012-03-31T13:46:52Z</time>
      </trkpt>
      <trkpt lat="47.28932" lon="-1.61034">
        <ele>-113.75</ele>
        <time>2012-03-31T13:46:54Z</time>
      </trkpt>
      <trkpt lat="47.28925" lon="-1.61046">
        <ele>-113.5</ele>
        <time>2012-03-31T13:46:56Z</time>
      </trkpt>
      <trkpt lat="47.28917" lon="-1.61058">
        <ele>-113.25</ele>
        <time>2012-03-31T13:46:58Z</time>
      </trkpt>
      <trkpt lat="47.28911" lon="-1.61069">
        <ele>-113.75</ele>
        <time>2012-03-31T13:47:01Z</time>
      </trkpt>
      <trkpt lat="47.28904" lon="-1.61081">
        <ele>-114</ele>
        <time>2012-03-31T13:47:03Z</time>
      </trkpt>
      <trkpt lat="47.28896" lon="-1.61095">
        <ele>-113.5</ele>
        <time>2012-03-31T13:47:05Z</time>
      </trkpt>
      <trkpt lat="47.28887" lon="-1.6111">
        <ele>-113</ele>
        <time>2012-03-31T13:47:07Z</time>
      </trkpt>
      <trkpt lat="47.28881" lon="-1.6112">
        <ele>-112.75</ele>
        <time>2012-03-31T13:47:08Z</time>
      </trkpt>
      <trkpt lat="47.28874" lon="-1.61131">
        <ele>-112.5</ele>
        <time>2012-03-31T13:47:09Z</time>
      </trkpt>
      <trkpt lat="47.28868" lon="-1.61142">
        <ele>-112.5</ele>
        <time>2012-03-31T13:47:10Z</time>
      </trkpt>
      <trkpt lat="47.28862" lon="-1.61152">
        <ele>-112.5</ele>
        <time>2012-03-31T13:47:11Z</time>
      </trkpt>
      <trkpt lat="47.28853" lon="-1.61168">
        <ele>-113.25</ele>
        <time>2012-03-31T13:47:14Z</time>
      </trkpt>
      <trkpt lat="47.28843" lon="-1.61184">
        <ele>-113.25</ele>
        <time>2012-03-31T13:47:16Z</time>
      </trkpt>
      <trkpt lat="47.28832" lon="-1.61203">
        <ele>-113</ele>
        <time>2012-03-31T13:47:18Z</time>
      </trkpt>
      <trkpt lat="47.28823" lon="-1.61219">
        <ele>-113.25</ele>
        <time>2012-03-31T13:47:20Z</time>
      </trkpt>
      <trkpt lat="47.28813" lon="-1.61236">
        <ele>-113.75</ele>
        <time>2012-03-31T13:47:22Z</time>
      </trkpt>
      <trkpt lat="47.28801" lon="-1.61256">
        <ele>-114</ele>
        <time>2012-03-31T13:47:25Z</time>
      </trkpt>
      <trkpt lat="47.28793" lon="-1.6127">
        <ele>-114</ele>
        <time>2012-03-31T13:47:27Z</time>
      </trkpt>
      <trkpt lat="47.28783" lon="-1.61286">
        <ele>-114</ele>
        <time>2012-03-31T13:47:29Z</time>
      </trkpt>
      <trkpt lat="47.28772" lon="-1.61305">
        <ele>-114.25</ele>
        <time>2012-03-31T13:47:31Z</time>
      </trkpt>
      <trkpt lat="47.28761" lon="-1.61322">
        <ele>-114.25</ele>
        <time>2012-03-31T13:47:34Z</time>
      </trkpt>
      <trkpt lat="47.28751" lon="-1.61339">
        <ele>-114</ele>
        <time>2012-03-31T13:47:36Z</time>
      </trkpt>
      <trkpt lat="47.28745" lon="-1.61349">
        <ele>-114</ele>
        <time>2012-03-31T13:47:37Z</time>
      </trkpt>
      <trkpt lat="47.28733" lon="-1.61367">
        <ele>-114</ele>
        <time>2012-03-31T13:47:39Z</time>
      </trkpt>
      <trkpt lat="47.28721" lon="-1.61383">
        <ele>-114</ele>
        <time>2012-03-31T13:47:41Z</time>
      </trkpt>
      <trkpt lat="47.2871" lon="-1.61396">
        <ele>-113.5</ele>
        <time>2012-03-31T13:47:44Z</time>
      </trkpt>
      <trkpt lat="47.28698" lon="-1.61408">
        <ele>-112.75</ele>
        <time>2012-03-31T13:47:46Z</time>
      </trkpt>
      <trkpt lat="47.2869" lon="-1.61415">
        <ele>-112.5</ele>
        <time>2012-03-31T13:47:47Z</time>
      </trkpt>
      <trkpt lat="47.28682" lon="-1.61421">
        <ele>-112</ele>
        <time>2012-03-31T13:47:48Z</time>
      </trkpt>
      <trkpt lat="47.28674" lon="-1.61428">
        <ele>-111.5</ele>
        <time>2012-03-31T13:47:49Z</time>
      </trkpt>
      <trkpt lat="47.28661" lon="-1.61437">
        <ele>-110.75</ele>
        <time>2012-03-31T13:47:51Z</time>
      </trkpt>
      <trkpt lat="47.28649" lon="-1.61446">
        <ele>-110.25</ele>
        <time>2012-03-31T13:47:54Z</time>
      </trkpt>
      <trkpt lat="47.2864" lon="-1.61451">
        <ele>-110</ele>
        <time>2012-03-31T13:47:55Z</time>
      </trkpt>
      <trkpt lat="47.28627" lon="-1.61461">
        <ele>-109.75</ele>
        <time>2012-03-31T13:47:57Z</time>
      </trkpt>
      <trkpt lat="47.28613" lon="-1.61472">
        <ele>-109</ele>
        <time>2012-03-31T13:47:59Z</time>
      </trkpt>
      <trkpt lat="47.28598" lon="-1.61486">
        <ele>-108.25</ele>
        <time>2012-03-31T13:48:01Z</time>
      </trkpt>
      <trkpt lat="47.28585" lon="-1.615">
        <ele>-108</ele>
        <time>2012-03-31T13:48:04Z</time>
      </trkpt>
      <trkpt lat="47.28574" lon="-1.61515">
        <ele>-107.5</ele>
        <time>2012-03-31T13:48:06Z</time>
      </trkpt>
      <trkpt lat="47.28563" lon="-1.61531">
        <ele>-106.75</ele>
        <time>2012-03-31T13:48:08Z</time>
      </trkpt>
      <trkpt lat="47.2855" lon="-1.61551">
        <ele>-106</ele>
        <time>2012-03-31T13:48:10Z</time>
      </trkpt>
      <trkpt lat="47.28543" lon="-1.61561">
        <ele>-105.5</ele>
        <time>2012-03-31T13:48:11Z</time>
      </trkpt>
      <trkpt lat="47.28537" lon="-1.61571">
        <ele>-105.5</ele>
        <time>2012-03-31T13:48:12Z</time>
      </trkpt>
      <trkpt lat="47.28525" lon="-1.61587">
        <ele>-105.5</ele>
        <time>2012-03-31T13:48:15Z</time>
      </trkpt>
      <trkpt lat="47.28515" lon="-1.61598">
        <ele>-105.5</ele>
        <time>2012-03-31T13:48:17Z</time>
      </trkpt>
      <trkpt lat="47.28504" lon="-1.61607">
        <ele>-105.25</ele>
        <time>2012-03-31T13:48:19Z</time>
      </trkpt>
      <trkpt lat="47.28491" lon="-1.61615">
        <ele>-105.25</ele>
        <time>2012-03-31T13:48:21Z</time>
      </trkpt>
      <trkpt lat="47.28477" lon="-1.6162">
        <ele>-106</ele>
        <time>2012-03-31T13:48:23Z</time>
      </trkpt>
      <trkpt lat="47.28464" lon="-1.61625">
        <ele>-106.5</ele>
        <time>2012-03-31T13:48:26Z</time>
      </trkpt>
      <trkpt lat="47.28453" lon="-1.61628">
        <ele>-106.75</ele>
        <time>2012-03-31T13:48:28Z</time>
      </trkpt>
      <trkpt lat="47.28441" lon="-1.61634">
        <ele>-107.75</ele>
        <time>2012-03-31T13:48:30Z</time>
      </trkpt>
      <trkpt lat="47.28429" lon="-1.61642">
        <ele>-109</ele>
        <time>2012-03-31T13:48:32Z</time>
      </trkpt>
      <trkpt lat="47.28418" lon="-1.6165">
        <ele>-110.25</ele>
        <time>2012-03-31T13:48:34Z</time>
      </trkpt>
      <trkpt lat="47.28409" lon="-1.61657">
        <ele>-111.25</ele>
        <time>2012-03-31T13:48:37Z</time>
      </trkpt>
      <trkpt lat="47.284" lon="-1.61664">
        <ele>-112.5</ele>
        <time>2012-03-31T13:48:39Z</time>
      </trkpt>
      <trkpt lat="47.28391" lon="-1.61672">
        <ele>-114</ele>
        <time>2012-03-31T13:48:41Z</time>
      </trkpt>
      <trkpt lat="47.2838" lon="-1.61681">
        <ele>-115</ele>
        <time>2012-03-31T13:48:43Z</time>
      </trkpt>
      <trkpt lat="47.28369" lon="-1.6169">
        <ele>-115.75</ele>
        <time>2012-03-31T13:48:45Z</time>
      </trkpt>
      <trkpt lat="47.2836" lon="-1.61698">
        <ele>-116.5</ele>
        <time>2012-03-31T13:48:48Z</time>
      </trkpt>
      <trkpt lat="47.28352" lon="-1.61705">
        <ele>-117</ele>
        <time>2012-03-31T13:48:50Z</time>
      </trkpt>
      <trkpt lat="47.28343" lon="-1.61713">
        <ele>-116.75</ele>
        <time>2012-03-31T13:48:52Z</time>
      </trkpt>
      <trkpt lat="47.28333" lon="-1.61722">
        <ele>-116.25</ele>
        <time>2012-03-31T13:48:54Z</time>
      </trkpt>
      <trkpt lat="47.28324" lon="-1.61729">
        <ele>-115.75</ele>
        <time>2012-03-31T13:48:56Z</time>
      </trkpt>
      <trkpt lat="47.28313" lon="-1.61739">
        <ele>-114.75</ele>
        <time>2012-03-31T13:49:00Z</time>
      </trkpt>
      <trkpt lat="47.28304" lon="-1.61747">
        <ele>-114</ele>
        <time>2012-03-31T13:49:02Z</time>
      </trkpt>
      <trkpt lat="47.28293" lon="-1.61756">
        <ele>-113.25</ele>
        <time>2012-03-31T13:49:04Z</time>
      </trkpt>
      <trkpt lat="47.28284" lon="-1.61764">
        <ele>-112.5</ele>
        <time>2012-03-31T13:49:07Z</time>
      </trkpt>
      <trkpt lat="47.28275" lon="-1.61772">
        <ele>-112</ele>
        <time>2012-03-31T13:49:09Z</time>
      </trkpt>
      <trkpt lat="47.28265" lon="-1.6178">
        <ele>-111</ele>
        <time>2012-03-31T13:49:11Z</time>
      </trkpt>
      <trkpt lat="47.28254" lon="-1.6179">
        <ele>-109.25</ele>
        <time>2012-03-31T13:49:13Z</time>
      </trkpt>
      <trkpt lat="47.28245" lon="-1.61799">
        <ele>-109</ele>
        <time>2012-03-31T13:49:15Z</time>
      </trkpt>
      <trkpt lat="47.28237" lon="-1.61808">
        <ele>-110</ele>
        <time>2012-03-31T13:49:18Z</time>
      </trkpt>
      <trkpt lat="47.28229" lon="-1.61816">
        <ele>-110.5</ele>
        <time>2012-03-31T13:49:20Z</time>
      </trkpt>
      <trkpt lat="47.28217" lon="-1.61826">
        <ele>-110.25</ele>
        <time>2012-03-31T13:49:22Z</time>
      </trkpt>
      <trkpt lat="47.28203" lon="-1.6184">
        <ele>-109.5</ele>
        <time>2012-03-31T13:49:24Z</time>
      </trkpt>
      <trkpt lat="47.28195" lon="-1.61847">
        <ele>-109</ele>
        <time>2012-03-31T13:49:25Z</time>
      </trkpt>
      <trkpt lat="47.28181" lon="-1.61859">
        <ele>-108.5</ele>
        <time>2012-03-31T13:49:28Z</time>
      </trkpt>
      <trkpt lat="47.28166" lon="-1.61871">
        <ele>-106.5</ele>
        <time>2012-03-31T13:49:30Z</time>
      </trkpt>
      <trkpt lat="47.2815" lon="-1.61883">
        <ele>-103.75</ele>
        <time>2012-03-31T13:49:32Z</time>
      </trkpt>
      <trkpt lat="47.28141" lon="-1.61892">
        <ele>-102.75</ele>
        <time>2012-03-31T13:49:33Z</time>
      </trkpt>
      <trkpt lat="47.28133" lon="-1.619">
        <ele>-102.25</ele>
        <time>2012-03-31T13:49:34Z</time>
      </trkpt>
      <trkpt lat="47.28124" lon="-1.61909">
        <ele>-102</ele>
        <time>2012-03-31T13:49:35Z</time>
      </trkpt>
      <trkpt lat="47.28116" lon="-1.61918">
        <ele>-102</ele>
        <time>2012-03-31T13:49:36Z</time>
      </trkpt>
      <trkpt lat="47.28105" lon="-1.61933">
        <ele>-101.75</ele>
        <time>2012-03-31T13:49:39Z</time>
      </trkpt>
      <trkpt lat="47.28094" lon="-1.6195">
        <ele>-101.25</ele>
        <time>2012-03-31T13:49:41Z</time>
      </trkpt>
      <trkpt lat="47.28083" lon="-1.61968">
        <ele>-99.75</ele>
        <time>2012-03-31T13:49:43Z</time>
      </trkpt>
      <trkpt lat="47.28076" lon="-1.6198">
        <ele>-98.5</ele>
        <time>2012-03-31T13:49:44Z</time>
      </trkpt>
      <trkpt lat="47.28069" lon="-1.61992">
        <ele>-97</ele>
        <time>2012-03-31T13:49:45Z</time>
      </trkpt>
      <trkpt lat="47.28063" lon="-1.62006">
        <ele>-96</ele>
        <time>2012-03-31T13:49:46Z</time>
      </trkpt>
      <trkpt lat="47.28057" lon="-1.6202">
        <ele>-95.25</ele>
        <time>2012-03-31T13:49:47Z</time>
      </trkpt>
      <trkpt lat="47.28052" lon="-1.62032">
        <ele>-94.75</ele>
        <time>2012-03-31T13:49:48Z</time>
      </trkpt>
      <trkpt lat="47.28042" lon="-1.62052">
        <ele>-94.75</ele>
        <time>2012-03-31T13:49:51Z</time>
      </trkpt>
      <trkpt lat="47.28031" lon="-1.62068">
        <ele>-95</ele>
        <time>2012-03-31T13:49:53Z</time>
      </trkpt>
      <trkpt lat="47.28023" lon="-1.62076">
        <ele>-94.75</ele>
        <time>2012-03-31T13:49:54Z</time>
      </trkpt>
      <trkpt lat="47.28014" lon="-1.62083">
        <ele>-94.25</ele>
        <time>2012-03-31T13:49:55Z</time>
      </trkpt>
      <trkpt lat="47.28005" lon="-1.62089">
        <ele>-93.5</ele>
        <time>2012-03-31T13:49:56Z</time>
      </trkpt>
      <trkpt lat="47.27995" lon="-1.62095">
        <ele>-92.5</ele>
        <time>2012-03-31T13:49:57Z</time>
      </trkpt>
      <trkpt lat="47.27981" lon="-1.62104">
        <ele>-90.5</ele>
        <time>2012-03-31T13:50:00Z</time>
      </trkpt>
      <trkpt lat="47.27967" lon="-1.62118">
        <ele>-88.5</ele>
        <time>2012-03-31T13:50:02Z</time>
      </trkpt>
      <trkpt lat="47.27957" lon="-1.62132">
        <ele>-88.25</ele>
        <time>2012-03-31T13:50:04Z</time>
      </trkpt>
      <trkpt lat="47.27952" lon="-1.62146">
        <ele>-90.25</ele>
        <time>2012-03-31T13:50:06Z</time>
      </trkpt>
      <trkpt lat="47.27949" lon="-1.62162">
        <ele>-92.75</ele>
        <time>2012-03-31T13:50:09Z</time>
      </trkpt>
      <trkpt lat="47.27948" lon="-1.62179">
        <ele>-93.25</ele>
        <time>2012-03-31T13:50:11Z</time>
      </trkpt>
      <trkpt lat="47.27949" lon="-1.62196">
        <ele>-93.5</ele>
        <time>2012-03-31T13:50:13Z</time>
      </trkpt>
      <trkpt lat="47.2795" lon="-1.62225">
        <ele>-96.5</ele>
        <time>2012-03-31T13:50:15Z</time>
      </trkpt>
      <trkpt lat="47.27951" lon="-1.62243">
        <ele>-98</ele>
        <time>2012-03-31T13:50:16Z</time>
      </trkpt>
      <trkpt lat="47.27952" lon="-1.62264">
        <ele>-99.5</ele>
        <time>2012-03-31T13:50:17Z</time>
      </trkpt>
      <trkpt lat="47.27954" lon="-1.62282">
        <ele>-100.5</ele>
        <time>2012-03-31T13:50:18Z</time>
      </trkpt>
      <trkpt lat="47.27957" lon="-1.62297">
        <ele>-100.5</ele>
        <time>2012-03-31T13:50:20Z</time>
      </trkpt>
      <trkpt lat="47.2796" lon="-1.6231">
        <ele>-100.5</ele>
        <time>2012-03-31T13:50:21Z</time>
      </trkpt>
      <trkpt lat="47.27967" lon="-1.62332">
        <ele>-100.25</ele>
        <time>2012-03-31T13:50:23Z</time>
      </trkpt>
      <trkpt lat="47.27969" lon="-1.62349">
        <ele>-101.25</ele>
        <time>2012-03-31T13:50:25Z</time>
      </trkpt>
      <trkpt lat="47.27964" lon="-1.62364">
        <ele>-102.5</ele>
        <time>2012-03-31T13:50:27Z</time>
      </trkpt>
      <trkpt lat="47.27953" lon="-1.62376">
        <ele>-104.25</ele>
        <time>2012-03-31T13:50:29Z</time>
      </trkpt>
      <trkpt lat="47.27942" lon="-1.62387">
        <ele>-106</ele>
        <time>2012-03-31T13:50:32Z</time>
      </trkpt>
      <trkpt lat="47.27933" lon="-1.62393">
        <ele>-106</ele>
        <time>2012-03-31T13:50:34Z</time>
      </trkpt>
      <trkpt lat="47.27919" lon="-1.62397">
        <ele>-104</ele>
        <time>2012-03-31T13:50:37Z</time>
      </trkpt>
      <trkpt lat="47.27909" lon="-1.62401">
        <ele>-101.25</ele>
        <time>2012-03-31T13:50:39Z</time>
      </trkpt>
      <trkpt lat="47.27898" lon="-1.62407">
        <ele>-96.5</ele>
        <time>2012-03-31T13:50:43Z</time>
      </trkpt>
      <trkpt lat="47.27888" lon="-1.6241">
        <ele>-97.5</ele>
        <time>2012-03-31T13:50:46Z</time>
      </trkpt>
      <trkpt lat="47.27877" lon="-1.62414">
        <ele>-96.75</ele>
        <time>2012-03-31T13:50:49Z</time>
      </trkpt>
      <trkpt lat="47.27865" lon="-1.62416">
        <ele>-96.5</ele>
        <time>2012-03-31T13:50:53Z</time>
      </trkpt>
      <trkpt lat="47.27855" lon="-1.62413">
        <ele>-96</ele>
        <time>2012-03-31T13:50:56Z</time>
      </trkpt>
      <trkpt lat="47.27843" lon="-1.62409">
        <ele>-94.25</ele>
        <time>2012-03-31T13:50:59Z</time>
      </trkpt>
      <trkpt lat="47.27834" lon="-1.62408">
        <ele>-94</ele>
        <time>2012-03-31T13:51:03Z</time>
      </trkpt>
      <trkpt lat="47.27823" lon="-1.62408">
        <ele>-94.75</ele>
        <time>2012-03-31T13:51:06Z</time>
      </trkpt>
      <trkpt lat="47.27811" lon="-1.62406">
        <ele>-95.75</ele>
        <time>2012-03-31T13:51:09Z</time>
      </trkpt>
      <trkpt lat="47.278" lon="-1.62402">
        <ele>-95.5</ele>
        <time>2012-03-31T13:51:13Z</time>
      </trkpt>
      <trkpt lat="47.27788" lon="-1.62401">
        <ele>-95.75</ele>
        <time>2012-03-31T13:51:16Z</time>
      </trkpt>
      <trkpt lat="47.27775" lon="-1.62402">
        <ele>-95</ele>
        <time>2012-03-31T13:51:19Z</time>
      </trkpt>
      <trkpt lat="47.27767" lon="-1.62404">
        <ele>-93.5</ele>
        <time>2012-03-31T13:51:23Z</time>
      </trkpt>
      <trkpt lat="47.27755" lon="-1.62411">
        <ele>-95.25</ele>
        <time>2012-03-31T13:51:27Z</time>
      </trkpt>
      <trkpt lat="47.27747" lon="-1.62418">
        <ele>-98.5</ele>
        <time>2012-03-31T13:51:29Z</time>
      </trkpt>
      <trkpt lat="47.27734" lon="-1.62429">
        <ele>-102.5</ele>
        <time>2012-03-31T13:51:32Z</time>
      </trkpt>
      <trkpt lat="47.27721" lon="-1.62436">
        <ele>-104</ele>
        <time>2012-03-31T13:51:34Z</time>
      </trkpt>
      <trkpt lat="47.27708" lon="-1.62443">
        <ele>-105.25</ele>
        <time>2012-03-31T13:51:36Z</time>
      </trkpt>
      <trkpt lat="47.27699" lon="-1.62448">
        <ele>-106.75</ele>
        <time>2012-03-31T13:51:39Z</time>
      </trkpt>
      <trkpt lat="47.27685" lon="-1.62452">
        <ele>-103.75</ele>
        <time>2012-03-31T13:51:42Z</time>
      </trkpt>
      <trkpt lat="47.27676" lon="-1.62455">
        <ele>-100.75</ele>
        <time>2012-03-31T13:51:44Z</time>
      </trkpt>
      <trkpt lat="47.27665" lon="-1.6246">
        <ele>-98.5</ele>
        <time>2012-03-31T13:51:47Z</time>
      </trkpt>
      <trkpt lat="47.27653" lon="-1.62465">
        <ele>-97.25</ele>
        <time>2012-03-31T13:51:51Z</time>
      </trkpt>
      <trkpt lat="47.27644" lon="-1.6247">
        <ele>-97.25</ele>
        <time>2012-03-31T13:51:53Z</time>
      </trkpt>
      <trkpt lat="47.27632" lon="-1.62476">
        <ele>-97.25</ele>
        <time>2012-03-31T13:51:55Z</time>
      </trkpt>
      <trkpt lat="47.27621" lon="-1.6248">
        <ele>-96.5</ele>
        <time>2012-03-31T13:51:57Z</time>
      </trkpt>
      <trkpt lat="47.27608" lon="-1.62486">
        <ele>-95.5</ele>
        <time>2012-03-31T13:52:00Z</time>
      </trkpt>
      <trkpt lat="47.27599" lon="-1.62491">
        <ele>-94.75</ele>
        <time>2012-03-31T13:52:03Z</time>
      </trkpt>
      <trkpt lat="47.2759" lon="-1.62496">
        <ele>-94</ele>
        <time>2012-03-31T13:52:05Z</time>
      </trkpt>
      <trkpt lat="47.27581" lon="-1.625">
        <ele>-92.5</ele>
        <time>2012-03-31T13:52:07Z</time>
      </trkpt>
      <trkpt lat="47.2757" lon="-1.62506">
        <ele>-91.5</ele>
        <time>2012-03-31T13:52:09Z</time>
      </trkpt>
      <trkpt lat="47.27557" lon="-1.62511">
        <ele>-91.25</ele>
        <time>2012-03-31T13:52:11Z</time>
      </trkpt>
      <trkpt lat="47.27547" lon="-1.62512">
        <ele>-91.5</ele>
        <time>2012-03-31T13:52:13Z</time>
      </trkpt>
      <trkpt lat="47.27534" lon="-1.62508">
        <ele>-91.5</ele>
        <time>2012-03-31T13:52:17Z</time>
      </trkpt>
      <trkpt lat="47.27524" lon="-1.62504">
        <ele>-90</ele>
        <time>2012-03-31T13:52:19Z</time>
      </trkpt>
      <trkpt lat="47.27512" lon="-1.62501">
        <ele>-88.5</ele>
        <time>2012-03-31T13:52:21Z</time>
      </trkpt>
      <trkpt lat="47.27499" lon="-1.62497">
        <ele>-87.5</ele>
        <time>2012-03-31T13:52:23Z</time>
      </trkpt>
      <trkpt lat="47.27488" lon="-1.62492">
        <ele>-86.5</ele>
        <time>2012-03-31T13:52:26Z</time>
      </trkpt>
      <trkpt lat="47.2748" lon="-1.62488">
        <ele>-85.75</ele>
        <time>2012-03-31T13:52:28Z</time>
      </trkpt>
      <trkpt lat="47.2747" lon="-1.62483">
        <ele>-85</ele>
        <time>2012-03-31T13:52:30Z</time>
      </trkpt>
      <trkpt lat="47.2746" lon="-1.62478">
        <ele>-84.25</ele>
        <time>2012-03-31T13:52:32Z</time>
      </trkpt>
      <trkpt lat="47.27449" lon="-1.62473">
        <ele>-83.25</ele>
        <time>2012-03-31T13:52:34Z</time>
      </trkpt>
      <trkpt lat="47.27441" lon="-1.62469">
        <ele>-82.5</ele>
        <time>2012-03-31T13:52:36Z</time>
      </trkpt>
      <trkpt lat="47.27429" lon="-1.62462">
        <ele>-81.25</ele>
        <time>2012-03-31T13:52:40Z</time>
      </trkpt>
      <trkpt lat="47.27416" lon="-1.62455">
        <ele>-80.75</ele>
        <time>2012-03-31T13:52:43Z</time>
      </trkpt>
      <trkpt lat="47.27407" lon="-1.62451">
        <ele>-81.75</ele>
        <time>2012-03-31T13:52:45Z</time>
      </trkpt>
      <trkpt lat="47.27398" lon="-1.62446">
        <ele>-82.25</ele>
        <time>2012-03-31T13:52:47Z</time>
      </trkpt>
      <trkpt lat="47.27387" lon="-1.6244">
        <ele>-82.75</ele>
        <time>2012-03-31T13:52:51Z</time>
      </trkpt>
      <trkpt lat="47.27375" lon="-1.62435">
        <ele>-82.5</ele>
        <time>2012-03-31T13:52:54Z</time>
      </trkpt>
      <trkpt lat="47.27365" lon="-1.62435">
        <ele>-81.5</ele>
        <time>2012-03-31T13:52:58Z</time>
      </trkpt>
      <trkpt lat="47.27359" lon="-1.62445">
        <ele>-84</ele>
        <time>2012-03-31T13:53:02Z</time>
      </trkpt>
      <trkpt lat="47.27356" lon="-1.62458">
        <ele>-88.25</ele>
        <time>2012-03-31T13:53:05Z</time>
      </trkpt>
      <trkpt lat="47.27354" lon="-1.62472">
        <ele>-90.5</ele>
        <time>2012-03-31T13:53:09Z</time>
      </trkpt>
      <trkpt lat="47.27349" lon="-1.62482">
        <ele>-91.75</ele>
        <time>2012-03-31T13:53:12Z</time>
      </trkpt>
      <trkpt lat="47.27342" lon="-1.62493">
        <ele>-91</ele>
        <time>2012-03-31T13:53:21Z</time>
      </trkpt>
      <trkpt lat="47.2735" lon="-1.62488">
        <ele>-88</ele>
        <time>2012-03-31T13:53:29Z</time>
      </trkpt>
      <trkpt lat="47.27352" lon="-1.6247">
        <ele>-86.75</ele>
        <time>2012-03-31T13:53:33Z</time>
      </trkpt>
      <trkpt lat="47.27353" lon="-1.62456">
        <ele>-85</ele>
        <time>2012-03-31T13:53:35Z</time>
      </trkpt>
      <trkpt lat="47.27354" lon="-1.62442">
        <ele>-82.5</ele>
        <time>2012-03-31T13:53:37Z</time>
      </trkpt>
      <trkpt lat="47.27352" lon="-1.62425">
        <ele>-80.5</ele>
        <time>2012-03-31T13:53:40Z</time>
      </trkpt>
      <trkpt lat="47.27341" lon="-1.62416">
        <ele>-79.5</ele>
        <time>2012-03-31T13:53:44Z</time>
      </trkpt>
      <trkpt lat="47.27329" lon="-1.62408">
        <ele>-79.75</ele>
        <time>2012-03-31T13:53:47Z</time>
      </trkpt>
      <trkpt lat="47.27318" lon="-1.62401">
        <ele>-79</ele>
        <time>2012-03-31T13:53:49Z</time>
      </trkpt>
      <trkpt lat="47.27308" lon="-1.62395">
        <ele>-77.75</ele>
        <time>2012-03-31T13:53:52Z</time>
      </trkpt>
      <trkpt lat="47.27297" lon="-1.62387">
        <ele>-77.5</ele>
        <time>2012-03-31T13:53:55Z</time>
      </trkpt>
      <trkpt lat="47.27289" lon="-1.6238">
        <ele>-77.75</ele>
        <time>2012-03-31T13:53:57Z</time>
      </trkpt>
      <trkpt lat="47.27281" lon="-1.62373">
        <ele>-76.75</ele>
        <time>2012-03-31T13:53:59Z</time>
      </trkpt>
      <trkpt lat="47.2727" lon="-1.62364">
        <ele>-77</ele>
        <time>2012-03-31T13:54:03Z</time>
      </trkpt>
      <trkpt lat="47.27259" lon="-1.62358">
        <ele>-77</ele>
        <time>2012-03-31T13:54:06Z</time>
      </trkpt>
      <trkpt lat="47.2725" lon="-1.62354">
        <ele>-77</ele>
        <time>2012-03-31T13:54:08Z</time>
      </trkpt>
      <trkpt lat="47.2724" lon="-1.62352">
        <ele>-77</ele>
        <time>2012-03-31T13:54:10Z</time>
      </trkpt>
      <trkpt lat="47.27228" lon="-1.62348">
        <ele>-77</ele>
        <time>2012-03-31T13:54:14Z</time>
      </trkpt>
      <trkpt lat="47.27215" lon="-1.62342">
        <ele>-77.5</ele>
        <time>2012-03-31T13:54:17Z</time>
      </trkpt>
      <trkpt lat="47.27206" lon="-1.62339">
        <ele>-78</ele>
        <time>2012-03-31T13:54:19Z</time>
      </trkpt>
      <trkpt lat="47.27196" lon="-1.62335">
        <ele>-78.5</ele>
        <time>2012-03-31T13:54:23Z</time>
      </trkpt>
      <trkpt lat="47.27185" lon="-1.62332">
        <ele>-79.75</ele>
        <time>2012-03-31T13:54:26Z</time>
      </trkpt>
      <trkpt lat="47.27176" lon="-1.62328">
        <ele>-82.25</ele>
        <time>2012-03-31T13:54:28Z</time>
      </trkpt>
      <trkpt lat="47.27166" lon="-1.62324">
        <ele>-84.25</ele>
        <time>2012-03-31T13:54:30Z</time>
      </trkpt>
      <trkpt lat="47.27155" lon="-1.6232">
        <ele>-86.5</ele>
        <time>2012-03-31T13:54:34Z</time>
      </trkpt>
      <trkpt lat="47.27145" lon="-1.62314">
        <ele>-91.25</ele>
        <time>2012-03-31T13:54:38Z</time>
      </trkpt>
      <trkpt lat="47.27137" lon="-1.62307">
        <ele>-107.75</ele>
        <time>2012-03-31T13:56:41Z</time>
      </trkpt>
      <trkpt lat="47.27128" lon="-1.62311">
        <ele>-104</ele>
        <time>2012-03-31T13:56:45Z</time>
      </trkpt>
      <trkpt lat="47.27121" lon="-1.62325">
        <ele>-100.5</ele>
        <time>2012-03-31T13:56:51Z</time>
      </trkpt>
      <trkpt lat="47.2711" lon="-1.62327">
        <ele>-98.5</ele>
        <time>2012-03-31T13:56:54Z</time>
      </trkpt>
      <trkpt lat="47.271" lon="-1.62321">
        <ele>-95.25</ele>
        <time>2012-03-31T13:56:58Z</time>
      </trkpt>
      <trkpt lat="47.27089" lon="-1.62318">
        <ele>-92.5</ele>
        <time>2012-03-31T13:57:01Z</time>
      </trkpt>
      <trkpt lat="47.27078" lon="-1.62323">
        <ele>-91.25</ele>
        <time>2012-03-31T13:57:04Z</time>
      </trkpt>
      <trkpt lat="47.27068" lon="-1.62331">
        <ele>-90.25</ele>
        <time>2012-03-31T13:57:06Z</time>
      </trkpt>
      <trkpt lat="47.27058" lon="-1.62338">
        <ele>-89</ele>
        <time>2012-03-31T13:57:09Z</time>
      </trkpt>
      <trkpt lat="47.27048" lon="-1.62345">
        <ele>-88.5</ele>
        <time>2012-03-31T13:57:11Z</time>
      </trkpt>
      <trkpt lat="47.27038" lon="-1.6235">
        <ele>-88.5</ele>
        <time>2012-03-31T13:57:13Z</time>
      </trkpt>
      <trkpt lat="47.27026" lon="-1.62359">
        <ele>-87.75</ele>
        <time>2012-03-31T13:57:15Z</time>
      </trkpt>
      <trkpt lat="47.27012" lon="-1.62368">
        <ele>-86.5</ele>
        <time>2012-03-31T13:57:17Z</time>
      </trkpt>
      <trkpt lat="47.26999" lon="-1.62375">
        <ele>-85.25</ele>
        <time>2012-03-31T13:57:19Z</time>
      </trkpt>
      <trkpt lat="47.26986" lon="-1.62382">
        <ele>-84.5</ele>
        <time>2012-03-31T13:57:22Z</time>
      </trkpt>
      <trkpt lat="47.26974" lon="-1.62389">
        <ele>-84.75</ele>
        <time>2012-03-31T13:57:24Z</time>
      </trkpt>
      <trkpt lat="47.2696" lon="-1.62397">
        <ele>-83.75</ele>
        <time>2012-03-31T13:57:26Z</time>
      </trkpt>
      <trkpt lat="47.26947" lon="-1.62405">
        <ele>-81.5</ele>
        <time>2012-03-31T13:57:28Z</time>
      </trkpt>
      <trkpt lat="47.26938" lon="-1.62413">
        <ele>-79.75</ele>
        <time>2012-03-31T13:57:31Z</time>
      </trkpt>
      <trkpt lat="47.2693" lon="-1.6242">
        <ele>-79.25</ele>
        <time>2012-03-31T13:57:33Z</time>
      </trkpt>
      <trkpt lat="47.26918" lon="-1.62428">
        <ele>-79</ele>
        <time>2012-03-31T13:57:36Z</time>
      </trkpt>
      <trkpt lat="47.26905" lon="-1.6243">
        <ele>-77.75</ele>
        <time>2012-03-31T13:57:38Z</time>
      </trkpt>
      <trkpt lat="47.2689" lon="-1.62428">
        <ele>-77</ele>
        <time>2012-03-31T13:57:40Z</time>
      </trkpt>
      <trkpt lat="47.2688" lon="-1.62422">
        <ele>-76</ele>
        <time>2012-03-31T13:57:42Z</time>
      </trkpt>
      <trkpt lat="47.2687" lon="-1.62415">
        <ele>-73.5</ele>
        <time>2012-03-31T13:57:45Z</time>
      </trkpt>
      <trkpt lat="47.2686" lon="-1.62406">
        <ele>-72.25</ele>
        <time>2012-03-31T13:57:47Z</time>
      </trkpt>
      <trkpt lat="47.26851" lon="-1.62394">
        <ele>-71.5</ele>
        <time>2012-03-31T13:57:49Z</time>
      </trkpt>
      <trkpt lat="47.2684" lon="-1.62373">
        <ele>-70.5</ele>
        <time>2012-03-31T13:57:51Z</time>
      </trkpt>
      <trkpt lat="47.26834" lon="-1.62361">
        <ele>-70.25</ele>
        <time>2012-03-31T13:57:52Z</time>
      </trkpt>
      <trkpt lat="47.26827" lon="-1.62349">
        <ele>-70</ele>
        <time>2012-03-31T13:57:53Z</time>
      </trkpt>
      <trkpt lat="47.26816" lon="-1.62329">
        <ele>-69.75</ele>
        <time>2012-03-31T13:57:55Z</time>
      </trkpt>
      <trkpt lat="47.26803" lon="-1.62314">
        <ele>-69</ele>
        <time>2012-03-31T13:57:58Z</time>
      </trkpt>
      <trkpt lat="47.26788" lon="-1.62308">
        <ele>-68.25</ele>
        <time>2012-03-31T13:58:00Z</time>
      </trkpt>
      <trkpt lat="47.26771" lon="-1.62308">
        <ele>-68</ele>
        <time>2012-03-31T13:58:02Z</time>
      </trkpt>
      <trkpt lat="47.26753" lon="-1.62308">
        <ele>-68.25</ele>
        <time>2012-03-31T13:58:04Z</time>
      </trkpt>
      <trkpt lat="47.26738" lon="-1.62304">
        <ele>-69</ele>
        <time>2012-03-31T13:58:06Z</time>
      </trkpt>
      <trkpt lat="47.26728" lon="-1.62297">
        <ele>-69.25</ele>
        <time>2012-03-31T13:58:08Z</time>
      </trkpt>
      <trkpt lat="47.2672" lon="-1.62288">
        <ele>-69.25</ele>
        <time>2012-03-31T13:58:12Z</time>
      </trkpt>
      <trkpt lat="47.26714" lon="-1.62277">
        <ele>-75</ele>
        <time>2012-03-31T13:58:19Z</time>
      </trkpt>
      <trkpt lat="47.26707" lon="-1.62268">
        <ele>-72.25</ele>
        <time>2012-03-31T13:58:29Z</time>
      </trkpt>
      <trkpt lat="47.267" lon="-1.62259">
        <ele>-72.75</ele>
        <time>2012-03-31T13:58:47Z</time>
      </trkpt>
      <trkpt lat="47.26697" lon="-1.62247">
        <ele>-75.75</ele>
        <time>2012-03-31T13:58:56Z</time>
      </trkpt>
      <trkpt lat="47.26691" lon="-1.62235">
        <ele>-75</ele>
        <time>2012-03-31T13:59:07Z</time>
      </trkpt>
      <trkpt lat="47.26689" lon="-1.62222">
        <ele>-74</ele>
        <time>2012-03-31T13:59:24Z</time>
      </trkpt>
      <trkpt lat="47.26687" lon="-1.62208">
        <ele>-69</ele>
        <time>2012-03-31T13:59:35Z</time>
      </trkpt>
      <trkpt lat="47.26679" lon="-1.62198">
        <ele>-72</ele>
        <time>2012-03-31T13:59:45Z</time>
      </trkpt>
      <trkpt lat="47.2667" lon="-1.62191">
        <ele>-71.5</ele>
        <time>2012-03-31T13:59:52Z</time>
      </trkpt>
      <trkpt lat="47.26661" lon="-1.62186">
        <ele>-74</ele>
        <time>2012-03-31T13:59:57Z</time>
      </trkpt>
      <trkpt lat="47.26652" lon="-1.62181">
        <ele>-76.25</ele>
        <time>2012-03-31T14:00:02Z</time>
      </trkpt>
      <trkpt lat="47.26643" lon="-1.62175">
        <ele>-77.5</ele>
        <time>2012-03-31T14:00:05Z</time>
      </trkpt>
      <trkpt lat="47.26635" lon="-1.62168">
        <ele>-76.25</ele>
        <time>2012-03-31T14:00:08Z</time>
      </trkpt>
      <trkpt lat="47.26627" lon="-1.62161">
        <ele>-80</ele>
        <time>2012-03-31T14:00:13Z</time>
      </trkpt>
      <trkpt lat="47.26617" lon="-1.62156">
        <ele>-82.25</ele>
        <time>2012-03-31T14:00:17Z</time>
      </trkpt>
      <trkpt lat="47.26607" lon="-1.62156">
        <ele>-81</ele>
        <time>2012-03-31T14:00:24Z</time>
      </trkpt>
      <trkpt lat="47.26596" lon="-1.62157">
        <ele>-78.75</ele>
        <time>2012-03-31T14:00:31Z</time>
      </trkpt>
      <trkpt lat="47.26588" lon="-1.62162">
        <ele>-79</ele>
        <time>2012-03-31T14:00:35Z</time>
      </trkpt>
      <trkpt lat="47.26577" lon="-1.62167">
        <ele>-80.5</ele>
        <time>2012-03-31T14:00:39Z</time>
      </trkpt>
      <trkpt lat="47.26566" lon="-1.6217">
        <ele>-78</ele>
        <time>2012-03-31T14:00:44Z</time>
      </trkpt>
      <trkpt lat="47.26557" lon="-1.62171">
        <ele>-74.75</ele>
        <time>2012-03-31T14:00:48Z</time>
      </trkpt>
      <trkpt lat="47.26546" lon="-1.62171">
        <ele>-76.75</ele>
        <time>2012-03-31T14:00:54Z</time>
      </trkpt>
      <trkpt lat="47.26537" lon="-1.62173">
        <ele>-79</ele>
        <time>2012-03-31T14:00:58Z</time>
      </trkpt>
      <trkpt lat="47.26526" lon="-1.62173">
        <ele>-86.75</ele>
        <time>2012-03-31T14:01:03Z</time>
      </trkpt>
      <trkpt lat="47.26516" lon="-1.6217">
        <ele>-88.5</ele>
        <time>2012-03-31T14:01:10Z</time>
      </trkpt>
      <trkpt lat="47.26506" lon="-1.62172">
        <ele>-88</ele>
        <time>2012-03-31T14:01:14Z</time>
      </trkpt>
      <trkpt lat="47.26497" lon="-1.62175">
        <ele>-91.5</ele>
        <time>2012-03-31T14:01:20Z</time>
      </trkpt>
      <trkpt lat="47.26486" lon="-1.62176">
        <ele>-96.25</ele>
        <time>2012-03-31T14:01:25Z</time>
      </trkpt>
      <trkpt lat="47.26476" lon="-1.62178">
        <ele>-98.25</ele>
        <time>2012-03-31T14:01:31Z</time>
      </trkpt>
      <trkpt lat="47.26466" lon="-1.62182">
        <ele>-97.5</ele>
        <time>2012-03-31T14:01:37Z</time>
      </trkpt>
      <trkpt lat="47.26455" lon="-1.62187">
        <ele>-100.25</ele>
        <time>2012-03-31T14:01:43Z</time>
      </trkpt>
      <trkpt lat="47.26446" lon="-1.62189">
        <ele>-99.5</ele>
        <time>2012-03-31T14:01:49Z</time>
      </trkpt>
      <trkpt lat="47.26446" lon="-1.62175">
        <ele>-103.25</ele>
        <time>2012-03-31T14:02:12Z</time>
      </trkpt>
      <trkpt lat="47.2644" lon="-1.62186">
        <ele>-100.5</ele>
        <time>2012-03-31T14:02:58Z</time>
      </trkpt>
      <trkpt lat="47.26435" lon="-1.62198">
        <ele>-99.5</ele>
        <time>2012-03-31T14:04:03Z</time>
      </trkpt>
      <trkpt lat="47.26438" lon="-1.62212">
        <ele>-103</ele>
        <time>2012-03-31T14:04:08Z</time>
      </trkpt>
      <trkpt lat="47.26443" lon="-1.62226">
        <ele>-103</ele>
        <time>2012-03-31T14:04:11Z</time>
      </trkpt>
      <trkpt lat="47.26449" lon="-1.6224">
        <ele>-98.5</ele>
        <time>2012-03-31T14:04:14Z</time>
      </trkpt>
      <trkpt lat="47.26454" lon="-1.62254">
        <ele>-98.5</ele>
        <time>2012-03-31T14:04:19Z</time>
      </trkpt>
      <trkpt lat="47.26456" lon="-1.6227">
        <ele>-104</ele>
        <time>2012-03-31T14:04:22Z</time>
      </trkpt>
      <trkpt lat="47.26455" lon="-1.62286">
        <ele>-110</ele>
        <time>2012-03-31T14:04:25Z</time>
      </trkpt>
      <trkpt lat="47.26455" lon="-1.623">
        <ele>-110.5</ele>
        <time>2012-03-31T14:04:29Z</time>
      </trkpt>
      <trkpt lat="47.26456" lon="-1.62318">
        <ele>-117.5</ele>
        <time>2012-03-31T14:04:33Z</time>
      </trkpt>
      <trkpt lat="47.26457" lon="-1.62331">
        <ele>-123.5</ele>
        <time>2012-03-31T14:04:36Z</time>
      </trkpt>
      <trkpt lat="47.26457" lon="-1.62345">
        <ele>-123.5</ele>
        <time>2012-03-31T14:04:40Z</time>
      </trkpt>
      <trkpt lat="47.26457" lon="-1.62361">
        <ele>-119.5</ele>
        <time>2012-03-31T14:04:43Z</time>
      </trkpt>
      <trkpt lat="47.26462" lon="-1.62378">
        <ele>-115.5</ele>
        <time>2012-03-31T14:04:46Z</time>
      </trkpt>
      <trkpt lat="47.26468" lon="-1.62392">
        <ele>-112.5</ele>
        <time>2012-03-31T14:04:50Z</time>
      </trkpt>
      <trkpt lat="47.26474" lon="-1.6241">
        <ele>-109.25</ele>
        <time>2012-03-31T14:04:53Z</time>
      </trkpt>
      <trkpt lat="47.26479" lon="-1.62425">
        <ele>-106.75</ele>
        <time>2012-03-31T14:04:55Z</time>
      </trkpt>
      <trkpt lat="47.26484" lon="-1.62441">
        <ele>-104.5</ele>
        <time>2012-03-31T14:04:57Z</time>
      </trkpt>
      <trkpt lat="47.26488" lon="-1.62453">
        <ele>-102.5</ele>
        <time>2012-03-31T14:04:59Z</time>
      </trkpt>
      <trkpt lat="47.26493" lon="-1.62466">
        <ele>-99.5</ele>
        <time>2012-03-31T14:05:04Z</time>
      </trkpt>
      <trkpt lat="47.26489" lon="-1.62479">
        <ele>-97.75</ele>
        <time>2012-03-31T14:05:10Z</time>
      </trkpt>
      <trkpt lat="47.26479" lon="-1.62484">
        <ele>-100.5</ele>
        <time>2012-03-31T14:05:17Z</time>
      </trkpt>
      <trkpt lat="47.26469" lon="-1.62491">
        <ele>-102.5</ele>
        <time>2012-03-31T14:05:21Z</time>
      </trkpt>
      <trkpt lat="47.26461" lon="-1.62498">
        <ele>-105</ele>
        <time>2012-03-31T14:05:27Z</time>
      </trkpt>
      <trkpt lat="47.26453" lon="-1.62506">
        <ele>-106.75</ele>
        <time>2012-03-31T14:05:32Z</time>
      </trkpt>
      <trkpt lat="47.26445" lon="-1.62514">
        <ele>-107.5</ele>
        <time>2012-03-31T14:05:40Z</time>
      </trkpt>
      <trkpt lat="47.26437" lon="-1.62523">
        <ele>-110.25</ele>
        <time>2012-03-31T14:05:50Z</time>
      </trkpt>
      <trkpt lat="47.26429" lon="-1.62531">
        <ele>-112</ele>
        <time>2012-03-31T14:05:54Z</time>
      </trkpt>
      <trkpt lat="47.2642" lon="-1.6254">
        <ele>-111</ele>
        <time>2012-03-31T14:06:00Z</time>
      </trkpt>
      <trkpt lat="47.26413" lon="-1.62548">
        <ele>-108.25</ele>
        <time>2012-03-31T14:06:04Z</time>
      </trkpt>
      <trkpt lat="47.26404" lon="-1.62556">
        <ele>-110.75</ele>
        <time>2012-03-31T14:06:11Z</time>
      </trkpt>
      <trkpt lat="47.26395" lon="-1.62561">
        <ele>-113.75</ele>
        <time>2012-03-31T14:06:16Z</time>
      </trkpt>
      <trkpt lat="47.26385" lon="-1.62564">
        <ele>-112.25</ele>
        <time>2012-03-31T14:06:23Z</time>
      </trkpt>
      <trkpt lat="47.26376" lon="-1.62565">
        <ele>-111.5</ele>
        <time>2012-03-31T14:06:29Z</time>
      </trkpt>
      <trkpt lat="47.26366" lon="-1.62563">
        <ele>-111.5</ele>
        <time>2012-03-31T14:06:34Z</time>
      </trkpt>
      <trkpt lat="47.26357" lon="-1.6256">
        <ele>-111</ele>
        <time>2012-03-31T14:06:38Z</time>
      </trkpt>
      <trkpt lat="47.26347" lon="-1.62555">
        <ele>-112</ele>
        <time>2012-03-31T14:06:45Z</time>
      </trkpt>
      <trkpt lat="47.26338" lon="-1.62552">
        <ele>-115.25</ele>
        <time>2012-03-31T14:06:51Z</time>
      </trkpt>
      <trkpt lat="47.26327" lon="-1.6255">
        <ele>-115.5</ele>
        <time>2012-03-31T14:06:55Z</time>
      </trkpt>
      <trkpt lat="47.26316" lon="-1.62545">
        <ele>-115.5</ele>
        <time>2012-03-31T14:06:58Z</time>
      </trkpt>
      <trkpt lat="47.26306" lon="-1.6254">
        <ele>-113</ele>
        <time>2012-03-31T14:07:01Z</time>
      </trkpt>
      <trkpt lat="47.26297" lon="-1.62538">
        <ele>-111</ele>
        <time>2012-03-31T14:07:05Z</time>
      </trkpt>
      <trkpt lat="47.26284" lon="-1.62535">
        <ele>-111</ele>
        <time>2012-03-31T14:07:09Z</time>
      </trkpt>
      <trkpt lat="47.26274" lon="-1.6253">
        <ele>-110.25</ele>
        <time>2012-03-31T14:07:11Z</time>
      </trkpt>
      <trkpt lat="47.26265" lon="-1.62527">
        <ele>-108.75</ele>
        <time>2012-03-31T14:07:14Z</time>
      </trkpt>
      <trkpt lat="47.26253" lon="-1.62524">
        <ele>-106.5</ele>
        <time>2012-03-31T14:07:17Z</time>
      </trkpt>
      <trkpt lat="47.26242" lon="-1.6252">
        <ele>-106.75</ele>
        <time>2012-03-31T14:07:20Z</time>
      </trkpt>
      <trkpt lat="47.26231" lon="-1.62516">
        <ele>-111.5</ele>
        <time>2012-03-31T14:07:23Z</time>
      </trkpt>
      <trkpt lat="47.26221" lon="-1.6251">
        <ele>-112.25</ele>
        <time>2012-03-31T14:07:27Z</time>
      </trkpt>
      <trkpt lat="47.2621" lon="-1.62504">
        <ele>-110.25</ele>
        <time>2012-03-31T14:07:30Z</time>
      </trkpt>
      <trkpt lat="47.26199" lon="-1.62497">
        <ele>-109.5</ele>
        <time>2012-03-31T14:07:33Z</time>
      </trkpt>
      <trkpt lat="47.26189" lon="-1.62491">
        <ele>-109.5</ele>
        <time>2012-03-31T14:07:38Z</time>
      </trkpt>
      <trkpt lat="47.26179" lon="-1.62489">
        <ele>-109.5</ele>
        <time>2012-03-31T14:07:42Z</time>
      </trkpt>
      <trkpt lat="47.26169" lon="-1.62488">
        <ele>-110.75</ele>
        <time>2012-03-31T14:07:46Z</time>
      </trkpt>
      <trkpt lat="47.26159" lon="-1.62485">
        <ele>-112</ele>
        <time>2012-03-31T14:07:51Z</time>
      </trkpt>
      <trkpt lat="47.26151" lon="-1.6248">
        <ele>-112.75</ele>
        <time>2012-03-31T14:07:59Z</time>
      </trkpt>
      <trkpt lat="47.26141" lon="-1.62469">
        <ele>-110.75</ele>
        <time>2012-03-31T14:08:05Z</time>
      </trkpt>
      <trkpt lat="47.26132" lon="-1.6246">
        <ele>-108.75</ele>
        <time>2012-03-31T14:08:08Z</time>
      </trkpt>
      <trkpt lat="47.26124" lon="-1.62452">
        <ele>-107.75</ele>
        <time>2012-03-31T14:08:12Z</time>
      </trkpt>
      <trkpt lat="47.26118" lon="-1.62439">
        <ele>-106.25</ele>
        <time>2012-03-31T14:08:15Z</time>
      </trkpt>
      <trkpt lat="47.26115" lon="-1.62424">
        <ele>-106.25</ele>
        <time>2012-03-31T14:08:18Z</time>
      </trkpt>
      <trkpt lat="47.26106" lon="-1.62418">
        <ele>-106.75</ele>
        <time>2012-03-31T14:08:46Z</time>
      </trkpt>
      <trkpt lat="47.26097" lon="-1.62428">
        <ele>-107.25</ele>
        <time>2012-03-31T14:08:51Z</time>
      </trkpt>
      <trkpt lat="47.26088" lon="-1.62438">
        <ele>-107.75</ele>
        <time>2012-03-31T14:08:54Z</time>
      </trkpt>
      <trkpt lat="47.26077" lon="-1.62447">
        <ele>-108.25</ele>
        <time>2012-03-31T14:08:56Z</time>
      </trkpt>
      <trkpt lat="47.26067" lon="-1.62456">
        <ele>-109</ele>
        <time>2012-03-31T14:08:58Z</time>
      </trkpt>
      <trkpt lat="47.26059" lon="-1.62465">
        <ele>-109.25</ele>
        <time>2012-03-31T14:09:01Z</time>
      </trkpt>
      <trkpt lat="47.26052" lon="-1.62473">
        <ele>-109.25</ele>
        <time>2012-03-31T14:09:03Z</time>
      </trkpt>
      <trkpt lat="47.26042" lon="-1.62482">
        <ele>-109.75</ele>
        <time>2012-03-31T14:09:05Z</time>
      </trkpt>
      <trkpt lat="47.26031" lon="-1.62492">
        <ele>-109.75</ele>
        <time>2012-03-31T14:09:07Z</time>
      </trkpt>
      <trkpt lat="47.26021" lon="-1.62502">
        <ele>-109.25</ele>
        <time>2012-03-31T14:09:09Z</time>
      </trkpt>
      <trkpt lat="47.26012" lon="-1.6251">
        <ele>-109</ele>
        <time>2012-03-31T14:09:12Z</time>
      </trkpt>
      <trkpt lat="47.26002" lon="-1.62518">
        <ele>-109</ele>
        <time>2012-03-31T14:09:14Z</time>
      </trkpt>
      <trkpt lat="47.2599" lon="-1.62528">
        <ele>-109.25</ele>
        <time>2012-03-31T14:09:16Z</time>
      </trkpt>
      <trkpt lat="47.25978" lon="-1.62539">
        <ele>-109.25</ele>
        <time>2012-03-31T14:09:18Z</time>
      </trkpt>
      <trkpt lat="47.25969" lon="-1.62547">
        <ele>-109</ele>
        <time>2012-03-31T14:09:21Z</time>
      </trkpt>
      <trkpt lat="47.2596" lon="-1.62555">
        <ele>-109</ele>
        <time>2012-03-31T14:09:23Z</time>
      </trkpt>
      <trkpt lat="47.2595" lon="-1.62564">
        <ele>-109</ele>
        <time>2012-03-31T14:09:25Z</time>
      </trkpt>
      <trkpt lat="47.25938" lon="-1.62575">
        <ele>-109</ele>
        <time>2012-03-31T14:09:27Z</time>
      </trkpt>
      <trkpt lat="47.25927" lon="-1.62585">
        <ele>-109.5</ele>
        <time>2012-03-31T14:09:29Z</time>
      </trkpt>
      <trkpt lat="47.25917" lon="-1.62591">
        <ele>-110</ele>
        <time>2012-03-31T14:09:32Z</time>
      </trkpt>
      <trkpt lat="47.25906" lon="-1.62593">
        <ele>-109.75</ele>
        <time>2012-03-31T14:09:34Z</time>
      </trkpt>
      <trkpt lat="47.25893" lon="-1.6259">
        <ele>-108.5</ele>
        <time>2012-03-31T14:09:36Z</time>
      </trkpt>
      <trkpt lat="47.25881" lon="-1.62585">
        <ele>-107.75</ele>
        <time>2012-03-31T14:09:38Z</time>
      </trkpt>
      <trkpt lat="47.25871" lon="-1.6258">
        <ele>-108</ele>
        <time>2012-03-31T14:09:40Z</time>
      </trkpt>
      <trkpt lat="47.25863" lon="-1.62577">
        <ele>-108</ele>
        <time>2012-03-31T14:09:43Z</time>
      </trkpt>
      <trkpt lat="47.25851" lon="-1.62568">
        <ele>-108</ele>
        <time>2012-03-31T14:09:46Z</time>
      </trkpt>
      <trkpt lat="47.25846" lon="-1.62554">
        <ele>-108.5</ele>
        <time>2012-03-31T14:09:48Z</time>
      </trkpt>
      <trkpt lat="47.2584" lon="-1.62536">
        <ele>-109</ele>
        <time>2012-03-31T14:09:50Z</time>
      </trkpt>
      <trkpt lat="47.25835" lon="-1.62521">
        <ele>-109</ele>
        <time>2012-03-31T14:09:53Z</time>
      </trkpt>
      <trkpt lat="47.2583" lon="-1.62504">
        <ele>-109.5</ele>
        <time>2012-03-31T14:09:55Z</time>
      </trkpt>
      <trkpt lat="47.25822" lon="-1.62489">
        <ele>-110.25</ele>
        <time>2012-03-31T14:09:57Z</time>
      </trkpt>
      <trkpt lat="47.25813" lon="-1.62485">
        <ele>-110</ele>
        <time>2012-03-31T14:09:59Z</time>
      </trkpt>
      <trkpt lat="47.25805" lon="-1.62491">
        <ele>-108.5</ele>
        <time>2012-03-31T14:10:01Z</time>
      </trkpt>
      <trkpt lat="47.25798" lon="-1.62502">
        <ele>-106.75</ele>
        <time>2012-03-31T14:10:04Z</time>
      </trkpt>
      <trkpt lat="47.25791" lon="-1.62512">
        <ele>-105.5</ele>
        <time>2012-03-31T14:10:06Z</time>
      </trkpt>
      <trkpt lat="47.25784" lon="-1.62523">
        <ele>-105.5</ele>
        <time>2012-03-31T14:10:08Z</time>
      </trkpt>
      <trkpt lat="47.25776" lon="-1.62537">
        <ele>-105.75</ele>
        <time>2012-03-31T14:10:10Z</time>
      </trkpt>
      <trkpt lat="47.25767" lon="-1.62552">
        <ele>-106.25</ele>
        <time>2012-03-31T14:10:12Z</time>
      </trkpt>
      <trkpt lat="47.2576" lon="-1.62564">
        <ele>-107.5</ele>
        <time>2012-03-31T14:10:15Z</time>
      </trkpt>
      <trkpt lat="47.25753" lon="-1.62576">
        <ele>-108.25</ele>
        <time>2012-03-31T14:10:17Z</time>
      </trkpt>
      <trkpt lat="47.25747" lon="-1.62588">
        <ele>-109</ele>
        <time>2012-03-31T14:10:19Z</time>
      </trkpt>
      <trkpt lat="47.25739" lon="-1.62604">
        <ele>-109.75</ele>
        <time>2012-03-31T14:10:21Z</time>
      </trkpt>
      <trkpt lat="47.25731" lon="-1.62619">
        <ele>-110.25</ele>
        <time>2012-03-31T14:10:23Z</time>
      </trkpt>
      <trkpt lat="47.25724" lon="-1.62631">
        <ele>-110.75</ele>
        <time>2012-03-31T14:10:26Z</time>
      </trkpt>
      <trkpt lat="47.25718" lon="-1.62643">
        <ele>-111.25</ele>
        <time>2012-03-31T14:10:28Z</time>
      </trkpt>
      <trkpt lat="47.25712" lon="-1.62654">
        <ele>-111.75</ele>
        <time>2012-03-31T14:10:30Z</time>
      </trkpt>
      <trkpt lat="47.25705" lon="-1.62667">
        <ele>-111.5</ele>
        <time>2012-03-31T14:10:32Z</time>
      </trkpt>
      <trkpt lat="47.25698" lon="-1.62679">
        <ele>-111</ele>
        <time>2012-03-31T14:10:34Z</time>
      </trkpt>
      <trkpt lat="47.25691" lon="-1.62693">
        <ele>-110.25</ele>
        <time>2012-03-31T14:10:38Z</time>
      </trkpt>
      <trkpt lat="47.25686" lon="-1.62704">
        <ele>-109.25</ele>
        <time>2012-03-31T14:10:40Z</time>
      </trkpt>
      <trkpt lat="47.25679" lon="-1.62716">
        <ele>-108.25</ele>
        <time>2012-03-31T14:10:42Z</time>
      </trkpt>
      <trkpt lat="47.25669" lon="-1.62733">
        <ele>-108.75</ele>
        <time>2012-03-31T14:10:44Z</time>
      </trkpt>
      <trkpt lat="47.25659" lon="-1.62749">
        <ele>-109.75</ele>
        <time>2012-03-31T14:10:46Z</time>
      </trkpt>
      <trkpt lat="47.25651" lon="-1.62762">
        <ele>-110.5</ele>
        <time>2012-03-31T14:10:49Z</time>
      </trkpt>
      <trkpt lat="47.25643" lon="-1.62773">
        <ele>-111</ele>
        <time>2012-03-31T14:10:51Z</time>
      </trkpt>
      <trkpt lat="47.25635" lon="-1.62784">
        <ele>-110</ele>
        <time>2012-03-31T14:10:53Z</time>
      </trkpt>
      <trkpt lat="47.25625" lon="-1.62794">
        <ele>-108</ele>
        <time>2012-03-31T14:10:55Z</time>
      </trkpt>
      <trkpt lat="47.25616" lon="-1.62804">
        <ele>-107</ele>
        <time>2012-03-31T14:10:57Z</time>
      </trkpt>
      <trkpt lat="47.25608" lon="-1.62812">
        <ele>-107</ele>
        <time>2012-03-31T14:10:59Z</time>
      </trkpt>
      <trkpt lat="47.25599" lon="-1.6282">
        <ele>-106.75</ele>
        <time>2012-03-31T14:11:02Z</time>
      </trkpt>
      <trkpt lat="47.25592" lon="-1.62827">
        <ele>-106.75</ele>
        <time>2012-03-31T14:11:04Z</time>
      </trkpt>
      <trkpt lat="47.25582" lon="-1.62836">
        <ele>-107</ele>
        <time>2012-03-31T14:11:07Z</time>
      </trkpt>
      <trkpt lat="47.25571" lon="-1.62846">
        <ele>-107.5</ele>
        <time>2012-03-31T14:11:10Z</time>
      </trkpt>
      <trkpt lat="47.25563" lon="-1.62853">
        <ele>-108</ele>
        <time>2012-03-31T14:11:13Z</time>
      </trkpt>
      <trkpt lat="47.25552" lon="-1.62862">
        <ele>-107.5</ele>
        <time>2012-03-31T14:11:16Z</time>
      </trkpt>
      <trkpt lat="47.25544" lon="-1.62868">
        <ele>-107</ele>
        <time>2012-03-31T14:11:18Z</time>
      </trkpt>
      <trkpt lat="47.25536" lon="-1.62876">
        <ele>-107</ele>
        <time>2012-03-31T14:11:20Z</time>
      </trkpt>
      <trkpt lat="47.25527" lon="-1.62882">
        <ele>-107.25</ele>
        <time>2012-03-31T14:11:22Z</time>
      </trkpt>
      <trkpt lat="47.25515" lon="-1.6289">
        <ele>-108</ele>
        <time>2012-03-31T14:11:26Z</time>
      </trkpt>
      <trkpt lat="47.25502" lon="-1.62899">
        <ele>-108.25</ele>
        <time>2012-03-31T14:11:29Z</time>
      </trkpt>
      <trkpt lat="47.25493" lon="-1.62906">
        <ele>-108.75</ele>
        <time>2012-03-31T14:11:31Z</time>
      </trkpt>
      <trkpt lat="47.25485" lon="-1.62913">
        <ele>-109.5</ele>
        <time>2012-03-31T14:11:34Z</time>
      </trkpt>
      <trkpt lat="47.25478" lon="-1.62924">
        <ele>-110</ele>
        <time>2012-03-31T14:12:02Z</time>
      </trkpt>
      <trkpt lat="47.25474" lon="-1.62937">
        <ele>-110</ele>
        <time>2012-03-31T14:12:05Z</time>
      </trkpt>
      <trkpt lat="47.25468" lon="-1.62949">
        <ele>-110</ele>
        <time>2012-03-31T14:12:07Z</time>
      </trkpt>
      <trkpt lat="47.25458" lon="-1.62961">
        <ele>-109.75</ele>
        <time>2012-03-31T14:12:11Z</time>
      </trkpt>
      <trkpt lat="47.25449" lon="-1.62973">
        <ele>-110</ele>
        <time>2012-03-31T14:12:14Z</time>
      </trkpt>
      <trkpt lat="47.2544" lon="-1.62982">
        <ele>-110.25</ele>
        <time>2012-03-31T14:12:16Z</time>
      </trkpt>
      <trkpt lat="47.25429" lon="-1.62993">
        <ele>-110.25</ele>
        <time>2012-03-31T14:12:18Z</time>
      </trkpt>
      <trkpt lat="47.25419" lon="-1.63002">
        <ele>-109.75</ele>
        <time>2012-03-31T14:12:21Z</time>
      </trkpt>
      <trkpt lat="47.2541" lon="-1.63012">
        <ele>-109.25</ele>
        <time>2012-03-31T14:12:23Z</time>
      </trkpt>
      <trkpt lat="47.25402" lon="-1.63021">
        <ele>-109.75</ele>
        <time>2012-03-31T14:12:25Z</time>
      </trkpt>
      <trkpt lat="47.25391" lon="-1.63031">
        <ele>-110.5</ele>
        <time>2012-03-31T14:12:27Z</time>
      </trkpt>
      <trkpt lat="47.2538" lon="-1.63042">
        <ele>-110.5</ele>
        <time>2012-03-31T14:12:29Z</time>
      </trkpt>
      <trkpt lat="47.25371" lon="-1.63051">
        <ele>-110.25</ele>
        <time>2012-03-31T14:12:32Z</time>
      </trkpt>
      <trkpt lat="47.25361" lon="-1.63061">
        <ele>-110</ele>
        <time>2012-03-31T14:12:34Z</time>
      </trkpt>
      <trkpt lat="47.2535" lon="-1.63071">
        <ele>-109.75</ele>
        <time>2012-03-31T14:12:36Z</time>
      </trkpt>
      <trkpt lat="47.25338" lon="-1.63082">
        <ele>-109.25</ele>
        <time>2012-03-31T14:12:38Z</time>
      </trkpt>
      <trkpt lat="47.2533" lon="-1.63089">
        <ele>-108.75</ele>
        <time>2012-03-31T14:12:40Z</time>
      </trkpt>
      <trkpt lat="47.25339" lon="-1.63093">
        <ele>-106.25</ele>
        <time>2012-03-31T14:12:58Z</time>
      </trkpt>
      <trkpt lat="47.25346" lon="-1.63105">
        <ele>-109.75</ele>
        <time>2012-03-31T14:13:08Z</time>
      </trkpt>
      <trkpt lat="47.2535" lon="-1.6312">
        <ele>-112.5</ele>
        <time>2012-03-31T14:13:12Z</time>
      </trkpt>
      <trkpt lat="47.25353" lon="-1.63136">
        <ele>-113.25</ele>
        <time>2012-03-31T14:13:17Z</time>
      </trkpt>
      <trkpt lat="47.25352" lon="-1.63149">
        <ele>-115.5</ele>
        <time>2012-03-31T14:13:29Z</time>
      </trkpt>
      <trkpt lat="47.25359" lon="-1.63159">
        <ele>-111.75</ele>
        <time>2012-03-31T14:14:13Z</time>
      </trkpt>
      <trkpt lat="47.25363" lon="-1.63172">
        <ele>-114.25</ele>
        <time>2012-03-31T14:14:16Z</time>
      </trkpt>
      <trkpt lat="47.25367" lon="-1.63185">
        <ele>-115.5</ele>
        <time>2012-03-31T14:14:18Z</time>
      </trkpt>
      <trkpt lat="47.25371" lon="-1.63202">
        <ele>-116</ele>
        <time>2012-03-31T14:14:22Z</time>
      </trkpt>
      <trkpt lat="47.25375" lon="-1.63215">
        <ele>-116.75</ele>
        <time>2012-03-31T14:14:25Z</time>
      </trkpt>
      <trkpt lat="47.2538" lon="-1.63231">
        <ele>-118.75</ele>
        <time>2012-03-31T14:14:28Z</time>
      </trkpt>
      <trkpt lat="47.25385" lon="-1.63242">
        <ele>-119.5</ele>
        <time>2012-03-31T14:14:30Z</time>
      </trkpt>
      <trkpt lat="47.25391" lon="-1.63256">
        <ele>-117.25</ele>
        <time>2012-03-31T14:14:34Z</time>
      </trkpt>
      <trkpt lat="47.25389" lon="-1.63271">
        <ele>-115.25</ele>
        <time>2012-03-31T14:14:38Z</time>
      </trkpt>
      <trkpt lat="47.25377" lon="-1.63279">
        <ele>-112.5</ele>
        <time>2012-03-31T14:14:41Z</time>
      </trkpt>
      <trkpt lat="47.25367" lon="-1.63284">
        <ele>-112.75</ele>
        <time>2012-03-31T14:14:43Z</time>
      </trkpt>
      <trkpt lat="47.25358" lon="-1.63292">
        <ele>-113.75</ele>
        <time>2012-03-31T14:14:46Z</time>
      </trkpt>
      <trkpt lat="47.25349" lon="-1.63304">
        <ele>-113.5</ele>
        <time>2012-03-31T14:14:48Z</time>
      </trkpt>
      <trkpt lat="47.25342" lon="-1.6332">
        <ele>-113</ele>
        <time>2012-03-31T14:14:50Z</time>
      </trkpt>
      <trkpt lat="47.25339" lon="-1.63338">
        <ele>-113</ele>
        <time>2012-03-31T14:14:52Z</time>
      </trkpt>
      <trkpt lat="47.25341" lon="-1.63354">
        <ele>-112.75</ele>
        <time>2012-03-31T14:14:54Z</time>
      </trkpt>
      <trkpt lat="47.25346" lon="-1.63366">
        <ele>-112.5</ele>
        <time>2012-03-31T14:14:57Z</time>
      </trkpt>
      <trkpt lat="47.25352" lon="-1.63376">
        <ele>-111.5</ele>
        <time>2012-03-31T14:14:59Z</time>
      </trkpt>
      <trkpt lat="47.25366" lon="-1.63379">
        <ele>-109.5</ele>
        <time>2012-03-31T14:15:02Z</time>
      </trkpt>
      <trkpt lat="47.25376" lon="-1.63375">
        <ele>-110.25</ele>
        <time>2012-03-31T14:15:04Z</time>
      </trkpt>
      <trkpt lat="47.25388" lon="-1.63369">
        <ele>-110.75</ele>
        <time>2012-03-31T14:15:08Z</time>
      </trkpt>
      <trkpt lat="47.25398" lon="-1.63363">
        <ele>-112.25</ele>
        <time>2012-03-31T14:15:11Z</time>
      </trkpt>
      <trkpt lat="47.2541" lon="-1.63356">
        <ele>-112.5</ele>
        <time>2012-03-31T14:15:14Z</time>
      </trkpt>
      <trkpt lat="47.2542" lon="-1.63355">
        <ele>-112.25</ele>
        <time>2012-03-31T14:15:18Z</time>
      </trkpt>
      <trkpt lat="47.25427" lon="-1.63366">
        <ele>-116.25</ele>
        <time>2012-03-31T14:15:21Z</time>
      </trkpt>
      <trkpt lat="47.25429" lon="-1.63385">
        <ele>-121.75</ele>
        <time>2012-03-31T14:15:24Z</time>
      </trkpt>
      <trkpt lat="47.25431" lon="-1.63399">
        <ele>-125.5</ele>
        <time>2012-03-31T14:15:26Z</time>
      </trkpt>
      <trkpt lat="47.25431" lon="-1.63415">
        <ele>-125.5</ele>
        <time>2012-03-31T14:15:30Z</time>
      </trkpt>
      <trkpt lat="47.25423" lon="-1.63427">
        <ele>-121</ele>
        <time>2012-03-31T14:15:33Z</time>
      </trkpt>
      <trkpt lat="47.25411" lon="-1.63434">
        <ele>-117</ele>
        <time>2012-03-31T14:15:35Z</time>
      </trkpt>
      <trkpt lat="47.25398" lon="-1.63444">
        <ele>-113.5</ele>
        <time>2012-03-31T14:15:37Z</time>
      </trkpt>
      <trkpt lat="47.25388" lon="-1.63457">
        <ele>-111</ele>
        <time>2012-03-31T14:15:40Z</time>
      </trkpt>
      <trkpt lat="47.25379" lon="-1.63474">
        <ele>-110.75</ele>
        <time>2012-03-31T14:15:42Z</time>
      </trkpt>
      <trkpt lat="47.25371" lon="-1.63492">
        <ele>-111.25</ele>
        <time>2012-03-31T14:15:44Z</time>
      </trkpt>
      <trkpt lat="47.25364" lon="-1.63514">
        <ele>-111</ele>
        <time>2012-03-31T14:15:46Z</time>
      </trkpt>
      <trkpt lat="47.25358" lon="-1.63534">
        <ele>-111.75</ele>
        <time>2012-03-31T14:15:49Z</time>
      </trkpt>
      <trkpt lat="47.2535" lon="-1.63552">
        <ele>-114.5</ele>
        <time>2012-03-31T14:15:51Z</time>
      </trkpt>
      <trkpt lat="47.2534" lon="-1.63573">
        <ele>-118.25</ele>
        <time>2012-03-31T14:15:53Z</time>
      </trkpt>
      <trkpt lat="47.25334" lon="-1.63584">
        <ele>-119.25</ele>
        <time>2012-03-31T14:15:54Z</time>
      </trkpt>
      <trkpt lat="47.25328" lon="-1.63595">
        <ele>-120</ele>
        <time>2012-03-31T14:15:55Z</time>
      </trkpt>
      <trkpt lat="47.25319" lon="-1.63614">
        <ele>-120.25</ele>
        <time>2012-03-31T14:15:58Z</time>
      </trkpt>
      <trkpt lat="47.25312" lon="-1.63626">
        <ele>-120.5</ele>
        <time>2012-03-31T14:16:00Z</time>
      </trkpt>
      <trkpt lat="47.25309" lon="-1.63641">
        <ele>-107.25</ele>
        <time>2012-03-31T14:16:16Z</time>
      </trkpt>
      <trkpt lat="47.25309" lon="-1.63654">
        <ele>-105.25</ele>
        <time>2012-03-31T14:16:19Z</time>
      </trkpt>
      <trkpt lat="47.25308" lon="-1.63671">
        <ele>-105</ele>
        <time>2012-03-31T14:16:24Z</time>
      </trkpt>
      <trkpt lat="47.25306" lon="-1.63685">
        <ele>-106</ele>
        <time>2012-03-31T14:16:27Z</time>
      </trkpt>
      <trkpt lat="47.25304" lon="-1.637">
        <ele>-108</ele>
        <time>2012-03-31T14:16:30Z</time>
      </trkpt>
      <trkpt lat="47.25298" lon="-1.63711">
        <ele>-111.25</ele>
        <time>2012-03-31T14:16:36Z</time>
      </trkpt>
      <trkpt lat="47.25287" lon="-1.63712">
        <ele>-114.75</ele>
        <time>2012-03-31T14:16:42Z</time>
      </trkpt>
      <trkpt lat="47.25278" lon="-1.6371">
        <ele>-113.75</ele>
        <time>2012-03-31T14:16:46Z</time>
      </trkpt>
      <trkpt lat="47.25267" lon="-1.63709">
        <ele>-111.25</ele>
        <time>2012-03-31T14:16:50Z</time>
      </trkpt>
      <trkpt lat="47.25256" lon="-1.63706">
        <ele>-105.75</ele>
        <time>2012-03-31T14:16:55Z</time>
      </trkpt>
      <trkpt lat="47.25247" lon="-1.63703">
        <ele>-101</ele>
        <time>2012-03-31T14:17:01Z</time>
      </trkpt>
      <trkpt lat="47.25238" lon="-1.63695">
        <ele>-98.5</ele>
        <time>2012-03-31T14:17:05Z</time>
      </trkpt>
      <trkpt lat="47.2523" lon="-1.63689">
        <ele>-101.75</ele>
        <time>2012-03-31T14:17:10Z</time>
      </trkpt>
      <trkpt lat="47.2522" lon="-1.63686">
        <ele>-100.25</ele>
        <time>2012-03-31T14:17:13Z</time>
      </trkpt>
      <trkpt lat="47.2521" lon="-1.63681">
        <ele>-95.5</ele>
        <time>2012-03-31T14:17:16Z</time>
      </trkpt>
      <trkpt lat="47.25201" lon="-1.63674">
        <ele>-91</ele>
        <time>2012-03-31T14:17:23Z</time>
      </trkpt>
      <trkpt lat="47.25193" lon="-1.63667">
        <ele>-92</ele>
        <time>2012-03-31T14:17:27Z</time>
      </trkpt>
      <trkpt lat="47.25186" lon="-1.63659">
        <ele>-89.5</ele>
        <time>2012-03-31T14:17:32Z</time>
      </trkpt>
      <trkpt lat="47.25178" lon="-1.63649">
        <ele>-88.25</ele>
        <time>2012-03-31T14:17:37Z</time>
      </trkpt>
      <trkpt lat="47.25169" lon="-1.63644">
        <ele>-87.25</ele>
        <time>2012-03-31T14:17:42Z</time>
      </trkpt>
      <trkpt lat="47.2516" lon="-1.6364">
        <ele>-89.25</ele>
        <time>2012-03-31T14:17:45Z</time>
      </trkpt>
      <trkpt lat="47.25152" lon="-1.63632">
        <ele>-99</ele>
        <time>2012-03-31T14:17:56Z</time>
      </trkpt>
      <trkpt lat="47.25147" lon="-1.63618">
        <ele>-105.5</ele>
        <time>2012-03-31T14:18:01Z</time>
      </trkpt>
      <trkpt lat="47.25143" lon="-1.63606">
        <ele>-109.5</ele>
        <time>2012-03-31T14:18:05Z</time>
      </trkpt>
      <trkpt lat="47.25138" lon="-1.63595">
        <ele>-114.5</ele>
        <time>2012-03-31T14:18:08Z</time>
      </trkpt>
      <trkpt lat="47.2513" lon="-1.63585">
        <ele>-116</ele>
        <time>2012-03-31T14:18:11Z</time>
      </trkpt>
      <trkpt lat="47.25123" lon="-1.63575">
        <ele>-116.75</ele>
        <time>2012-03-31T14:18:14Z</time>
      </trkpt>
      <trkpt lat="47.25118" lon="-1.63562">
        <ele>-119.25</ele>
        <time>2012-03-31T14:18:19Z</time>
      </trkpt>
      <trkpt lat="47.25114" lon="-1.63547">
        <ele>-122.75</ele>
        <time>2012-03-31T14:18:22Z</time>
      </trkpt>
      <trkpt lat="47.2511" lon="-1.63531">
        <ele>-126.5</ele>
        <time>2012-03-31T14:18:25Z</time>
      </trkpt>
      <trkpt lat="47.25109" lon="-1.63514">
        <ele>-129.5</ele>
        <time>2012-03-31T14:18:30Z</time>
      </trkpt>
      <trkpt lat="47.25107" lon="-1.63499">
        <ele>-131</ele>
        <time>2012-03-31T14:18:33Z</time>
      </trkpt>
      <trkpt lat="47.25101" lon="-1.63484">
        <ele>-129.5</ele>
        <time>2012-03-31T14:18:36Z</time>
      </trkpt>
      <trkpt lat="47.25094" lon="-1.63474">
        <ele>-123.25</ele>
        <time>2012-03-31T14:18:41Z</time>
      </trkpt>
      <trkpt lat="47.25082" lon="-1.63473">
        <ele>-118.75</ele>
        <time>2012-03-31T14:18:45Z</time>
      </trkpt>
      <trkpt lat="47.25072" lon="-1.63473">
        <ele>-120.5</ele>
        <time>2012-03-31T14:18:49Z</time>
      </trkpt>
      <trkpt lat="47.2506" lon="-1.6347">
        <ele>-121</ele>
        <time>2012-03-31T14:18:53Z</time>
      </trkpt>
      <trkpt lat="47.25051" lon="-1.63466">
        <ele>-118.25</ele>
        <time>2012-03-31T14:18:55Z</time>
      </trkpt>
      <trkpt lat="47.25041" lon="-1.63462">
        <ele>-113.25</ele>
        <time>2012-03-31T14:18:57Z</time>
      </trkpt>
      <trkpt lat="47.2503" lon="-1.63457">
        <ele>-108.5</ele>
        <time>2012-03-31T14:19:01Z</time>
      </trkpt>
      <trkpt lat="47.2502" lon="-1.63455">
        <ele>-104</ele>
        <time>2012-03-31T14:19:04Z</time>
      </trkpt>
      <trkpt lat="47.25011" lon="-1.63452">
        <ele>-102</ele>
        <time>2012-03-31T14:19:06Z</time>
      </trkpt>
      <trkpt lat="47.25001" lon="-1.63451">
        <ele>-101.75</ele>
        <time>2012-03-31T14:19:08Z</time>
      </trkpt>
      <trkpt lat="47.2499" lon="-1.63452">
        <ele>-102.75</ele>
        <time>2012-03-31T14:19:12Z</time>
      </trkpt>
      <trkpt lat="47.24978" lon="-1.63454">
        <ele>-102.5</ele>
        <time>2012-03-31T14:19:15Z</time>
      </trkpt>
      <trkpt lat="47.24968" lon="-1.63457">
        <ele>-102</ele>
        <time>2012-03-31T14:19:17Z</time>
      </trkpt>
      <trkpt lat="47.24959" lon="-1.63461">
        <ele>-102.25</ele>
        <time>2012-03-31T14:19:19Z</time>
      </trkpt>
      <trkpt lat="47.24948" lon="-1.63469">
        <ele>-101.25</ele>
        <time>2012-03-31T14:19:23Z</time>
      </trkpt>
      <trkpt lat="47.24939" lon="-1.63477">
        <ele>-101</ele>
        <time>2012-03-31T14:19:25Z</time>
      </trkpt>
      <trkpt lat="47.24929" lon="-1.63487">
        <ele>-100.75</ele>
        <time>2012-03-31T14:19:28Z</time>
      </trkpt>
      <trkpt lat="47.24919" lon="-1.63496">
        <ele>-100.75</ele>
        <time>2012-03-31T14:19:30Z</time>
      </trkpt>
      <trkpt lat="47.2491" lon="-1.63503">
        <ele>-101.25</ele>
        <time>2012-03-31T14:19:32Z</time>
      </trkpt>
      <trkpt lat="47.24898" lon="-1.63514">
        <ele>-102</ele>
        <time>2012-03-31T14:19:34Z</time>
      </trkpt>
      <trkpt lat="47.24886" lon="-1.63526">
        <ele>-103.5</ele>
        <time>2012-03-31T14:19:36Z</time>
      </trkpt>
      <trkpt lat="47.24876" lon="-1.63534">
        <ele>-105.25</ele>
        <time>2012-03-31T14:19:39Z</time>
      </trkpt>
      <trkpt lat="47.24867" lon="-1.63542">
        <ele>-106.5</ele>
        <time>2012-03-31T14:19:41Z</time>
      </trkpt>
      <trkpt lat="47.24857" lon="-1.63548">
        <ele>-107.75</ele>
        <time>2012-03-31T14:19:43Z</time>
      </trkpt>
      <trkpt lat="47.24846" lon="-1.6355">
        <ele>-109</ele>
        <time>2012-03-31T14:19:45Z</time>
      </trkpt>
      <trkpt lat="47.24835" lon="-1.63546">
        <ele>-109.5</ele>
        <time>2012-03-31T14:19:49Z</time>
      </trkpt>
      <trkpt lat="47.24825" lon="-1.63541">
        <ele>-107.75</ele>
        <time>2012-03-31T14:19:52Z</time>
      </trkpt>
      <trkpt lat="47.24815" lon="-1.63536">
        <ele>-106</ele>
        <time>2012-03-31T14:19:56Z</time>
      </trkpt>
      <trkpt lat="47.24811" lon="-1.63521">
        <ele>-102</ele>
        <time>2012-03-31T14:20:05Z</time>
      </trkpt>
      <trkpt lat="47.24802" lon="-1.63515">
        <ele>-102</ele>
        <time>2012-03-31T14:20:08Z</time>
      </trkpt>
      <trkpt lat="47.24791" lon="-1.63517">
        <ele>-102</ele>
        <time>2012-03-31T14:20:12Z</time>
      </trkpt>
      <trkpt lat="47.2478" lon="-1.6352">
        <ele>-101.75</ele>
        <time>2012-03-31T14:20:15Z</time>
      </trkpt>
      <trkpt lat="47.24766" lon="-1.63524">
        <ele>-101.5</ele>
        <time>2012-03-31T14:20:19Z</time>
      </trkpt>
      <trkpt lat="47.24756" lon="-1.63527">
        <ele>-102.25</ele>
        <time>2012-03-31T14:20:21Z</time>
      </trkpt>
      <trkpt lat="47.24747" lon="-1.6353">
        <ele>-102.75</ele>
        <time>2012-03-31T14:20:23Z</time>
      </trkpt>
      <trkpt lat="47.24735" lon="-1.63532">
        <ele>-104</ele>
        <time>2012-03-31T14:20:25Z</time>
      </trkpt>
      <trkpt lat="47.24724" lon="-1.63535">
        <ele>-105</ele>
        <time>2012-03-31T14:20:27Z</time>
      </trkpt>
      <trkpt lat="47.24712" lon="-1.63536">
        <ele>-104.25</ele>
        <time>2012-03-31T14:20:30Z</time>
      </trkpt>
      <trkpt lat="47.24699" lon="-1.63538">
        <ele>-102</ele>
        <time>2012-03-31T14:20:32Z</time>
      </trkpt>
      <trkpt lat="47.24686" lon="-1.63541">
        <ele>-100.25</ele>
        <time>2012-03-31T14:20:34Z</time>
      </trkpt>
      <trkpt lat="47.24672" lon="-1.63543">
        <ele>-99.75</ele>
        <time>2012-03-31T14:20:36Z</time>
      </trkpt>
      <trkpt lat="47.24658" lon="-1.63544">
        <ele>-98.5</ele>
        <time>2012-03-31T14:20:38Z</time>
      </trkpt>
      <trkpt lat="47.24646" lon="-1.63546">
        <ele>-96.25</ele>
        <time>2012-03-31T14:20:41Z</time>
      </trkpt>
      <trkpt lat="47.24633" lon="-1.63549">
        <ele>-93</ele>
        <time>2012-03-31T14:20:43Z</time>
      </trkpt>
      <trkpt lat="47.24622" lon="-1.63553">
        <ele>-90.5</ele>
        <time>2012-03-31T14:20:45Z</time>
      </trkpt>
      <trkpt lat="47.24607" lon="-1.63555">
        <ele>-89.25</ele>
        <time>2012-03-31T14:20:47Z</time>
      </trkpt>
      <trkpt lat="47.24592" lon="-1.63555">
        <ele>-88.5</ele>
        <time>2012-03-31T14:20:49Z</time>
      </trkpt>
      <trkpt lat="47.2458" lon="-1.63554">
        <ele>-87.5</ele>
        <time>2012-03-31T14:20:52Z</time>
      </trkpt>
      <trkpt lat="47.24569" lon="-1.63555">
        <ele>-86.25</ele>
        <time>2012-03-31T14:20:54Z</time>
      </trkpt>
      <trkpt lat="47.24555" lon="-1.63557">
        <ele>-85.75</ele>
        <time>2012-03-31T14:20:56Z</time>
      </trkpt>
      <trkpt lat="47.24542" lon="-1.63561">
        <ele>-84.25</ele>
        <time>2012-03-31T14:20:58Z</time>
      </trkpt>
      <trkpt lat="47.24531" lon="-1.63567">
        <ele>-84</ele>
        <time>2012-03-31T14:21:00Z</time>
      </trkpt>
      <trkpt lat="47.24519" lon="-1.63569">
        <ele>-85.5</ele>
        <time>2012-03-31T14:21:03Z</time>
      </trkpt>
      <trkpt lat="47.2451" lon="-1.63569">
        <ele>-84.75</ele>
        <time>2012-03-31T14:21:07Z</time>
      </trkpt>
      <trkpt lat="47.24503" lon="-1.6358">
        <ele>-83</ele>
        <time>2012-03-31T14:21:10Z</time>
      </trkpt>
      <trkpt lat="47.24495" lon="-1.63595">
        <ele>-81.5</ele>
        <time>2012-03-31T14:21:13Z</time>
      </trkpt>
      <trkpt lat="47.24484" lon="-1.63605">
        <ele>-81.75</ele>
        <time>2012-03-31T14:21:17Z</time>
      </trkpt>
      <trkpt lat="47.24476" lon="-1.63612">
        <ele>-82.5</ele>
        <time>2012-03-31T14:21:20Z</time>
      </trkpt>
      <trkpt lat="47.24466" lon="-1.63621">
        <ele>-82.5</ele>
        <time>2012-03-31T14:21:23Z</time>
      </trkpt>
      <trkpt lat="47.24459" lon="-1.63628">
        <ele>-81.75</ele>
        <time>2012-03-31T14:21:25Z</time>
      </trkpt>
      <trkpt lat="47.2445" lon="-1.63635">
        <ele>-82</ele>
        <time>2012-03-31T14:21:29Z</time>
      </trkpt>
      <trkpt lat="47.24441" lon="-1.63642">
        <ele>-81.5</ele>
        <time>2012-03-31T14:21:33Z</time>
      </trkpt>
      <trkpt lat="47.24432" lon="-1.63646">
        <ele>-81.5</ele>
        <time>2012-03-31T14:21:39Z</time>
      </trkpt>
      <trkpt lat="47.24422" lon="-1.6365">
        <ele>-72.25</ele>
        <time>2012-03-31T14:21:52Z</time>
      </trkpt>
      <trkpt lat="47.24414" lon="-1.63655">
        <ele>-73.75</ele>
        <time>2012-03-31T14:22:04Z</time>
      </trkpt>
      <trkpt lat="47.24405" lon="-1.6365">
        <ele>-74</ele>
        <time>2012-03-31T14:22:09Z</time>
      </trkpt>
      <trkpt lat="47.24399" lon="-1.63634">
        <ele>-74.25</ele>
        <time>2012-03-31T14:22:13Z</time>
      </trkpt>
      <trkpt lat="47.24395" lon="-1.63621">
        <ele>-75</ele>
        <time>2012-03-31T14:22:15Z</time>
      </trkpt>
      <trkpt lat="47.2439" lon="-1.63604">
        <ele>-74</ele>
        <time>2012-03-31T14:22:17Z</time>
      </trkpt>
      <trkpt lat="47.24383" lon="-1.63585">
        <ele>-72</ele>
        <time>2012-03-31T14:22:19Z</time>
      </trkpt>
      <trkpt lat="47.24378" lon="-1.63567">
        <ele>-71.25</ele>
        <time>2012-03-31T14:22:22Z</time>
      </trkpt>
      <trkpt lat="47.24377" lon="-1.63548">
        <ele>-71.75</ele>
        <time>2012-03-31T14:22:24Z</time>
      </trkpt>
      <trkpt lat="47.2438" lon="-1.63532">
        <ele>-73</ele>
        <time>2012-03-31T14:22:26Z</time>
      </trkpt>
      <trkpt lat="47.24385" lon="-1.6352">
        <ele>-74.5</ele>
        <time>2012-03-31T14:22:28Z</time>
      </trkpt>
      <trkpt lat="47.2439" lon="-1.63507">
        <ele>-76</ele>
        <time>2012-03-31T14:22:32Z</time>
      </trkpt>
      <trkpt lat="47.2439" lon="-1.63488">
        <ele>-76.5</ele>
        <time>2012-03-31T14:22:35Z</time>
      </trkpt>
      <trkpt lat="47.24389" lon="-1.63473">
        <ele>-77.25</ele>
        <time>2012-03-31T14:22:37Z</time>
      </trkpt>
      <trkpt lat="47.24386" lon="-1.63457">
        <ele>-78</ele>
        <time>2012-03-31T14:22:39Z</time>
      </trkpt>
      <trkpt lat="47.24383" lon="-1.63444">
        <ele>-78.5</ele>
        <time>2012-03-31T14:22:41Z</time>
      </trkpt>
      <trkpt lat="47.24378" lon="-1.63429">
        <ele>-78.5</ele>
        <time>2012-03-31T14:22:45Z</time>
      </trkpt>
      <trkpt lat="47.24369" lon="-1.63418">
        <ele>-74</ele>
        <time>2012-03-31T14:22:49Z</time>
      </trkpt>
      <trkpt lat="47.24368" lon="-1.63402">
        <ele>-71.75</ele>
        <time>2012-03-31T14:22:56Z</time>
      </trkpt>
      <trkpt lat="47.24372" lon="-1.63388">
        <ele>-72</ele>
        <time>2012-03-31T14:23:00Z</time>
      </trkpt>
      <trkpt lat="47.24375" lon="-1.63373">
        <ele>-72</ele>
        <time>2012-03-31T14:23:05Z</time>
      </trkpt>
      <trkpt lat="47.24375" lon="-1.63355">
        <ele>-74</ele>
        <time>2012-03-31T14:23:09Z</time>
      </trkpt>
      <trkpt lat="47.24369" lon="-1.63339">
        <ele>-76.5</ele>
        <time>2012-03-31T14:23:12Z</time>
      </trkpt>
      <trkpt lat="47.24364" lon="-1.63328">
        <ele>-77.25</ele>
        <time>2012-03-31T14:23:16Z</time>
      </trkpt>
      <trkpt lat="47.24358" lon="-1.63316">
        <ele>-77.5</ele>
        <time>2012-03-31T14:23:19Z</time>
      </trkpt>
      <trkpt lat="47.24348" lon="-1.63303">
        <ele>-80.75</ele>
        <time>2012-03-31T14:23:22Z</time>
      </trkpt>
      <trkpt lat="47.24338" lon="-1.63294">
        <ele>-80.75</ele>
        <time>2012-03-31T14:23:24Z</time>
      </trkpt>
      <trkpt lat="47.24329" lon="-1.63282">
        <ele>-77.25</ele>
        <time>2012-03-31T14:23:28Z</time>
      </trkpt>
      <trkpt lat="47.2432" lon="-1.63267">
        <ele>-74.5</ele>
        <time>2012-03-31T14:23:32Z</time>
      </trkpt>
      <trkpt lat="47.24312" lon="-1.63254">
        <ele>-73.5</ele>
        <time>2012-03-31T14:23:34Z</time>
      </trkpt>
      <trkpt lat="47.24303" lon="-1.63242">
        <ele>-74</ele>
        <time>2012-03-31T14:23:37Z</time>
      </trkpt>
      <trkpt lat="47.24295" lon="-1.63232">
        <ele>-74.25</ele>
        <time>2012-03-31T14:23:39Z</time>
      </trkpt>
      <trkpt lat="47.24287" lon="-1.63222">
        <ele>-73.5</ele>
        <time>2012-03-31T14:23:41Z</time>
      </trkpt>
      <trkpt lat="47.24277" lon="-1.63212">
        <ele>-74.25</ele>
        <time>2012-03-31T14:23:43Z</time>
      </trkpt>
      <trkpt lat="47.24266" lon="-1.63203">
        <ele>-75.75</ele>
        <time>2012-03-31T14:23:45Z</time>
      </trkpt>
      <trkpt lat="47.24259" lon="-1.63194">
        <ele>-74.75</ele>
        <time>2012-03-31T14:23:47Z</time>
      </trkpt>
      <trkpt lat="47.2425" lon="-1.63183">
        <ele>-73.75</ele>
        <time>2012-03-31T14:23:51Z</time>
      </trkpt>
      <trkpt lat="47.24239" lon="-1.63171">
        <ele>-77.25</ele>
        <time>2012-03-31T14:23:54Z</time>
      </trkpt>
      <trkpt lat="47.24231" lon="-1.63157">
        <ele>-78.5</ele>
        <time>2012-03-31T14:23:56Z</time>
      </trkpt>
      <trkpt lat="47.24223" lon="-1.63145">
        <ele>-78.75</ele>
        <time>2012-03-31T14:23:58Z</time>
      </trkpt>
      <trkpt lat="47.24217" lon="-1.63129">
        <ele>-79.5</ele>
        <time>2012-03-31T14:24:02Z</time>
      </trkpt>
      <trkpt lat="47.24213" lon="-1.63115">
        <ele>-79.25</ele>
        <time>2012-03-31T14:24:04Z</time>
      </trkpt>
      <trkpt lat="47.24209" lon="-1.631">
        <ele>-78.25</ele>
        <time>2012-03-31T14:24:06Z</time>
      </trkpt>
      <trkpt lat="47.24205" lon="-1.63082">
        <ele>-77.75</ele>
        <time>2012-03-31T14:24:10Z</time>
      </trkpt>
      <trkpt lat="47.24204" lon="-1.63062">
        <ele>-76.75</ele>
        <time>2012-03-31T14:24:13Z</time>
      </trkpt>
      <trkpt lat="47.24201" lon="-1.63043">
        <ele>-77</ele>
        <time>2012-03-31T14:24:16Z</time>
      </trkpt>
      <trkpt lat="47.24196" lon="-1.63027">
        <ele>-78</ele>
        <time>2012-03-31T14:24:18Z</time>
      </trkpt>
      <trkpt lat="47.24194" lon="-1.63011">
        <ele>-79</ele>
        <time>2012-03-31T14:24:21Z</time>
      </trkpt>
      <trkpt lat="47.24191" lon="-1.62995">
        <ele>-79.25</ele>
        <time>2012-03-31T14:24:23Z</time>
      </trkpt>
      <trkpt lat="47.24187" lon="-1.62977">
        <ele>-80.75</ele>
        <time>2012-03-31T14:24:25Z</time>
      </trkpt>
      <trkpt lat="47.24182" lon="-1.62958">
        <ele>-83.5</ele>
        <time>2012-03-31T14:24:27Z</time>
      </trkpt>
      <trkpt lat="47.24176" lon="-1.6294">
        <ele>-85</ele>
        <time>2012-03-31T14:24:30Z</time>
      </trkpt>
      <trkpt lat="47.24169" lon="-1.62923">
        <ele>-84.25</ele>
        <time>2012-03-31T14:24:32Z</time>
      </trkpt>
      <trkpt lat="47.24164" lon="-1.62909">
        <ele>-82.75</ele>
        <time>2012-03-31T14:24:34Z</time>
      </trkpt>
      <trkpt lat="47.24159" lon="-1.6289">
        <ele>-83</ele>
        <time>2012-03-31T14:24:36Z</time>
      </trkpt>
      <trkpt lat="47.24152" lon="-1.62872">
        <ele>-85</ele>
        <time>2012-03-31T14:24:38Z</time>
      </trkpt>
      <trkpt lat="47.24147" lon="-1.62859">
        <ele>-84.25</ele>
        <time>2012-03-31T14:24:41Z</time>
      </trkpt>
      <trkpt lat="47.24141" lon="-1.62846">
        <ele>-82.25</ele>
        <time>2012-03-31T14:24:43Z</time>
      </trkpt>
      <trkpt lat="47.24136" lon="-1.62832">
        <ele>-81.25</ele>
        <time>2012-03-31T14:24:45Z</time>
      </trkpt>
      <trkpt lat="47.24131" lon="-1.62813">
        <ele>-79.5</ele>
        <time>2012-03-31T14:24:47Z</time>
      </trkpt>
      <trkpt lat="47.24125" lon="-1.62795">
        <ele>-78.25</ele>
        <time>2012-03-31T14:24:49Z</time>
      </trkpt>
      <trkpt lat="47.24119" lon="-1.6278">
        <ele>-75.75</ele>
        <time>2012-03-31T14:24:52Z</time>
      </trkpt>
      <trkpt lat="47.24113" lon="-1.62767">
        <ele>-72</ele>
        <time>2012-03-31T14:24:54Z</time>
      </trkpt>
      <trkpt lat="47.24107" lon="-1.62756">
        <ele>-70.75</ele>
        <time>2012-03-31T14:24:56Z</time>
      </trkpt>
      <trkpt lat="47.24102" lon="-1.62739">
        <ele>-71.75</ele>
        <time>2012-03-31T14:24:59Z</time>
      </trkpt>
      <trkpt lat="47.24095" lon="-1.6273">
        <ele>-77.75</ele>
        <time>2012-03-31T14:25:23Z</time>
      </trkpt>
      <trkpt lat="47.2409" lon="-1.62719">
        <ele>-76.25</ele>
        <time>2012-03-31T14:25:40Z</time>
      </trkpt>
      <trkpt lat="47.24083" lon="-1.62709">
        <ele>-79.25</ele>
        <time>2012-03-31T14:25:48Z</time>
      </trkpt>
      <trkpt lat="47.24077" lon="-1.62723">
        <ele>-75.75</ele>
        <time>2012-03-31T14:25:56Z</time>
      </trkpt>
      <trkpt lat="47.24068" lon="-1.62699">
        <ele>-77.5</ele>
        <time>2012-03-31T14:26:20Z</time>
      </trkpt>
      <trkpt lat="47.24065" lon="-1.62681">
        <ele>-78</ele>
        <time>2012-03-31T14:26:21Z</time>
      </trkpt>
      <trkpt lat="47.24062" lon="-1.62663">
        <ele>-78</ele>
        <time>2012-03-31T14:26:22Z</time>
      </trkpt>
      <trkpt lat="47.24068" lon="-1.62653">
        <ele>-73.75</ele>
        <time>2012-03-31T14:26:35Z</time>
      </trkpt>
      <trkpt lat="47.24073" lon="-1.6264">
        <ele>-73.25</ele>
        <time>2012-03-31T14:26:38Z</time>
      </trkpt>
      <trkpt lat="47.2408" lon="-1.62626">
        <ele>-72.25</ele>
        <time>2012-03-31T14:26:40Z</time>
      </trkpt>
      <trkpt lat="47.24089" lon="-1.6261">
        <ele>-71.25</ele>
        <time>2012-03-31T14:26:42Z</time>
      </trkpt>
      <trkpt lat="47.24096" lon="-1.62596">
        <ele>-70.75</ele>
        <time>2012-03-31T14:26:45Z</time>
      </trkpt>
      <trkpt lat="47.24102" lon="-1.62583">
        <ele>-70.75</ele>
        <time>2012-03-31T14:26:47Z</time>
      </trkpt>
      <trkpt lat="47.24104" lon="-1.62564">
        <ele>-72.75</ele>
        <time>2012-03-31T14:26:50Z</time>
      </trkpt>
      <trkpt lat="47.24094" lon="-1.62551">
        <ele>-73.75</ele>
        <time>2012-03-31T14:26:53Z</time>
      </trkpt>
      <trkpt lat="47.24083" lon="-1.62546">
        <ele>-73</ele>
        <time>2012-03-31T14:26:55Z</time>
      </trkpt>
      <trkpt lat="47.24072" lon="-1.62539">
        <ele>-74.5</ele>
        <time>2012-03-31T14:26:59Z</time>
      </trkpt>
      <trkpt lat="47.24061" lon="-1.62526">
        <ele>-73.75</ele>
        <time>2012-03-31T14:27:02Z</time>
      </trkpt>
      <trkpt lat="47.24051" lon="-1.62511">
        <ele>-71.25</ele>
        <time>2012-03-31T14:27:04Z</time>
      </trkpt>
      <trkpt lat="47.2404" lon="-1.62496">
        <ele>-70</ele>
        <time>2012-03-31T14:27:06Z</time>
      </trkpt>
      <trkpt lat="47.24034" lon="-1.62485">
        <ele>-69.75</ele>
        <time>2012-03-31T14:27:09Z</time>
      </trkpt>
      <trkpt lat="47.24026" lon="-1.62474">
        <ele>-70.5</ele>
        <time>2012-03-31T14:27:12Z</time>
      </trkpt>
      <trkpt lat="47.24015" lon="-1.62462">
        <ele>-71.25</ele>
        <time>2012-03-31T14:27:15Z</time>
      </trkpt>
      <trkpt lat="47.24012" lon="-1.62446">
        <ele>-72.5</ele>
        <time>2012-03-31T14:27:18Z</time>
      </trkpt>
      <trkpt lat="47.24015" lon="-1.62431">
        <ele>-73</ele>
        <time>2012-03-31T14:27:22Z</time>
      </trkpt>
      <trkpt lat="47.24015" lon="-1.6241">
        <ele>-75.75</ele>
        <time>2012-03-31T14:27:25Z</time>
      </trkpt>
      <trkpt lat="47.24014" lon="-1.62394">
        <ele>-78.25</ele>
        <time>2012-03-31T14:27:27Z</time>
      </trkpt>
      <trkpt lat="47.2401" lon="-1.6238">
        <ele>-81</ele>
        <time>2012-03-31T14:27:31Z</time>
      </trkpt>
      <trkpt lat="47.24002" lon="-1.6237">
        <ele>-81</ele>
        <time>2012-03-31T14:27:34Z</time>
      </trkpt>
      <trkpt lat="47.24001" lon="-1.62353">
        <ele>-80.25</ele>
        <time>2012-03-31T14:27:36Z</time>
      </trkpt>
      <trkpt lat="47.24005" lon="-1.62329">
        <ele>-81</ele>
        <time>2012-03-31T14:27:38Z</time>
      </trkpt>
      <trkpt lat="47.2401" lon="-1.62313">
        <ele>-81.25</ele>
        <time>2012-03-31T14:27:41Z</time>
      </trkpt>
      <trkpt lat="47.24012" lon="-1.62299">
        <ele>-76.75</ele>
        <time>2012-03-31T14:27:47Z</time>
      </trkpt>
      <trkpt lat="47.24012" lon="-1.62282">
        <ele>-77</ele>
        <time>2012-03-31T14:27:58Z</time>
      </trkpt>
      <trkpt lat="47.24012" lon="-1.62268">
        <ele>-77.75</ele>
        <time>2012-03-31T14:28:00Z</time>
      </trkpt>
      <trkpt lat="47.24011" lon="-1.62253">
        <ele>-78</ele>
        <time>2012-03-31T14:28:02Z</time>
      </trkpt>
      <trkpt lat="47.2401" lon="-1.62238">
        <ele>-78</ele>
        <time>2012-03-31T14:28:05Z</time>
      </trkpt>
      <trkpt lat="47.24011" lon="-1.62223">
        <ele>-78</ele>
        <time>2012-03-31T14:28:07Z</time>
      </trkpt>
      <trkpt lat="47.2401" lon="-1.62205">
        <ele>-78.25</ele>
        <time>2012-03-31T14:28:09Z</time>
      </trkpt>
      <trkpt lat="47.2401" lon="-1.62186">
        <ele>-78.75</ele>
        <time>2012-03-31T14:28:11Z</time>
      </trkpt>
      <trkpt lat="47.24011" lon="-1.62171">
        <ele>-79</ele>
        <time>2012-03-31T14:28:13Z</time>
      </trkpt>
      <trkpt lat="47.24011" lon="-1.62155">
        <ele>-77.5</ele>
        <time>2012-03-31T14:28:17Z</time>
      </trkpt>
      <trkpt lat="47.2401" lon="-1.6214">
        <ele>-75.25</ele>
        <time>2012-03-31T14:28:20Z</time>
      </trkpt>
      <trkpt lat="47.24011" lon="-1.62123">
        <ele>-75.25</ele>
        <time>2012-03-31T14:28:22Z</time>
      </trkpt>
      <trkpt lat="47.24012" lon="-1.62104">
        <ele>-75.75</ele>
        <time>2012-03-31T14:28:24Z</time>
      </trkpt>
      <trkpt lat="47.24013" lon="-1.62089">
        <ele>-76.25</ele>
        <time>2012-03-31T14:28:27Z</time>
      </trkpt>
      <trkpt lat="47.24014" lon="-1.62076">
        <ele>-76.25</ele>
        <time>2012-03-31T14:28:29Z</time>
      </trkpt>
      <trkpt lat="47.24012" lon="-1.62058">
        <ele>-77.25</ele>
        <time>2012-03-31T14:28:32Z</time>
      </trkpt>
      <trkpt lat="47.24007" lon="-1.62046">
        <ele>-77.75</ele>
        <time>2012-03-31T14:28:36Z</time>
      </trkpt>
      <trkpt lat="47.23997" lon="-1.62031">
        <ele>-79.75</ele>
        <time>2012-03-31T14:28:39Z</time>
      </trkpt>
      <trkpt lat="47.23988" lon="-1.62017">
        <ele>-81.75</ele>
        <time>2012-03-31T14:28:41Z</time>
      </trkpt>
      <trkpt lat="47.23979" lon="-1.62008">
        <ele>-84.25</ele>
        <time>2012-03-31T14:28:43Z</time>
      </trkpt>
      <trkpt lat="47.23969" lon="-1.61998">
        <ele>-84.75</ele>
        <time>2012-03-31T14:28:47Z</time>
      </trkpt>
      <trkpt lat="47.23961" lon="-1.61991">
        <ele>-82.75</ele>
        <time>2012-03-31T14:28:49Z</time>
      </trkpt>
      <trkpt lat="47.23951" lon="-1.61984">
        <ele>-80.25</ele>
        <time>2012-03-31T14:28:51Z</time>
      </trkpt>
      <trkpt lat="47.23943" lon="-1.61978">
        <ele>-78.25</ele>
        <time>2012-03-31T14:28:53Z</time>
      </trkpt>
      <trkpt lat="47.23933" lon="-1.61972">
        <ele>-73.25</ele>
        <time>2012-03-31T14:28:57Z</time>
      </trkpt>
      <trkpt lat="47.23922" lon="-1.61967">
        <ele>-70.75</ele>
        <time>2012-03-31T14:29:00Z</time>
      </trkpt>
      <trkpt lat="47.23913" lon="-1.61964">
        <ele>-68</ele>
        <time>2012-03-31T14:29:02Z</time>
      </trkpt>
      <trkpt lat="47.23903" lon="-1.6196">
        <ele>-64.5</ele>
        <time>2012-03-31T14:29:04Z</time>
      </trkpt>
      <trkpt lat="47.23893" lon="-1.61957">
        <ele>-61.75</ele>
        <time>2012-03-31T14:29:07Z</time>
      </trkpt>
      <trkpt lat="47.23882" lon="-1.61953">
        <ele>-60</ele>
        <time>2012-03-31T14:29:09Z</time>
      </trkpt>
      <trkpt lat="47.23871" lon="-1.61949">
        <ele>-58.75</ele>
        <time>2012-03-31T14:29:11Z</time>
      </trkpt>
      <trkpt lat="47.23859" lon="-1.61944">
        <ele>-59.5</ele>
        <time>2012-03-31T14:29:13Z</time>
      </trkpt>
      <trkpt lat="47.23849" lon="-1.61938">
        <ele>-62.25</ele>
        <time>2012-03-31T14:29:15Z</time>
      </trkpt>
      <trkpt lat="47.2384" lon="-1.6193">
        <ele>-65.75</ele>
        <time>2012-03-31T14:29:19Z</time>
      </trkpt>
      <trkpt lat="47.23831" lon="-1.61916">
        <ele>-69.25</ele>
        <time>2012-03-31T14:29:22Z</time>
      </trkpt>
      <trkpt lat="47.23822" lon="-1.61903">
        <ele>-69.75</ele>
        <time>2012-03-31T14:29:24Z</time>
      </trkpt>
      <trkpt lat="47.23815" lon="-1.61889">
        <ele>-69.25</ele>
        <time>2012-03-31T14:29:26Z</time>
      </trkpt>
      <trkpt lat="47.23808" lon="-1.61876">
        <ele>-69</ele>
        <time>2012-03-31T14:29:29Z</time>
      </trkpt>
      <trkpt lat="47.23802" lon="-1.61864">
        <ele>-68.5</ele>
        <time>2012-03-31T14:29:31Z</time>
      </trkpt>
      <trkpt lat="47.23796" lon="-1.61852">
        <ele>-68.25</ele>
        <time>2012-03-31T14:29:33Z</time>
      </trkpt>
      <trkpt lat="47.23788" lon="-1.61838">
        <ele>-69.5</ele>
        <time>2012-03-31T14:29:35Z</time>
      </trkpt>
      <trkpt lat="47.2378" lon="-1.61823">
        <ele>-72</ele>
        <time>2012-03-31T14:29:37Z</time>
      </trkpt>
      <trkpt lat="47.23775" lon="-1.61811">
        <ele>-74.25</ele>
        <time>2012-03-31T14:29:40Z</time>
      </trkpt>
      <trkpt lat="47.23769" lon="-1.61792">
        <ele>-76.25</ele>
        <time>2012-03-31T14:29:43Z</time>
      </trkpt>
      <trkpt lat="47.23764" lon="-1.61775">
        <ele>-78.5</ele>
        <time>2012-03-31T14:29:45Z</time>
      </trkpt>
      <trkpt lat="47.23761" lon="-1.61759">
        <ele>-79.5</ele>
        <time>2012-03-31T14:29:47Z</time>
      </trkpt>
      <trkpt lat="47.23757" lon="-1.61744">
        <ele>-80.75</ele>
        <time>2012-03-31T14:29:49Z</time>
      </trkpt>
      <trkpt lat="47.23756" lon="-1.61729">
        <ele>-82.5</ele>
        <time>2012-03-31T14:29:52Z</time>
      </trkpt>
      <trkpt lat="47.23754" lon="-1.61712">
        <ele>-83.75</ele>
        <time>2012-03-31T14:29:54Z</time>
      </trkpt>
      <trkpt lat="47.23752" lon="-1.61694">
        <ele>-85.5</ele>
        <time>2012-03-31T14:29:56Z</time>
      </trkpt>
      <trkpt lat="47.23752" lon="-1.61671">
        <ele>-87.5</ele>
        <time>2012-03-31T14:29:58Z</time>
      </trkpt>
      <trkpt lat="47.23755" lon="-1.61652">
        <ele>-89</ele>
        <time>2012-03-31T14:30:00Z</time>
      </trkpt>
      <trkpt lat="47.23759" lon="-1.61636">
        <ele>-90.25</ele>
        <time>2012-03-31T14:30:04Z</time>
      </trkpt>
      <trkpt lat="47.23762" lon="-1.61623">
        <ele>-89</ele>
        <time>2012-03-31T14:30:07Z</time>
      </trkpt>
      <trkpt lat="47.23762" lon="-1.61609">
        <ele>-87</ele>
        <time>2012-03-31T14:30:10Z</time>
      </trkpt>
      <trkpt lat="47.23758" lon="-1.61591">
        <ele>-86.25</ele>
        <time>2012-03-31T14:30:13Z</time>
      </trkpt>
      <trkpt lat="47.23757" lon="-1.61573">
        <ele>-85</ele>
        <time>2012-03-31T14:30:17Z</time>
      </trkpt>
      <trkpt lat="47.23758" lon="-1.6156">
        <ele>-83.75</ele>
        <time>2012-03-31T14:30:21Z</time>
      </trkpt>
      <trkpt lat="47.23754" lon="-1.61547">
        <ele>-85.25</ele>
        <time>2012-03-31T14:30:30Z</time>
      </trkpt>
      <trkpt lat="47.23747" lon="-1.61538">
        <ele>-96.5</ele>
        <time>2012-03-31T14:30:40Z</time>
      </trkpt>
      <trkpt lat="47.23751" lon="-1.61526">
        <ele>-104.5</ele>
        <time>2012-03-31T14:30:54Z</time>
      </trkpt>
      <trkpt lat="47.23753" lon="-1.61512">
        <ele>-96</ele>
        <time>2012-03-31T14:30:57Z</time>
      </trkpt>
      <trkpt lat="47.23758" lon="-1.61498">
        <ele>-87.25</ele>
        <time>2012-03-31T14:31:01Z</time>
      </trkpt>
      <trkpt lat="47.23766" lon="-1.61482">
        <ele>-78.25</ele>
        <time>2012-03-31T14:31:04Z</time>
      </trkpt>
      <trkpt lat="47.23771" lon="-1.61465">
        <ele>-72.75</ele>
        <time>2012-03-31T14:31:06Z</time>
      </trkpt>
      <trkpt lat="47.23775" lon="-1.61442">
        <ele>-68.75</ele>
        <time>2012-03-31T14:31:08Z</time>
      </trkpt>
      <trkpt lat="47.23778" lon="-1.61419">
        <ele>-66.5</ele>
        <time>2012-03-31T14:31:11Z</time>
      </trkpt>
      <trkpt lat="47.2378" lon="-1.61401">
        <ele>-65.75</ele>
        <time>2012-03-31T14:31:13Z</time>
      </trkpt>
      <trkpt lat="47.23782" lon="-1.61382">
        <ele>-66.5</ele>
        <time>2012-03-31T14:31:16Z</time>
      </trkpt>
      <trkpt lat="47.23781" lon="-1.61368">
        <ele>-67.75</ele>
        <time>2012-03-31T14:31:18Z</time>
      </trkpt>
      <trkpt lat="47.23774" lon="-1.61353">
        <ele>-70</ele>
        <time>2012-03-31T14:31:22Z</time>
      </trkpt>
      <trkpt lat="47.23766" lon="-1.61339">
        <ele>-70.75</ele>
        <time>2012-03-31T14:31:25Z</time>
      </trkpt>
      <trkpt lat="47.23759" lon="-1.61331">
        <ele>-72</ele>
        <time>2012-03-31T14:31:27Z</time>
      </trkpt>
      <trkpt lat="47.23749" lon="-1.61321">
        <ele>-74.75</ele>
        <time>2012-03-31T14:31:30Z</time>
      </trkpt>
      <trkpt lat="47.2374" lon="-1.61313">
        <ele>-77.25</ele>
        <time>2012-03-31T14:31:32Z</time>
      </trkpt>
      <trkpt lat="47.23729" lon="-1.6131">
        <ele>-78</ele>
        <time>2012-03-31T14:31:34Z</time>
      </trkpt>
      <trkpt lat="47.23718" lon="-1.61309">
        <ele>-77.5</ele>
        <time>2012-03-31T14:31:36Z</time>
      </trkpt>
      <trkpt lat="47.23707" lon="-1.61303">
        <ele>-73.5</ele>
        <time>2012-03-31T14:31:40Z</time>
      </trkpt>
      <trkpt lat="47.23699" lon="-1.61292">
        <ele>-72</ele>
        <time>2012-03-31T14:31:43Z</time>
      </trkpt>
      <trkpt lat="47.23693" lon="-1.6128">
        <ele>-73</ele>
        <time>2012-03-31T14:31:45Z</time>
      </trkpt>
      <trkpt lat="47.23688" lon="-1.61265">
        <ele>-74</ele>
        <time>2012-03-31T14:31:47Z</time>
      </trkpt>
      <trkpt lat="47.23684" lon="-1.61253">
        <ele>-74.75</ele>
        <time>2012-03-31T14:31:50Z</time>
      </trkpt>
      <trkpt lat="47.23682" lon="-1.61239">
        <ele>-74.25</ele>
        <time>2012-03-31T14:31:53Z</time>
      </trkpt>
      <trkpt lat="47.23692" lon="-1.61245">
        <ele>-71.5</ele>
        <time>2012-03-31T14:32:00Z</time>
      </trkpt>
      <trkpt lat="47.23696" lon="-1.61233">
        <ele>-72.25</ele>
        <time>2012-03-31T14:32:05Z</time>
      </trkpt>
      <trkpt lat="47.23696" lon="-1.61218">
        <ele>-73</ele>
        <time>2012-03-31T14:32:08Z</time>
      </trkpt>
      <trkpt lat="47.23698" lon="-1.61205">
        <ele>-76.75</ele>
        <time>2012-03-31T14:32:13Z</time>
      </trkpt>
      <trkpt lat="47.237" lon="-1.61195">
        <ele>-75</ele>
        <time>2012-03-31T14:32:29Z</time>
      </trkpt>
    </trkseg>
  </trk>
</gpx>